[[{"header":{"parameterUnit":"m.s-1","parameterCategory":1,"la1":30.6,"la2":28.766,"lo1":-90.7593,"lo2":-88.6598,"dy":0.0162,"dx":0.0183,"nx":116,"ny":114,"refTime":"2024-06-17T18:00:00:Z","depth":0,"parameterNumber":2,"parameterNumberName":"U-component_of_WINDS"},"data":[0.0,0.0,0.0,0.0,0.0,0.0,0.0,0.0,0.0,0.0,0.0,0.0,0.0,0.0,0.0,0.0,0.0,0.0,0.0,0.0,0.0,0.0,0.0,0.0,0.0,0.0,0.0,0.0,0.0,0.0,0.0,0.0,0.0,0.0,0.0,0.0,0.0,0.0,0.0,0.0,0.0,0.0,0.0,0.0,0.0,0.0,0.0,0.0,0.0,0.0,0.0,0.0,0.0,0.0,0.0,0.0,0.0,0.0,0.0,0.0,0.0,0.0,0.0,0.0,0.0,0.0,0.0,0.0,0.0,0.0,0.0,0.0,0.0,0.0,0.0,0.0,0.0,0.0,0.0,0.0,0.0,0.0,0.0,0.0,0.0,0.0,0.0,0.0,0.0,0.0,0.0,0.0,0.0,0.0,0.0,0.0,0.0,0.0,0.0,0.0,0.0,0.0,0.0,0.0,0.0,0.0,0.0,0.0,0.0,0.0,0.0,0.0,0.0,0.0,0.0,0.0,0.0,0.0,0.0,0.0,0.0,0.0,0.0,0.0,0.0,0.0,0.0,0.0,0.0,0.0,0.0,0.0,0.0,0.0,0.0,0.0,0.0,0.0,0.0,0.0,0.0,0.0,0.0,0.0,0.0,0.0,0.0,0.0,0.0,0.0,0.0,0.0,0.0,0.0,0.0,0.0,0.0,0.0,0.0,0.0,0.0,0.0,0.0,0.0,0.0,0.0,0.0,0.0,0.0,0.0,0.0,0.0,0.0,0.0,0.0,0.0,0.0,0.0,0.0,0.0,0.0,0.0,0.0,0.0,0.0,0.0,0.0,0.0,0.0,0.0,0.0,0.0,0.0,0.0,0.0,0.0,0.0,0.0,0.0,0.0,0.0,0.0,0.0,0.0,0.0,0.0,0.0,0.0,0.0,0.0,0.0,0.0,0.0,0.0,0.0,0.0,0.0,0.0,0.0,0.0,0.0,0.0,0.0,0.0,0.0,0.0,0.0,0.0,0.0,0.0,0.0,0.0,0.0,0.0,0.0,0.0,0.0,0.0,0.0,0.0,0.0,0.0,0.0,0.0,0.0,0.0,0.0,0.0,0.0,0.0,0.0,0.0,0.0,0.0,0.0,0.0,0.0,0.0,0.0,0.0,0.0,0.0,0.0,0.0,0.0,0.0,0.0,0.0,0.0,0.0,0.0,0.0,0.0,0.0,0.0,0.0,0.0,0.0,0.0,0.0,0.0,0.0,0.0,0.0,0.0,0.0,0.0,0.0,0.0,0.0,0.0,0.0,0.0,0.0,0.0,0.0,0.0,0.0,0.0,0.0,0.0,0.0,0.0,0.0,0.0,0.0,0.0,0.0,0.0,0.0,0.0,0.0,0.0,0.0,0.0,0.0,0.0,0.0,0.0,0.0,0.0,0.0,0.0,0.0,0.0,0.0,0.0,0.0,0.0,0.0,0.0,0.0,0.0,0.0,0.0,0.0,0.0,0.0,0.0,0.0,0.0,0.0,0.0,0.0,0.0,0.0,0.0,0.0,0.0,0.0,0.0,0.0,0.0,0.0,0.0,0.0,0.0,0.0,0.0,0.0,0.0,0.0,0.0,0.0,0.0,0.0,0.0,0.0,0.0,0.0,0.0,0.0,0.0,0.0,0.0,0.0,0.0,0.0,0.0,0.0,0.0,0.0,0.0,0.0,0.0,0.0,0.0,0.0,0.0,0.0,0.0,0.0,0.0,0.0,0.0,0.0,0.0,0.0,0.0,0.0,0.0,0.0,0.0,0.0,0.0,0.0,0.0,0.0,0.0,0.0,0.0,0.0,0.0,0.0,0.0,0.0,0.0,0.0,0.0,0.0,0.0,0.0,0.0,0.0,0.0,0.0,0.0,0.0,0.0,0.0,0.0,0.0,0.0,0.0,0.0,0.0,0.0,0.0,0.0,0.0,0.0,0.0,0.0,0.0,0.0,0.0,0.0,0.0,0.0,0.0,0.0,0.0,0.0,0.0,0.0,0.0,0.0,0.0,0.0,0.0,0.0,0.0,0.0,0.0,0.0,0.0,0.0,0.0,0.0,0.0,0.0,0.0,0.0,0.0,0.0,0.0,0.0,0.0,0.0,0.0,0.0,0.0,0.0,0.0,0.0,0.0,0.0,0.0,0.0,0.0,0.0,0.0,0.0,0.0,0.0,0.0,0.0,0.0,0.0,0.0,0.0,0.0,0.0,0.0,0.0,0.0,0.0,0.0,0.0,0.0,0.0,0.0,0.0,0.0,0.0,0.0,0.0,0.0,0.0,0.0,0.0,0.0,0.0,0.0,0.0,0.0,0.0,0.0,0.0,0.0,0.0,0.0,0.0,0.0,0.0,0.0,0.0,0.0,0.0,0.0,0.0,0.0,0.0,0.0,0.0,0.0,0.0,0.0,0.0,0.0,0.0,0.0,0.0,0.0,0.0,0.0,0.0,0.0,0.0,0.0,0.0,0.0,0.0,0.0,0.0,0.0,0.0,0.0,0.0,0.0,0.0,0.0,0.0,0.0,0.0,0.0,0.0,0.0,0.0,0.0,0.0,0.0,0.0,0.0,0.0,0.0,0.0,0.0,0.0,0.0,0.0,0.0,0.0,0.0,0.0,0.0,0.0,0.0,0.0,0.0,0.0,0.0,0.0,0.0,0.0,0.0,0.0,0.0,0.0,0.0,0.0,0.0,0.0,0.0,0.0,0.0,0.0,0.0,0.0,0.0,0.0,0.0,0.0,0.0,0.0,0.0,0.0,0.0,0.0,0.0,0.0,0.0,0.0,0.0,0.0,0.0,0.0,0.0,0.0,0.0,0.0,0.0,0.0,0.0,0.0,0.0,0.0,0.0,0.0,0.0,0.0,0.0,0.0,0.0,0.0,0.0,0.0,0.0,0.0,0.0,0.0,0.0,0.0,0.0,0.0,0.0,0.0,0.0,0.0,0.0,0.0,0.0,0.0,0.0,0.0,0.0,0.0,0.0,0.0,0.0,0.0,0.0,0.0,0.0,0.0,0.0,0.0,0.0,0.0,0.0,0.0,0.0,0.0,0.0,0.0,0.0,0.0,0.0,0.0,0.0,0.0,0.0,0.0,0.0,0.0,0.0,0.0,0.0,0.0,0.0,0.0,0.0,0.0,0.0,0.0,0.0,0.0,0.0,0.0,0.0,0.0,0.0,0.0,0.0,0.0,0.0,0.0,0.0,0.0,0.0,0.0,0.0,0.0,0.0,0.0,0.0,0.0,0.0,0.0,0.0,0.0,0.0,0.0,0.0,0.0,0.0,0.0,0.0,0.0,0.0,0.0,0.0,0.0,0.0,0.0,0.0,0.0,0.0,0.0,0.0,0.0,0.0,0.0,0.0,0.0,0.0,0.0,0.0,0.0,0.0,0.0,0.0,0.0,0.0,0.0,0.0,0.0,0.0,0.0,0.0,0.0,0.0,0.0,0.0,0.0,0.0,0.0,0.0,0.0,0.0,0.0,0.0,0.0,0.0,0.0,0.0,0.0,0.0,0.0,0.0,0.0,0.0,0.0,0.0,0.0,0.0,0.0,0.0,0.0,0.0,0.0,0.0,0.0,0.0,0.0,0.0,0.0,0.0,0.0,0.0,0.0,0.0,0.0,0.0,0.0,0.0,0.0,0.0,0.0,0.0,0.0,0.0,0.0,0.0,0.0,0.0,0.0,0.0,0.0,0.0,0.0,0.0,0.0,0.0,0.0,0.0,0.0,0.0,0.0,0.0,0.0,0.0,0.0,0.0,0.0,0.0,0.0,0.0,0.0,0.0,0.0,0.0,0.0,0.0,0.0,0.0,0.0,0.0,0.0,0.0,0.0,0.0,0.0,0.0,0.0,0.0,0.0,0.0,0.0,0.0,0.0,0.0,0.0,0.0,0.0,0.0,0.0,0.0,0.0,0.0,0.0,0.0,0.0,0.0,0.0,0.0,0.0,0.0,0.0,0.0,0.0,0.0,0.0,0.0,0.0,0.0,0.0,0.0,0.0,0.0,0.0,0.0,0.0,0.0,0.0,0.0,0.0,0.0,0.0,0.0,0.0,0.0,0.0,0.0,0.0,0.0,0.0,0.0,0.0,0.0,0.0,0.0,0.0,0.0,0.0,0.0,0.0,0.0,0.0,0.0,0.0,0.0,0.0,0.0,0.0,0.0,0.0,0.0,0.0,0.0,0.0,0.0,0.0,0.0,0.0,0.0,0.0,0.0,0.0,0.0,0.0,0.0,0.0,0.0,0.0,0.0,0.0,0.0,0.0,0.0,0.0,0.0,0.0,0.0,0.0,0.0,0.0,0.0,0.0,0.0,0.0,0.0,0.0,0.0,0.0,0.0,0.0,0.0,0.0,0.0,0.0,0.0,0.0,0.0,0.0,0.0,0.0,0.0,0.0,0.0,0.0,0.0,0.0,0.0,0.0,0.0,0.0,0.0,0.0,0.0,0.0,0.0,0.0,0.0,0.0,0.0,0.0,0.0,0.0,0.0,0.0,0.0,0.0,0.0,0.0,0.0,0.0,0.0,0.0,0.0,0.0,0.0,0.0,0.0,0.0,0.0,0.0,0.0,0.0,0.0,0.0,0.0,0.0,0.0,0.0,0.0,0.0,0.0,0.0,0.0,0.0,0.0,0.0,0.0,0.0,0.0,0.0,0.0,0.0,0.0,0.0,0.0,0.0,0.0,0.0,0.0,0.0,0.0,0.0,0.0,0.0,0.0,0.0,0.0,0.0,0.0,0.0,0.0,0.0,0.0,0.0,0.0,0.0,0.0,0.0,0.0,0.0,0.0,0.0,0.0,0.0,0.0,0.0,0.0,0.0,0.0,0.0,0.0,0.0,0.0,0.0,0.0,0.0,0.0,0.0,0.0,0.0,0.0,0.0,0.0,0.0,0.0,0.0,0.0,0.0,0.0,0.0,0.0,0.0,0.0,0.0,0.0,0.0,0.0,0.0,0.0,0.0,0.0,0.0,0.0,0.0,0.0,0.0,0.0,0.0,0.0,0.0,0.0,0.0,0.0,0.0,0.0,0.0,0.0,0.0,0.0,0.0,0.0,0.0,0.0,0.0,0.0,0.0,0.0,0.0,0.0,0.0,0.0,0.0,0.0,0.0,0.0,0.0,0.0,0.0,0.0,0.0,0.0,0.0,0.0,0.0,0.0,0.0,0.0,0.0,0.0,0.0,0.0,0.0,0.0,0.0,0.0,0.0,0.0,0.0,0.0,0.0,0.0,0.0,0.0,0.0,0.0,0.0,0.0,0.0,0.0,0.0,0.0,0.0,0.0,0.0,0.0,0.0,0.0,0.0,0.0,0.0,0.0,0.0,0.0,0.0,0.0,0.0,0.0,0.0,0.0,0.0,0.0,0.0,0.0,0.0,0.0,0.0,0.0,0.0,0.0,0.0,0.0,0.0,0.0,0.0,0.0,0.0,0.0,0.0,0.0,0.0,0.0,0.0,0.0,0.0,0.0,0.0,0.0,0.0,0.0,0.0,0.0,0.0,0.0,0.0,0.0,0.0,0.0,0.0,0.0,0.0,0.0,0.0,0.0,0.0,0.0,0.0,0.0,0.0,0.0,0.0,0.0,0.0,0.0,0.0,0.0,0.0,0.0,0.0,0.0,0.0,0.0,0.0,0.0,0.0,0.0,0.0,0.0,0.0,0.0,0.0,0.0,0.0,0.0,0.0,0.0,0.0,0.0,0.0,0.0,0.0,0.0,0.0,0.0,0.0,0.0,0.0,0.0,0.0,0.0,0.0,0.0,0.0,0.0,0.0,0.0,0.0,0.0,0.0,0.0,0.0,0.0,0.0,0.0,0.0,0.0,0.0,0.0,0.0,0.0,0.0,0.0,0.0,0.0,0.0,0.0,0.0,0.0,0.0,0.0,0.0,0.0,0.0,0.0,0.0,0.0,0.0,0.0,0.0,0.0,0.0,0.0,0.0,0.0,0.0,0.0,0.0,0.0,0.0,0.0,0.0,0.0,0.0,0.0,0.0,0.0,0.0,0.0,0.0,0.0,0.0,0.0,0.0,0.0,0.0,0.0,0.0,0.0,0.0,0.0,0.0,0.0,0.0,0.0,-1.9587,0.0,0.0,0.0,0.0,0.0,0.0,0.0,0.0,0.0,0.0,0.0,0.0,0.0,0.0,0.0,0.0,0.0,0.0,0.0,0.0,0.0,0.0,0.0,0.0,-1.3214,-1.3512,-1.381,-1.3838,-1.3865,-1.3946,-1.381,-1.3688,-1.362,-1.3403,-1.3173,-1.2942,-1.2942,-1.2929,-1.2929,-1.301,-1.3078,-1.3105,-1.3064,-1.2683,-1.1938,0.0,0.0,0.0,0.0,0.0,0.0,0.0,0.0,0.0,0.0,0.0,0.0,0.0,0.0,0.0,0.0,0.0,0.0,0.0,0.0,0.0,0.0,0.0,0.0,0.0,0.0,0.0,0.0,0.0,0.0,0.0,0.0,0.0,0.0,0.0,0.0,0.0,0.0,0.0,0.0,0.0,0.0,0.0,0.0,0.0,0.0,0.0,0.0,0.0,0.0,0.0,0.0,0.0,0.0,0.0,0.0,0.0,0.0,0.0,0.0,0.0,0.0,0.0,0.0,0.0,0.0,0.0,0.0,0.0,0.0,0.0,-2.0097,0.0,0.0,0.0,0.0,0.0,0.0,0.0,0.0,0.0,0.0,0.0,0.0,0.0,0.0,0.0,0.0,0.0,0.0,0.0,0.0,0.0,-1.2451,-1.3173,-1.3512,-1.3892,-1.438,-1.4394,-1.4394,-1.4421,-1.4245,-1.4082,-1.3889,-1.3741,-1.358,-1.3295,-1.3444,-1.3512,-1.3512,-1.3702,-1.3808,-1.3957,-1.4095,-1.362,-1.2657,-1.2277,0.0,0.0,0.0,0.0,0.0,0.0,0.0,0.0,0.0,0.0,0.0,0.0,0.0,0.0,0.0,0.0,0.0,0.0,0.0,0.0,0.0,0.0,0.0,0.0,0.0,0.0,0.0,0.0,0.0,0.0,0.0,0.0,0.0,0.0,0.0,0.0,0.0,0.0,0.0,0.0,0.0,0.0,0.0,0.0,0.0,0.0,0.0,0.0,0.0,0.0,0.0,0.0,0.0,0.0,0.0,0.0,0.0,0.0,0.0,0.0,0.0,0.0,0.0,-2.0794,-2.055,-2.0426,-2.0128,-1.9235,-1.8039,-1.8734,-1.844,-1.7667,-2.0512,0.0,0.0,0.0,0.0,0.0,0.0,0.0,0.0,0.0,0.0,0.0,0.0,0.0,0.0,0.0,0.0,0.0,0.0,0.0,-1.2684,-1.3308,-1.3756,-1.4289,-1.4874,-1.476,-1.4733,-1.4915,-1.4611,-1.4394,-1.4245,-1.4095,-1.3933,-1.3714,-1.3905,-1.403,-1.403,-1.4258,-1.4475,-1.4579,-1.4502,-1.4367,-1.419,-1.3498,-1.3105,-1.2929,0.0,0.0,0.0,0.0,0.0,0.0,0.0,0.0,0.0,0.0,0.0,0.0,0.0,0.0,0.0,0.0,0.0,0.0,0.0,0.0,0.0,0.0,0.0,0.0,0.0,0.0,0.0,0.0,0.0,0.0,0.0,0.0,0.0,0.0,0.0,0.0,0.0,0.0,0.0,0.0,0.0,-2.0115,-2.036,0.0,0.0,0.0,0.0,0.0,0.0,0.0,0.0,0.0,0.0,0.0,0.0,0.0,-2.2472,-2.2121,-2.0828,-1.9858,-1.9166,-1.7834,-1.6985,-1.6629,-1.6586,-1.651,-1.639,-1.641,0.0,-1.8083,-1.8184,0.0,0.0,0.0,0.0,0.0,0.0,0.0,0.0,0.0,0.0,0.0,0.0,0.0,0.0,0.0,0.0,0.0,0.0,0.0,0.0,0.0,-1.4231,-1.4692,-1.5289,-1.5357,-1.5316,-1.5221,-1.5086,-1.4909,-1.4692,-1.4529,-1.438,-1.4217,-1.4448,-1.4665,-1.4828,-1.5208,-1.5384,-1.5371,-1.5479,-1.5479,-1.5371,-1.4882,-1.4204,-1.339,-1.2793,0.0,0.0,0.0,0.0,0.0,0.0,0.0,0.0,0.0,0.0,0.0,0.0,0.0,0.0,0.0,0.0,0.0,0.0,0.0,0.0,0.0,0.0,0.0,0.0,0.0,0.0,0.0,0.0,0.0,0.0,0.0,0.0,0.0,0.0,0.0,0.0,0.0,0.0,0.0,-1.9979,-2.0718,-1.972,-2.1572,-2.2921,0.0,0.0,0.0,0.0,0.0,0.0,0.0,0.0,0.0,-2.1414,-2.1533,-2.0958,-1.9511,-1.8918,-1.8472,-1.8282,-1.7433,-1.7012,-1.7024,-1.6809,-1.6822,-1.6958,-1.6795,-1.7067,-1.766,-1.7927,-1.9027,-2.0593,0.0,0.0,0.0,0.0,-2.1186,-2.072,0.0,0.0,0.0,0.0,0.0,0.0,0.0,0.0,0.0,0.0,0.0,0.0,-1.4326,-1.4679,-1.5053,-1.5696,-1.5778,-1.5723,-1.5533,-1.5452,-1.5289,-1.5078,-1.4882,-1.4746,-1.4638,-1.4964,-1.5303,-1.5642,-1.6008,-1.6157,-1.609,-1.632,-1.6334,-1.6185,-1.5927,-1.5147,-1.4052,-1.3416,-1.2929,-1.2467,0.0,0.0,0.0,0.0,0.0,0.0,0.0,0.0,0.0,0.0,0.0,0.0,0.0,0.0,0.0,0.0,0.0,0.0,0.0,0.0,0.0,0.0,0.0,0.0,0.0,0.0,0.0,0.0,0.0,0.0,0.0,0.0,0.0,0.0,0.0,0.0,0.0,-1.9379,-2.0225,-1.8866,-2.0545,-2.181,0.0,0.0,0.0,0.0,0.0,0.0,-2.2654,-2.3331,-2.2722,-2.0489,-2.0441,-1.9577,-1.765,-1.7758,-1.7826,-1.7922,-1.7717,-1.7717,-1.7867,-1.7636,-1.7582,-1.7595,-1.7473,-1.7392,-1.7281,-1.7773,-1.8255,-1.8728,-1.9798,-2.0424,-2.0658,-2.0577,-2.0299,-1.9794,0.0,0.0,0.0,0.0,0.0,0.0,0.0,0.0,0.0,0.0,0.0,-1.3984,-1.4606,-1.4977,-1.5398,-1.6008,-1.5805,-1.5696,-1.5867,-1.556,-1.5343,-1.5181,-1.5078,-1.4996,-1.4996,-1.5384,-1.5769,-1.6266,-1.6429,-1.6513,-1.6648,-1.6662,-1.6594,-1.6497,-1.6347,-1.5995,-1.5445,-1.4733,-1.4163,-1.366,-1.3119,0.0,0.0,0.0,0.0,0.0,0.0,0.0,0.0,0.0,0.0,0.0,0.0,0.0,0.0,0.0,0.0,0.0,0.0,0.0,0.0,0.0,0.0,0.0,0.0,0.0,0.0,0.0,0.0,0.0,0.0,0.0,0.0,0.0,0.0,0.0,0.0,0.0,0.0,-1.679,-1.9084,0.0,0.0,0.0,0.0,-2.2511,-2.2375,-2.1888,-2.1183,-2.2128,-2.1545,-1.8983,-1.8608,-1.84,-1.8274,-1.8287,-1.8138,-1.7922,-1.8138,-1.8124,-1.7922,-1.7895,-1.7772,-1.7595,-1.7595,-1.75,-1.7365,-1.6942,-1.7961,-1.9828,-1.9786,-2.0846,-2.225,-2.041,-1.9395,-1.8616,0.0,0.0,0.0,-1.1884,-1.187,-1.1942,-1.2427,-1.2671,-1.2956,-1.3403,-1.3984,-1.4566,-1.5066,-1.552,-1.5927,-1.6334,-1.6266,-1.6144,-1.6058,-1.5723,-1.5574,-1.5663,-1.5384,-1.5438,-1.5818,-1.5995,-1.6239,-1.654,-1.6931,-1.708,-1.7039,-1.7189,-1.7189,-1.7093,-1.6944,-1.6781,-1.6564,-1.533,-1.4597,-1.4217,-1.3634,-1.3146,0.0,0.0,0.0,0.0,0.0,0.0,0.0,0.0,0.0,0.0,0.0,0.0,0.0,0.0,0.0,0.0,0.0,0.0,0.0,0.0,0.0,0.0,0.0,0.0,0.0,0.0,0.0,0.0,0.0,0.0,0.0,0.0,0.0,0.0,0.0,0.0,0.0,-1.7811,-1.8698,0.0,-1.9,-1.9101,-1.9439,-2.0143,-2.0136,-2.0081,-1.9831,-2.0426,-2.0345,-1.9405,-1.9237,-1.9128,-1.8988,-1.8988,-1.8938,-1.8721,-1.864,-1.8545,-1.848,-1.8247,-1.8124,-1.8014,-1.788,-1.7758,-1.769,-1.7379,-1.7627,-1.814,-1.7777,-1.8225,-1.889,-1.7961,-1.7538,-1.7314,0.0,0.0,0.0,-1.187,-1.1911,-1.2074,-1.2576,-1.2915,-1.3295,-1.3783,-1.4457,-1.5093,-1.5588,-1.6035,-1.6388,-1.6527,-1.6551,-1.6415,-1.6171,-1.5872,-1.575,-1.5894,-1.5764,-1.5927,-1.6374,-1.6578,-1.6809,-1.7,-1.7446,-1.7595,-1.75,-1.7704,-1.7717,-1.7568,-1.746,-1.7392,-1.7283,-1.6239,-1.5506,-1.4991,-1.4448,-1.4055,-1.3785,0.0,0.0,0.0,0.0,0.0,0.0,0.0,0.0,0.0,0.0,0.0,0.0,0.0,0.0,0.0,0.0,0.0,0.0,0.0,0.0,0.0,0.0,0.0,0.0,0.0,0.0,0.0,0.0,0.0,0.0,0.0,0.0,0.0,0.0,-1.8043,-1.845,-1.8789,-1.8925,-1.8966,-1.8925,-1.8871,-1.8884,-1.8979,-1.9223,-1.9454,-1.9644,-1.9861,-1.9983,-2.0099,-1.9888,-1.9766,-1.9657,-1.9549,-1.9427,-1.9278,-1.9074,-1.8938,-1.883,-1.864,-1.8491,-1.8369,-1.8179,-1.8043,-1.7935,-1.784,-1.765,-1.7392,-1.7093,-1.7039,-1.7107,-1.6904,-1.677,-1.6809,0.0,0.0,0.0,-1.2016,-1.2098,-1.2302,-1.2914,-1.3214,-1.362,-1.4231,-1.4964,-1.5588,-1.6035,-1.6483,-1.6702,-1.6702,-1.6567,-1.6469,-1.6334,-1.6071,-1.5908,-1.5922,-1.6171,-1.6415,-1.6551,-1.7134,-1.746,-1.7609,-1.7962,-1.8111,-1.8097,-1.8111,-1.8016,-1.7936,-1.7936,-1.7785,-1.7609,-1.75,-1.6931,-1.6103,-1.5628,-1.5262,-1.4996,0.0,0.0,0.0,0.0,0.0,0.0,0.0,0.0,0.0,0.0,0.0,0.0,0.0,0.0,0.0,0.0,0.0,0.0,0.0,0.0,0.0,0.0,0.0,0.0,0.0,0.0,0.0,0.0,0.0,0.0,0.0,0.0,0.0,-1.8111,-1.8518,-1.8952,-1.94,-1.9712,-1.9725,-1.9291,-1.9644,-1.978,-1.9434,-1.9875,-2.0241,-2.0476,-2.0476,-2.0607,-2.0756,-2.0349,-2.0119,-2.0119,-1.9895,-1.963,-1.9407,-1.9454,-1.9291,-1.9006,-1.9006,-1.883,-1.8488,-1.8488,-1.8369,-1.8111,-1.8111,-1.8002,-1.7936,-1.7922,-1.769,-1.7433,-1.7419,-1.7229,-1.6958,0.0,0.0,-1.1491,-1.183,-1.1993,-1.2302,-1.2914,-1.3308,-1.3824,-1.4484,-1.5262,-1.5908,-1.6212,-1.6646,-1.6917,-1.6917,-1.6673,-1.6551,-1.6567,-1.5999,-1.5845,-1.6171,-1.6781,-1.7188,-1.7284,-1.7609,-1.7812,-1.7962,-1.826,-1.8355,-1.826,-1.8355,-1.8342,-1.8192,-1.8192,-1.8179,-1.8124,-1.7962,-1.7704,-1.7311,-1.6524,-1.6035,-1.5723,0.0,0.0,0.0,0.0,0.0,0.0,0.0,0.0,0.0,0.0,0.0,0.0,0.0,0.0,0.0,0.0,0.0,0.0,0.0,0.0,0.0,0.0,0.0,0.0,0.0,0.0,0.0,0.0,0.0,0.0,0.0,-1.8369,-1.8708,-1.8643,-1.9215,-1.9657,-1.9888,-2.0173,-2.0349,-2.0349,-2.0349,-2.0363,-2.0404,-2.0417,-2.0512,-2.0702,-2.0594,-2.0553,-2.0594,-2.0594,-2.0594,-2.0594,-2.0607,-2.0512,-2.0178,-2.001,-1.9766,-1.9528,-1.9237,-1.9047,-1.8843,-1.8749,-1.8586,-1.8409,-1.8301,-1.8233,-1.8165,-1.784,-1.7717,-1.7704,-1.7378,-1.7134,-1.6971,0.0,-1.1341,-1.1586,-1.187,-1.2043,-1.2302,-1.2914,-1.3336,-1.3849,-1.4593,-1.5384,-1.6017,-1.6279,-1.6714,-1.6931,-1.6795,-1.6741,-1.6673,-1.6527,-1.6229,-1.6283,-1.6797,-1.7338,-1.769,-1.7826,-1.8043,-1.8219,-1.8369,-1.8599,-1.8667,-1.8599,-1.8749,-1.8708,-1.8518,-1.8572,-1.8572,-1.8491,-1.8342,-1.8233,-1.807,-1.7365,-1.6904,-1.6592,-1.6144,-1.5756,-1.5485,-1.5194,-1.5031,-1.495,-1.4774,0.0,0.0,0.0,0.0,0.0,0.0,0.0,0.0,0.0,0.0,0.0,0.0,0.0,0.0,0.0,0.0,0.0,0.0,0.0,0.0,0.0,0.0,0.0,0.0,-1.9047,-1.9373,-1.9413,-1.978,-2.0132,-2.0349,-2.0648,-2.0865,-2.0946,-2.0824,-2.077,-2.0865,-2.0716,-2.0702,-2.0865,-2.0783,-2.0729,-2.0729,-2.0756,-2.077,-2.077,-2.0743,-2.0634,-2.0395,-2.02,-1.9942,-1.9657,-1.9481,-1.9278,-1.9074,-1.8993,-1.8898,-1.8789,-1.8654,-1.8572,0.0,0.0,0.0,0.0,0.0,-1.7202,-1.7066,0.0,-1.1463,-1.1748,-1.2057,-1.2125,-1.2343,-1.2914,-1.3336,-1.3862,-1.462,-1.5371,-1.5976,-1.6279,-1.6686,-1.6822,-1.6564,-1.6809,-1.6822,-1.6456,-1.6662,-1.7054,-1.7595,-1.784,-1.8002,-1.8165,-1.845,-1.8654,-1.8875,-1.8952,-1.9006,-1.902,-1.9156,-1.9061,-1.8861,-1.8938,-1.8938,-1.8834,-1.8654,-1.8586,-1.8518,-1.8124,-1.7772,-1.7446,-1.6919,-1.677,-1.6716,-1.6185,-1.5913,-1.5729,-1.5357,0.0,0.0,0.0,0.0,0.0,0.0,0.0,0.0,0.0,0.0,0.0,0.0,0.0,0.0,0.0,0.0,0.0,0.0,0.0,0.0,0.0,0.0,0.0,0.0,-1.9752,-2.0037,-2.0336,-2.0404,-2.0526,-2.0783,-2.1055,-2.1218,-2.1218,-2.1082,-2.1001,-2.1014,-2.0878,-2.0865,-2.1001,-2.0987,0.0,0.0,0.0,-2.0834,-2.0783,-2.0539,-2.0404,-2.0313,-2.0227,-2.001,-1.98,-1.9773,-1.9596,-1.925,-1.925,-1.9237,-1.9223,-1.9074,-1.8925,-1.8721,-1.8287,-1.8016,-1.7881,-1.7568,-1.7365,-1.7216,0.0,-1.1775,-1.203,-1.2084,-1.2302,-1.2535,-1.2941,-1.3336,-1.3946,-1.4814,-1.5262,-1.571,-1.6252,-1.6497,-1.6632,-1.6648,-1.6876,-1.7039,-1.7202,-1.7487,-1.7704,-1.7868,-1.8192,-1.8477,-1.8684,-1.8816,-1.8979,-1.9115,-1.9156,-1.9169,-1.9169,-1.9183,-1.9115,-1.8952,-1.9101,-1.9074,-1.8952,-1.9047,-1.8938,-1.8766,-1.8684,-1.8342,-1.7894,-1.7324,-1.7256,-1.7365,-1.6931,-1.6904,-1.7039,-1.6836,-1.6605,-1.6324,-1.6225,-1.5783,0.0,0.0,0.0,0.0,0.0,0.0,0.0,0.0,0.0,0.0,0.0,0.0,0.0,0.0,0.0,0.0,0.0,0.0,0.0,-1.9861,-2.0119,-2.0349,-2.0648,-2.0892,-2.1068,-2.1123,-2.1177,-2.1218,-2.1218,-2.1082,-2.1055,-2.1163,-2.1041,-2.096,-2.1001,-2.0878,-2.0824,-2.0824,-2.0783,-2.0824,-2.0946,-2.0892,-2.0811,-2.0689,0.0,0.0,-2.0187,-2.0064,-1.9861,-1.9576,-1.9576,-1.9508,-1.9373,-1.9223,-1.9006,-1.8779,-1.8409,-1.8111,-1.7867,-1.7854,-1.7609,-1.7365,-1.163,-1.1895,-1.2139,-1.2288,-1.24,-1.2603,-1.2955,-1.3336,-1.3892,-1.4638,-1.5126,-1.556,-1.5927,-1.6171,-1.6279,-1.6148,-1.6537,-1.7039,-1.7717,-1.7894,-1.8111,-1.8466,-1.8572,-1.8749,-1.8979,-1.8993,-1.9101,-1.9318,-1.9318,-1.9359,-1.9427,-1.9427,-1.9359,-1.9196,-1.9196,-1.9169,-1.9101,-1.9101,-1.9006,-1.8871,-1.8861,-1.8684,-1.8369,-1.7935,-1.784,-1.7893,-1.765,-1.7582,-1.7609,-1.7378,-1.7202,-1.7,-1.6904,-1.6605,-1.6239,0.0,0.0,0.0,0.0,0.0,0.0,0.0,0.0,0.0,0.0,0.0,0.0,0.0,0.0,-1.9237,-1.9671,0.0,-1.9956,-2.0553,-2.0716,-2.0878,-2.1177,-2.1353,-2.1394,-2.1231,-2.1285,-2.1274,-2.1274,-2.119,-2.1163,-2.1313,-2.1123,-2.1041,-2.1109,-2.096,-2.0892,-2.0892,-2.0892,-2.0933,-2.1001,-2.0933,-2.0838,-2.077,-2.0607,-2.0408,-2.0336,-2.0241,-2.0051,-1.9827,-1.9861,-1.9752,-1.9535,-1.9373,-1.9183,-1.8952,-1.8749,-1.8369,-1.7962,-1.7894,-1.7717,-1.7446,-1.1237,-1.1719,-1.2148,-1.2467,-1.2549,-1.2671,-1.2969,-1.3336,-1.3795,-1.4394,-1.495,-1.5357,-1.5526,-1.5805,-1.59,-1.5729,-1.6307,-1.7066,-1.8016,-1.8179,-1.845,-1.8979,-1.8898,-1.8979,-1.9237,-1.9128,-1.9223,-1.9522,-1.9522,-1.959,-1.9752,-1.9773,-1.963,-1.9468,-1.9345,-1.9278,-1.9237,-1.9156,-1.9074,-1.902,-1.8898,-1.8875,-1.8779,-1.8423,-1.8342,-1.8342,-1.8097,-1.7935,-1.7785,-1.7541,-1.7446,-1.7405,-1.7311,-1.7202,-1.7026,-1.6605,-1.6293,0.0,0.0,0.0,0.0,0.0,0.0,0.0,0.0,-1.9169,-1.9468,-1.9603,-1.9956,-2.0309,-2.058,-2.0648,-2.0811,-2.1231,-2.1285,-2.1367,-2.1665,-2.1665,-2.1543,-2.134,-2.1353,-2.1394,-2.1394,-2.1285,-2.1285,-2.1421,-2.1245,-2.1177,-2.1299,-2.119,-2.1123,-2.1082,-2.1055,-2.1041,-2.1041,-2.0865,-2.077,-2.077,-2.0648,-2.0512,-2.0363,-2.0404,-2.0241,-1.9956,-2.0078,-1.9983,-1.9759,-1.9576,-1.94,-1.9183,-1.9047,-1.8654,-1.8165,-1.8002,-1.784,-1.7595,0.0,-1.0954,-1.2043,-1.2417,-1.2764,-1.2955,-1.2996,-1.3336,-1.3754,-1.4258,-1.4611,-1.4931,-1.5398,-1.5466,-1.5683,-1.6198,-1.6781,-1.7392,-1.8057,-1.8464,-1.8776,-1.8979,-1.9101,-1.9237,-1.94,-1.934,-1.9522,-1.982,-1.982,-1.9902,-2.0051,-1.9902,-1.9827,-1.9644,-1.963,-1.9535,-1.9413,-1.9535,-1.9427,-1.9183,-1.9169,-1.8993,-1.8779,-1.8423,-1.8396,-1.8379,-1.7839,-1.7636,-1.7609,-1.7582,-1.7473,-1.7446,-1.75,-1.7527,-1.746,-1.7188,-1.6985,-1.6904,-1.7134,-1.7419,-1.7936,-1.8803,-1.8979,-1.9128,0.0,-2.0173,-2.0178,-2.0313,-2.0566,-2.0756,-2.0919,-2.1055,-2.1245,-2.157,-2.1516,-2.1516,-2.1815,-2.1638,-2.1516,-2.1597,-2.1394,-2.1231,-2.1231,-2.1231,-2.1285,-2.1421,-2.153,-2.1597,-2.1625,-2.1597,-2.153,-2.1394,-2.1258,-2.119,-2.119,-2.0919,-2.077,-2.077,-2.0756,-2.0661,-2.0462,-2.0661,-2.0566,-2.0282,-2.0295,-2.0132,-1.9861,-1.9834,-1.9576,-1.9183,-1.9047,-1.8776,-1.8464,-1.8314,-1.8097,-1.7868,0.0,-0.9294,-1.0519,-1.0674,-1.1963,-1.2996,-1.2996,-1.3336,-1.3687,-1.3957,-1.4322,-1.4679,-1.4869,-1.5126,-1.5452,-1.5886,-1.6619,-1.7324,-1.7921,-1.8521,-1.8898,-1.9237,-1.9223,-1.9359,-1.9685,-1.9603,-1.9657,-1.9875,-1.9875,-1.9942,-2.0105,-1.9942,-1.9942,-2.0037,-1.978,-1.9685,-1.9685,-1.9576,-1.9454,-1.9318,-1.9237,-1.9074,-1.8843,-1.8369,-1.8165,-1.8097,-1.7717,-1.7595,0.0,-1.7446,-1.7406,-1.7514,-1.7582,-1.7595,-1.7582,-1.7595,-1.7609,-1.7704,-1.8097,-1.8409,-1.8776,-1.9332,-1.9752,-2.0159,-2.0607,-2.0933,-2.1123,-2.119,-2.1245,-2.134,-2.1489,-2.157,-2.1665,-2.1896,-2.195,-2.1964,-2.2004,-2.1828,-2.1692,-2.1665,-2.1475,-2.1353,-2.1353,-2.1421,-2.1516,-2.157,-2.1706,-2.1801,-2.1801,-2.1801,-2.172,-2.1584,-2.1516,-2.1435,-2.1353,-2.1136,-2.0987,-2.0919,-2.0919,-2.077,-2.0539,-2.0702,-2.0648,-2.0368,-2.0173,-2.0051,-1.9997,-1.982,-1.959,-1.9318,-1.9169,-1.8938,-1.864,-1.8409,-1.8179,-1.7962,0.0,-0.7607,-0.8886,-0.8876,-1.0544,-1.209,-1.2662,-1.3159,-1.3553,-1.366,-1.4025,-1.4353,-1.4448,-1.4814,-1.5167,-1.5425,-1.6239,-1.6998,-1.7691,-1.8287,-1.883,-1.9291,-1.9278,-1.9413,-1.9752,-1.9698,-1.98,-1.9875,-1.9875,-1.9983,-2.0159,-2.001,-2.0051,-2.0254,-1.9888,-1.9814,-1.9807,-1.9535,-1.9353,-1.9359,-1.9196,-1.9006,-1.8749,-1.8179,-1.784,-1.7704,-1.7514,-1.7379,-1.7311,-1.7148,-1.7243,-1.7419,-1.746,-1.7527,-1.7649,-1.7962,-1.8301,-1.864,-1.8884,-1.9183,-1.9522,-1.982,-2.0363,-2.0878,-2.1068,-2.1475,-2.1774,-2.1692,-2.1747,-2.1801,-2.1815,-2.1923,-2.2045,-2.2167,-2.2276,-2.2303,-2.2181,-2.1977,-2.1801,-2.1692,-2.153,-2.1368,-2.1368,-2.1584,-2.1692,-2.172,-2.1869,-2.1991,-2.2059,-2.2018,-2.1964,-2.1869,-2.1815,-2.1706,-2.1516,-2.1353,-2.119,-2.1055,-2.1055,-2.0892,-2.0607,-2.0689,-2.0648,-2.0462,-2.0159,-2.0064,-2.0132,-1.9895,-1.963,-1.9468,-1.9278,-1.902,-1.8779,-1.8423,-1.8219,-1.8057,0.0,0.0,-0.7569,-0.7536,-0.8422,-0.9803,-1.1831,-1.2755,-1.3241,-1.339,-1.3632,-1.393,-1.4272,-1.4525,-1.4814,-1.4977,-1.5683,-1.6429,-1.7161,-1.7921,-1.8531,-1.8993,-1.9278,-1.9367,-1.9394,-1.959,-1.98,-1.9875,-1.9875,-2.0037,-2.0309,-2.0173,-2.0105,-2.0105,-1.9942,-1.9841,-1.9657,-1.9495,-1.9345,-1.9196,-1.9061,-1.8721,-1.8287,-1.7784,-1.7473,-1.7188,-1.7053,-1.6904,-1.673,-1.6716,-1.6863,-1.7026,-1.7161,-1.7405,-1.7703,-1.8342,-1.9128,-1.9766,-1.9481,-1.9725,-2.0132,-2.0431,-2.0756,-2.1068,-2.1353,-2.1774,-2.2018,-2.172,-2.1896,-2.2004,-2.172,-2.2045,-2.2316,-2.2274,-2.2274,-2.2274,-2.2274,-2.195,-2.1665,-2.1665,-2.153,-2.1368,-2.1368,-2.1584,-2.172,-2.1869,-2.2018,-2.2235,-2.259,-2.2398,-2.2316,-2.2247,-2.2181,-2.195,-2.1665,-2.1516,-2.1353,-2.1218,-2.1218,-2.1055,-2.0756,-2.0607,-2.0539,-2.0476,-2.0313,-2.0309,-2.0295,-1.9997,-1.978,-1.9691,-1.9332,-1.902,-1.8779,-1.8423,-1.8219,-1.807,0.0,0.0,0.0,-0.5789,-0.7082,-0.8406,-0.9367,-1.0878,-1.2165,-1.279,-1.3425,0.0,0.0,0.0,0.0,0.0,-1.571,-1.632,-1.6811,-1.7595,-1.8179,-1.8531,-1.8925,-1.9183,-1.9278,-1.9427,-1.9535,-1.9576,-1.9576,-1.963,-1.9725,-1.978,-1.9861,-1.9942,-1.9888,-1.9807,-1.9705,-1.9495,-1.9345,-1.9169,-1.883,-1.8542,-1.8352,-1.7811,-1.7405,-1.7026,0.0,-1.6646,-1.6551,-1.6252,-1.6456,-1.6849,-1.6998,-1.7256,-1.7663,-1.8758,-1.9345,-1.9657,-2.0002,-2.0282,-2.0431,-2.0648,-2.1068,-2.1475,-2.157,-2.1869,-2.2059,-2.1842,-2.1882,-2.1991,-2.2099,-2.214,-2.2249,-2.2452,-2.2479,-2.2411,-2.2221,-2.214,-2.2004,-2.1706,-2.1625,-2.1543,-2.1395,-2.1584,-2.1787,-2.1869,-2.2018,-2.2235,-2.2603,-2.2576,-2.2452,-2.2274,-2.2194,-2.1964,-2.1665,-2.1516,-2.1301,-2.1218,-2.1123,-2.1014,-2.0919,-2.077,-2.0634,-2.0476,-2.0376,-2.0282,-2.0159,-1.9956,-1.9657,-1.9345,-1.9237,-1.902,-1.8749,-1.8531,-1.8423,-1.8342,0.0,0.0,0.0,0.0,0.0,0.0,0.0,0.0,0.0,0.0,0.0,0.0,0.0,0.0,0.0,0.0,0.0,-1.5995,-1.65,-1.7093,-1.7595,-1.8057,-1.8355,-1.8586,-1.8721,-1.8816,-1.8925,-1.902,-1.902,-1.9115,-1.9278,-1.9373,-1.9528,-1.9549,-1.9549,-1.9481,-1.9392,-1.9115,-1.8966,-1.8843,-1.8396,-1.8138,-1.8002,-1.746,-1.708,0.0,-1.6388,-1.6347,-1.6388,-1.6049,-1.6334,-1.6863,-1.7012,-1.7595,-1.8369,-1.9128,-1.9657,-2.0078,-2.0512,-2.0702,-2.076,-2.096,-2.1394,-2.172,-2.1611,-2.1815,-2.1937,-2.1638,-2.1652,-2.176,-2.1842,-2.1774,-2.1896,-2.2535,-2.252,-2.2452,-2.2357,-2.2425,-2.2303,-2.1815,-2.1747,-2.1706,-2.1597,-2.1638,-2.1787,-2.1869,-2.2018,-2.2276,-2.2628,-2.2658,-2.2547,-2.2518,-2.2371,-2.2154,-2.1923,-2.176,-2.1584,-2.1367,-2.1231,-2.1123,-2.1068,-2.0865,-2.0716,-2.0607,-2.0417,-2.0282,-2.0173,-1.9956,-1.9685,-1.9359,-1.9237,-1.902,-1.8807,-1.8586,-1.8464,-1.8342,0.0,0.0,0.0,0.0,0.0,0.0,0.0,0.0,0.0,0.0,0.0,0.0,0.0,0.0,0.0,0.0,0.0,0.0,-1.6212,-1.6415,-1.677,-1.75,-1.7554,-1.769,-1.7881,-1.7895,-1.7989,-1.826,-1.8287,-1.8518,-1.8925,-1.8938,-1.8938,-1.8938,-1.8938,-1.8871,-1.8752,-1.8409,-1.8287,-1.8233,-1.773,-1.7446,-1.7148,-1.6811,-1.6513,-1.6266,-1.603,-1.6062,-1.6293,-1.6144,-1.6524,-1.7066,-1.7216,-1.8355,-1.959,-1.9332,-2.0078,-2.0946,-2.0838,-2.1014,-2.1258,-2.1421,-2.1665,-2.1787,-2.1489,-2.1638,-2.1665,-2.1109,-2.1218,-2.1313,-2.1055,-2.1014,-2.1353,-2.2426,-2.2411,-2.2425,-2.271,-2.2764,-2.2547,-2.1977,-2.1896,-2.1882,-2.1882,-2.176,-2.1747,-2.1882,-2.2018,-2.2303,-2.2764,-2.2712,-2.2696,-2.2995,-2.2767,-2.2466,-2.2247,-2.2167,-2.1937,-2.1652,-2.1516,-2.1353,-2.119,-2.0933,-2.0783,-2.0756,-2.0471,-2.0349,-2.0246,-2.001,-1.9807,-1.9691,-1.9332,-1.902,-1.8762,-1.8599,-1.8355,-1.8111,0.0,0.0,0.0,0.0,0.0,0.0,0.0,0.0,0.0,0.0,0.0,0.0,0.0,0.0,0.0,0.0,0.0,0.0,-1.5615,-1.5981,-1.6334,-1.6632,-1.6971,-1.7216,-1.7365,-1.7582,-1.769,-1.765,-1.788,-1.7989,-1.7947,-1.8219,-1.8314,-1.8314,-1.8314,-1.8233,-1.8126,-1.7894,-1.7703,-1.7623,-1.7283,-1.7107,-1.7012,-1.677,-1.6513,-1.6293,-1.6225,-1.6239,-1.632,-1.6388,-1.7039,-1.784,-1.8111,-1.8708,-1.9413,-1.9902,-2.0336,-2.077,-2.1299,-2.1489,-2.1584,-2.1747,-2.1747,-2.1652,-2.134,-2.1163,-2.1106,-2.1001,-2.096,-2.0987,-2.1123,-2.1245,-2.1489,-2.1977,-2.2113,-2.2235,-2.2425,-2.2547,-2.2535,-2.2099,-2.2059,-2.2004,-2.1896,-2.195,-2.2004,-2.2059,-2.1991,-2.2235,-2.2927,-2.2767,-2.2712,-2.2832,-2.2547,-2.2276,-2.2004,-2.1747,-2.1517,-2.1489,-2.1395,-2.1353,-2.1218,-2.1136,-2.0987,-2.077,-2.0689,-2.0539,-2.0309,-2.0119,-1.9888,-1.9691,-1.9332,-1.9101,-1.8925,-1.8762,-1.8586,-1.8409,0.0,0.0,0.0,0.0,0.0,0.0,0.0,0.0,0.0,0.0,0.0,0.0,0.0,0.0,0.0,0.0,0.0,0.0,0.0,-1.5615,-1.5886,-1.6103,-1.6398,-1.6592,-1.6795,-1.6904,-1.6985,-1.7026,-1.7188,-1.7297,-1.7365,-1.7528,-1.7609,-1.7609,-1.7609,-1.7555,-1.746,-1.727,-1.7149,0.0,0.0,-1.6686,-1.6673,-1.651,-1.6347,-1.6212,-1.6212,-1.6415,-1.6741,-1.7012,-1.7636,-1.8355,-1.8708,-1.9278,-1.9888,-2.0376,-2.077,-2.1163,-2.1706,-2.1869,-2.1882,-2.1964,-2.1828,-2.157,-2.1123,-2.0838,-2.0648,-2.0526,-2.0485,-2.0526,-2.0702,-2.0729,-2.0987,-2.1665,-2.1869,-2.2059,-2.2479,-2.271,-2.2723,-2.2452,-2.2411,-2.2371,-2.2289,-2.2235,-2.2289,-2.2493,-2.2235,-2.2289,-2.2778,-2.2712,-2.2698,-2.2778,-2.2547,-2.2289,-2.1991,-2.1815,-2.1665,-2.1543,-2.1543,-2.1462,-2.1299,-2.1177,-2.1041,-2.0865,0.0,-2.0539,-2.0309,-2.0173,-1.9929,-1.9691,-1.9332,-1.9115,-1.8952,-1.8749,-1.8599,-1.8491,0.0,0.0,0.0,0.0,0.0,0.0,0.0,0.0,0.0,0.0,0.0,-1.1674,-1.3419,-1.3856,0.0,0.0,0.0,0.0,0.0,0.0,-1.5506,-1.5826,-1.584,-1.5927,-1.6212,-1.6103,-1.6171,-1.6402,-1.6442,-1.6592,-1.6836,-1.6849,-1.6876,-1.689,-1.6876,-1.6876,-1.6876,-1.6675,-1.6608,-1.6581,-1.6388,-1.6279,-1.6266,0.0,-1.6076,-1.609,-1.613,-1.6564,-1.7216,-1.7772,-1.8219,-1.8694,-1.9128,-1.9847,-2.058,-2.077,-2.1245,-2.1774,-2.2072,-2.2167,-2.2167,-2.214,-2.1882,-2.1489,-2.0919,-2.0594,-2.0336,-1.9983,-1.9956,-2.0024,-2.0064,-1.9997,-2.0295,-2.1367,-2.1584,-2.1869,-2.2628,-2.294,-2.3022,-2.2805,-2.2778,-2.2778,-2.2778,-2.2547,-2.2547,-2.2954,-2.2628,-2.2466,-2.2601,-2.2644,-2.2601,-2.271,-2.2574,-2.2357,-2.2072,-2.2059,-2.1923,-2.1638,-2.1638,-2.157,-2.1368,-2.1177,-2.1041,-2.0987,-2.0716,-2.0512,-2.0286,-2.0173,-1.9942,-1.9745,-1.9345,-1.9128,-1.8979,-1.8667,-1.8531,-1.8464,0.0,0.0,0.0,0.0,0.0,0.0,0.0,0.0,0.0,0.0,-0.7882,-0.9325,0.0,0.0,0.0,0.0,0.0,0.0,0.0,0.0,0.0,-1.5479,-1.5493,-1.5574,-1.5702,-1.5845,-1.5859,-1.5742,-1.6035,-1.6117,-1.6098,-1.6185,-1.6307,-1.6415,-1.6293,-1.6307,-1.6415,-1.6266,-1.6198,-1.6198,-1.6144,-1.6117,-1.6117,-1.609,-1.6076,0.0,-1.6361,-1.6554,-1.6905,-1.7772,-1.8518,-1.9156,-1.9481,-2.0024,-2.0607,-2.1014,-2.1475,-2.1937,-2.2426,-2.2479,-2.2452,-2.2316,-2.1882,-2.1353,-2.0878,-2.0282,-1.9861,-2.0037,-1.978,-1.963,-1.9875,-2.0105,-2.0404,-2.0865,-2.1123,-2.1543,-2.2303,-2.2466,-2.2574,-2.2764,-2.2778,-2.2778,-2.2778,-2.2723,-2.2723,-2.2818,-2.2751,-2.2764,-2.2927,-2.2696,-2.252,-2.2411,-2.2276,-2.2099,-2.1923,-2.1815,-2.1652,-2.1475,-2.1475,-2.1462,-2.1368,-2.1328,-2.1231,-2.1001,-2.0946,0.0,-2.0422,-2.02,-2.0064,-1.9983,-1.9413,-1.9183,-1.9128,-1.883,-1.8572,-1.8355,0.0,0.0,0.0,0.0,0.0,0.0,0.0,-0.3247,-0.4012,-0.5488,-0.6161,-0.7622,-1.0755,-1.1119,-1.1878,0.0,0.0,0.0,0.0,0.0,0.0,-1.5398,-1.5411,-1.5479,-1.5593,-1.571,-1.575,-1.575,0.0,-1.5845,-1.5908,-1.5845,-1.5886,-1.5954,-1.5967,-1.6058,-1.6076,-1.6076,-1.6076,-1.6076,-1.6076,-1.6076,-1.6076,-1.6076,-1.613,0.0,-1.6537,-1.6689,-1.6958,-1.7541,-1.8192,-1.8871,-1.9549,-2.0173,-2.0756,-2.119,-2.1652,-2.2099,-2.2547,-2.2671,-2.252,-2.2371,-2.1761,-2.1218,-2.0756,-2.0132,-1.9759,-1.9895,-1.9576,-1.94,-1.9712,-1.9888,-2.0132,-2.058,-2.077,-2.1218,-2.2126,-2.2276,-2.2411,-2.294,-2.3008,-2.3008,-2.3008,-2.294,-2.294,-2.3008,-2.294,-2.2873,-2.2778,-2.2574,-2.2411,-2.2274,-2.2276,-2.2113,-2.1882,-2.1815,-2.1665,-2.1368,-2.1368,-2.1368,-2.1368,-2.1353,-2.1245,-2.1109,-2.0946,0.0,-2.0634,-2.0349,-2.0173,-2.0064,-1.9603,-1.9345,-1.9169,-1.8929,-1.8626,-1.8366,0.0,0.0,0.0,0.0,0.0,0.0,0.0,-0.2937,-0.3581,-0.4503,-0.497,-0.6313,-0.9007,-0.9609,-1.0501,0.0,0.0,0.0,0.0,0.0,0.0,0.0,-1.5357,-1.5438,-1.5539,0.0,0.0,-1.5854,-1.5696,0.0,0.0,0.0,0.0,0.0,-1.5778,-1.5894,-1.5962,-1.5995,-1.6049,0.0,0.0,-1.6103,-1.613,0.0,0.0,0.0,0.0,-1.6863,-1.6985,-1.7378,-1.7812,-1.8355,-1.9332,-2.0132,-2.0811,-2.1231,-2.1747,-2.2235,-2.2588,-2.2628,-2.252,-2.2344,-2.1747,-2.1082,-2.0543,-2.0037,-1.9664,-1.9664,-1.9359,-1.925,-1.9549,-1.959,-1.9752,-2.0349,-2.0449,-2.0881,-2.2072,-2.2221,-2.2452,-2.3103,-2.3198,-2.3225,-2.3225,-2.3117,-2.3103,-2.3225,-2.3063,-2.2859,-2.2628,-2.2425,-2.2274,-2.2274,-2.2303,-2.2167,-2.1882,-2.1842,-2.1706,-2.1368,-2.1368,-2.1368,-2.1368,-2.1285,-2.119,-2.1163,-2.0892,0.0,0.0,-2.0431,-2.0241,-2.0064,-1.978,-1.9528,-1.9169,-1.8898,-1.8694,-1.8461,0.0,0.0,0.0,0.0,0.0,0.0,0.0,-0.2322,-0.2925,-0.4421,-0.4734,-0.529,-0.6495,-0.7831,-0.9243,0.0,0.0,0.0,0.0,0.0,0.0,0.0,0.0,0.0,0.0,0.0,0.0,-1.5607,-1.5593,0.0,0.0,0.0,0.0,0.0,0.0,-1.5805,-1.6049,-1.5976,0.0,0.0,0.0,0.0,0.0,0.0,0.0,0.0,0.0,-1.6876,-1.6824,-1.7582,-1.7772,-1.7784,-1.8626,-1.9644,-2.057,-2.0946,-2.1652,-2.2316,-2.2302,-2.2466,-2.2549,-2.2194,-2.1665,-2.1055,-2.0422,-1.9888,-1.9454,-1.9454,-1.9223,-1.9101,-1.94,-1.9345,-1.9454,-2.0051,-2.0363,-2.0865,-2.1787,-2.2276,-2.2642,-2.2995,-2.3158,-2.3225,-2.3225,-2.3198,-2.3198,-2.3225,-2.2954,-2.2778,-2.2764,-2.2493,-2.2274,-2.2274,-2.2194,-2.2059,-2.1882,-2.176,-2.1597,-2.1368,-2.1368,-2.1368,-2.1368,-2.1285,-2.1136,-2.1014,-2.0838,0.0,0.0,-2.034,-2.0241,-2.0064,-1.978,-1.9528,-1.9183,-1.902,-1.8776,-1.8474,0.0,0.0,0.0,0.0,0.0,0.0,-0.2037,-0.2188,-0.2812,-0.4448,-0.4739,-0.5174,-0.6185,-0.6877,-0.783,-0.9253,0.0,0.0,0.0,0.0,0.0,0.0,0.0,0.0,0.0,0.0,-1.5669,-1.59,-1.5818,0.0,0.0,0.0,0.0,0.0,0.0,-1.5832,-1.599,-1.603,0.0,0.0,0.0,0.0,0.0,0.0,0.0,0.0,0.0,0.0,-1.6944,-1.7324,-1.7419,-1.7446,-1.7826,-1.8654,-1.963,-2.0376,-2.1109,-2.1747,-2.2113,-2.2303,-2.2371,-2.2167,-2.1652,-2.1055,-2.0471,-1.9942,-1.9535,-1.9454,-1.9196,-1.9074,-1.9373,-1.9237,-1.9305,-1.9997,-1.9983,-2.0282,-2.1462,-2.153,-2.176,-2.252,-2.2656,-2.2805,-2.3063,-2.3103,-2.3103,-2.3103,-2.29,-2.2751,-2.2712,-2.2452,-2.2274,-2.2274,-2.222,-2.2127,-2.1882,-2.1828,-2.1665,-2.1368,-2.1368,-2.1368,-2.1368,-2.1285,-2.1177,-2.1109,-2.0878,0.0,0.0,-2.0462,-2.0363,-2.0227,-2.001,-1.9752,-1.9454,-1.9196,-1.8925,-1.8667,0.0,0.0,0.0,0.0,0.0,-0.1163,-0.2043,-0.2308,-0.2963,-0.4464,-0.4842,-0.5333,-0.618,-0.6382,-0.6806,-0.7912,-0.8304,0.0,0.0,0.0,0.0,0.0,0.0,0.0,0.0,0.0,-1.5913,-1.6212,-1.6144,-1.6171,0.0,0.0,-1.5967,-1.5783,0.0,0.0,0.0,0.0,0.0,0.0,0.0,0.0,0.0,0.0,0.0,0.0,0.0,0.0,0.0,0.0,0.0,-1.7216,-1.7324,-1.7826,-1.8586,-1.9671,-2.0512,-2.119,-2.1706,-2.1991,-2.2113,-2.195,-2.1489,-2.0933,-2.0336,-1.9888,-1.9535,-1.9345,-1.9128,-1.9061,-1.925,-1.9128,-1.9183,-1.9807,-1.978,-2.0078,-2.1218,-2.1218,-2.1408,-2.2235,-2.2274,-2.2479,-2.2832,-2.2954,-2.2995,-2.294,-2.2832,-2.2696,-2.2506,-2.2398,-2.2274,-2.2274,-2.2249,-2.2099,-2.1882,-2.1787,-2.1652,-2.1368,-2.1368,-2.1368,-2.1368,-2.1245,-2.1136,-2.1136,-2.0838,0.0,0.0,-2.053,-2.0368,-2.0254,-2.0132,-1.9875,-1.9508,-1.9291,-1.9006,-1.882,0.0,0.0,0.0,0.0,0.0,0.0,-0.2004,-0.255,-0.3299,-0.434,-0.5038,-0.5631,-0.6224,-0.6382,-0.6442,-0.6503,-0.7777,0.0,0.0,0.0,0.0,0.0,0.0,0.0,0.0,0.0,-1.6225,-1.651,-1.6621,-1.6689,-1.6689,-1.654,-1.6442,-1.6293,0.0,0.0,0.0,0.0,0.0,0.0,0.0,0.0,0.0,0.0,0.0,0.0,0.0,0.0,0.0,0.0,0.0,0.0,0.0,-1.7311,-1.7663,-1.8871,-1.9956,-2.0838,-2.1136,-2.1448,-2.1638,-2.1489,-2.1109,-2.0671,-2.001,-1.9644,-1.9345,-1.9061,-1.8993,-1.8993,-1.8993,-1.8993,-1.9101,-1.934,-1.9881,-2.0526,-2.1123,-2.1597,-2.1991,-2.2303,-2.2274,-2.2398,-2.2603,-2.2832,-2.294,-2.2805,-2.2778,-2.2656,-2.2288,-2.2274,-2.2274,-2.2274,-2.2045,-2.1882,-2.1882,-2.1597,-2.1368,-2.1368,-2.1368,-2.1368,-2.1421,-2.1136,-2.1001,-2.0987,0.0,0.0,0.0,-2.0476,-2.0363,-2.0105,-2.0105,-1.9725,-1.9196,-1.9196,-1.9006,-1.882,0.0,0.0,0.0,0.0,0.0,0.0,0.0,-0.2258,-0.2833,-0.4248,-0.4702,-0.5199,-0.611,-0.6311,-0.6442,-0.6508,-0.6885,0.0,0.0,0.0,0.0,0.0,0.0,0.0,0.0,-1.6046,-1.6272,-1.6836,-1.708,-1.7107,-1.6904,-1.6958,-1.6795,-1.6442,-1.6252,-1.6198,0.0,0.0,0.0,0.0,0.0,0.0,-1.6716,0.0,0.0,0.0,0.0,0.0,0.0,0.0,0.0,0.0,0.0,0.0,0.0,-1.7947,-1.8816,-1.9644,-2.0051,-2.0363,-2.0594,-2.0539,-2.0417,-2.0187,-1.9671,-1.9576,-1.9468,-1.9074,-1.8993,-1.8993,-1.8993,-1.8993,-1.9183,-1.978,-2.0051,-2.0417,-2.1109,-2.1245,-2.1421,-2.1828,-2.2344,-2.2656,-2.271,-2.2886,-2.29,-2.2712,-2.2698,-2.2534,-2.2288,-2.2274,-2.2289,-2.2181,-2.2099,-2.1937,-2.1747,-2.1652,-2.1543,-2.1368,-2.1368,-2.1328,-2.1285,-2.1082,-2.0946,0.0,0.0,0.0,0.0,-2.0476,-2.0368,-2.0241,-2.0132,-1.9861,-1.9481,-1.9278,-1.9074,-1.8898,0.0,0.0,0.0,0.0,0.0,0.0,0.0,-0.2498,-0.2981,-0.3984,-0.4499,-0.5096,-0.5863,-0.6191,-0.6382,-0.6485,-0.6458,0.0,0.0,0.0,0.0,0.0,0.0,0.0,-1.6256,-1.6079,-1.6354,-1.7148,-1.7446,-1.7487,-1.7311,-1.7351,-1.7121,-1.6686,-1.6537,-1.6415,0.0,0.0,0.0,0.0,0.0,0.0,-1.6716,0.0,0.0,0.0,0.0,0.0,0.0,0.0,0.0,0.0,0.0,0.0,0.0,0.0,-1.7948,-1.864,-1.9305,-1.9712,-1.9942,-1.9942,-1.9942,-1.9834,-1.9427,-1.9413,-1.9373,-1.8993,-1.8952,-1.8979,-1.8925,-1.9047,-1.9291,-1.9698,-1.9956,-2.0295,-2.0878,-2.0987,-2.119,-2.1692,-2.2221,-2.2574,-2.2683,-2.2778,-2.2764,-2.2644,-2.2617,-2.2466,-2.2276,-2.2249,-2.2167,-2.195,-2.2004,-2.1937,-2.176,-2.1638,-2.153,-2.1368,-2.1368,-2.1353,-2.1218,-2.1068,-2.0919,0.0,0.0,0.0,0.0,-2.0476,-2.0417,-2.0241,-2.0132,-1.9888,-1.9549,-1.9359,-1.9169,-1.8979,0.0,0.0,0.0,0.0,0.0,0.0,0.0,-0.3132,-0.3507,-0.3575,-0.4474,-0.5214,-0.5466,-0.5935,-0.6305,-0.6483,0.0,0.0,0.0,0.0,0.0,0.0,0.0,0.0,-1.626,-1.6171,-1.6524,-1.7446,-1.7758,-1.7949,-1.7936,-1.7758,-1.7446,-1.7012,-1.6797,-1.6554,0.0,0.0,0.0,0.0,-1.6863,-1.689,0.0,0.0,0.0,0.0,0.0,0.0,0.0,0.0,0.0,0.0,0.0,0.0,0.0,0.0,0.0,0.0,0.0,-1.9305,-1.9549,-1.9596,-1.9609,-1.9508,-1.9223,-1.9169,0.0,-1.8875,-1.8929,-1.8938,-1.8875,-1.9128,-1.9373,-1.9291,-1.9766,-2.0241,-2.0526,-2.0838,-2.1272,-2.1869,-2.2059,-2.2276,-2.2617,-2.2644,-2.2617,-2.2603,-2.2534,-2.2467,-2.2127,-2.2099,-2.1964,-2.1692,-2.1815,-2.1869,-2.1842,-2.1584,-2.1368,-2.1368,-2.1421,-2.1353,-2.119,-2.1055,-2.0892,0.0,0.0,0.0,0.0,-2.0476,-2.0363,-2.0105,-2.0105,-1.982,-1.9367,-1.9367,-1.9237,-1.8993,0.0,0.0,0.0,0.0,0.0,0.0,0.0,0.0,0.0,0.0,-0.3818,-0.4404,-0.5321,-0.5568,-0.5903,0.0,0.0,0.0,0.0,0.0,0.0,0.0,0.0,0.0,-1.6132,-1.6081,-1.6589,-1.7758,-1.8179,-1.826,-1.8043,-1.8124,-1.7867,-1.7311,-1.7161,-1.6863,0.0,0.0,0.0,0.0,-1.6904,-1.6958,0.0,0.0,0.0,0.0,-1.7066,-1.7066,0.0,0.0,0.0,0.0,0.0,0.0,0.0,0.0,-1.7405,-1.7636,-1.7757,0.0,-1.8423,-1.8385,-1.8545,-1.8776,0.0,-1.8871,-1.8993,-1.8861,-1.8861,-1.8929,-1.9061,-1.9101,-1.9305,-1.9956,-2.0282,-2.0539,-2.0838,-2.1245,-2.1747,-2.2399,-2.2534,-2.2696,-2.2886,-2.2805,-2.2642,-2.2411,-2.2289,-2.2181,-2.2113,-2.2004,-2.1896,-2.1828,-2.176,-2.1665,-2.1543,-2.1409,-2.1368,-2.1368,-2.1313,-2.119,-2.1055,-2.0892,-2.0743,0.0,0.0,0.0,-2.0476,-2.0476,-2.0363,-2.0105,-2.0105,-1.982,-1.9367,-1.9367,-1.9237,-1.8993,0.0,0.0,0.0,0.0,0.0,0.0,0.0,0.0,0.0,0.0,0.0,0.0,0.0,0.0,0.0,0.0,0.0,0.0,0.0,0.0,0.0,0.0,0.0,-1.4383,-1.6168,-1.6104,-1.6709,-1.7962,-1.8342,-1.845,-1.8287,-1.8258,-1.8043,-1.746,-1.7148,-1.689,0.0,0.0,0.0,0.0,-1.6944,0.0,0.0,0.0,0.0,0.0,-1.7053,-1.7039,0.0,-1.7216,-1.7243,-1.7188,0.0,0.0,0.0,0.0,-1.7311,-1.746,-1.7351,-1.7785,-1.8274,-1.8192,-1.8464,-1.8749,-1.8749,-1.8708,-1.8654,-1.8586,-1.8667,-1.8803,-1.8884,-1.9115,-1.9514,-1.9942,-2.02,-2.0539,-2.1123,-2.1652,-2.2127,-2.2576,-2.2696,-2.2778,-2.2805,-2.2601,-2.2425,-2.2344,-2.2194,-2.2072,-2.2004,-2.1937,-2.1815,-2.1692,-2.1597,-2.157,-2.1543,-2.1475,-2.1368,-2.1368,-2.1285,-2.1136,-2.1001,-2.0838,-2.0689,0.0,0.0,0.0,-2.0476,-2.0476,-2.0404,-2.02,-2.0132,-1.9902,-1.963,-1.9549,-1.94,-1.9183,0.0,0.0,0.0,0.0,0.0,0.0,0.0,0.0,0.0,0.0,0.0,0.0,0.0,0.0,0.0,0.0,0.0,0.0,0.0,0.0,0.0,0.0,-1.1911,-1.354,-1.6162,-1.6149,-1.6768,-1.8124,-1.8423,-1.8572,-1.8572,-1.8464,-1.8109,-1.7595,-1.7054,-1.6904,-1.6971,0.0,0.0,-1.7012,-1.7012,0.0,0.0,0.0,0.0,0.0,0.0,0.0,0.0,-1.7365,-1.7473,-1.7378,-1.7338,0.0,0.0,0.0,0.0,0.0,-1.7311,-1.7894,-1.8518,-1.8437,-1.8708,-1.8979,-1.8938,-1.864,-1.8339,-1.8252,-1.8484,-1.8619,-1.848,-1.8959,-1.9488,-1.9712,-2.001,-2.0526,-2.1274,-2.1896,-2.2303,-2.2506,-2.2656,-2.271,-2.2601,-2.2344,-2.2221,-2.2274,-2.2194,-2.2059,-2.1923,-2.1882,-2.1747,-2.1475,-2.1395,-2.1489,-2.1597,-2.1475,-2.1355,-2.1368,-2.1245,-2.1082,-2.1001,-2.0824,-2.0661,-2.0476,0.0,0.0,-2.0476,-2.0476,-2.0395,-2.0309,-2.0187,-2.0051,-1.9888,-1.9752,-1.959,-1.9468,0.0,0.0,0.0,0.0,0.0,0.0,0.0,0.0,0.0,0.0,0.0,0.0,0.0,0.0,0.0,0.0,0.0,0.0,0.0,0.0,0.0,-1.2006,-1.319,-1.4446,-1.5763,-1.5948,-1.6773,-1.8287,-1.8586,-1.8721,-1.8779,-1.883,-1.8518,-1.7868,-1.7473,-1.7188,-1.6985,-1.708,-1.7134,-1.7161,-1.7161,0.0,0.0,0.0,0.0,0.0,0.0,0.0,0.0,-1.7066,-1.7148,-1.7188,-1.6878,0.0,0.0,0.0,0.0,0.0,-1.7691,-1.8138,-1.8437,-1.8057,-1.8477,-1.8925,-1.8654,-1.8654,-1.8606,-1.8144,-1.7988,-1.8014,-1.8222,-1.8091,-1.8394,-1.9811,-2.0512,-2.1001,-2.1328,-2.1638,-2.1923,-2.2316,-2.2493,-2.2698,-2.2723,-2.2588,-2.2452,-2.2344,-2.2194,-2.2099,-2.2072,-2.1842,-2.1692,-2.1638,-2.1516,-2.1394,-2.1285,-2.1258,-2.1313,-2.1368,-2.1041,-2.0892,-2.0987,-2.0702,-2.0553,-2.0476,0.0,-2.0476,-2.0476,-2.0476,-2.0395,-2.0336,-2.0246,-2.02,-2.0051,-1.9888,-1.9752,-1.959,0.0,0.0,0.0,0.0,0.0,0.0,0.0,0.0,0.0,0.0,0.0,0.0,0.0,0.0,0.0,0.0,0.0,0.0,0.0,-1.1739,-1.2291,-1.1846,-1.2326,-1.3176,-1.432,-1.4994,-1.591,-1.7109,-1.839,-1.9047,-1.9115,-1.8776,-1.8314,-1.7745,-1.7433,-1.7069,-1.6631,-1.7055,-1.7123,-1.6988,0.0,0.0,0.0,0.0,0.0,0.0,0.0,0.0,0.0,0.0,-1.7096,-1.6961,-1.7069,0.0,0.0,0.0,0.0,0.0,-1.7555,-1.8124,-1.8586,-1.8301,-1.8721,-1.9183,-1.9047,-1.8816,-1.8507,-1.8014,-1.7878,-1.7975,-1.8045,-1.8202,-1.8718,-2.008,-2.0906,-2.1448,-2.1652,-2.195,-2.2221,-2.2425,-2.2588,-2.2642,-2.2547,-2.2411,-2.2316,-2.2274,-2.2194,-2.2113,-2.2113,-2.1896,-2.1747,-2.1665,-2.1435,-2.1285,-2.1218,-2.1055,-2.1055,-2.119,-2.0919,-2.0811,-2.0878,-2.0648,-2.0476,-2.0476,0.0,-2.0476,-2.0476,-2.0476,-2.0449,-2.0368,-2.03,-2.0232,-2.0187,-1.9956,-1.9841,-1.9705,0.0,0.0,0.0,0.0,0.0,0.0,0.0,0.0,0.0,0.0,0.0,0.0,0.0,0.0,0.0,0.0,0.0,0.0,0.0,-1.1924,-1.1851,-1.0829,-1.051,-1.1043,-1.2571,-1.3481,-1.4689,-1.6157,-1.7813,-1.8827,-1.9413,-1.8776,-1.808,-1.7471,-1.7244,-1.6762,-1.6137,-1.6842,-1.7001,-1.6804,0.0,0.0,0.0,0.0,0.0,0.0,0.0,0.0,0.0,0.0,0.0,0.0,0.0,0.0,0.0,-1.7029,-1.7216,-1.7446,-1.7555,-1.807,-1.8599,-1.864,-1.8916,-1.926,-1.9421,-1.897,-1.8396,-1.8137,-1.8155,-1.8135,-1.7944,-1.8536,-1.9325,-2.0291,-2.1127,-2.1692,-2.1774,-2.2127,-2.2481,-2.2452,-2.2547,-2.2534,-2.2303,-2.2181,-2.2167,-2.2276,-2.2221,-2.214,-2.2113,-2.1964,-2.1801,-2.1625,-2.1353,-2.1177,-2.1109,-2.0878,-2.0838,-2.1001,-2.0838,-2.0783,-2.0824,-2.0702,-2.0634,-2.0594,-2.0594,-2.0594,-2.0594,-2.0594,-2.0594,-2.058,-2.0471,-2.0363,-2.0241,-2.001,-1.982,-1.9718,0.0,0.0,0.0,0.0,0.0,0.0,0.0,0.0,0.0,0.0,0.0,0.0,0.0,0.0,0.0,0.0,0.0,0.0,0.0,-1.0041,-0.9931,-0.8744,-0.7858,-0.8491,-1.073,-1.1494,-1.3341,-1.6365,-1.6564,-1.7609,-1.9367,-1.9101,-1.8272,-1.7024,-1.7011,-1.6439,-1.5616,-1.6458,-1.6804,-1.6804,-1.7257,0.0,0.0,0.0,0.0,0.0,0.0,0.0,0.0,0.0,0.0,0.0,0.0,0.0,-1.6887,-1.711,-1.7297,-1.7514,-1.7935,-1.8097,-1.8274,-1.8816,-1.8767,-1.8745,-1.9482,-1.9072,-1.8577,-1.8929,-1.8813,-1.845,-1.7842,-1.8661,-1.9664,-2.0231,-2.109,-2.1625,-2.1489,-2.1747,-2.1991,-2.2127,-2.214,-2.214,-2.2127,-2.2113,-2.2113,-2.2127,-2.2249,-2.2193,-2.2113,-2.1964,-2.176,-2.1462,-2.1299,-2.1082,-2.0811,-2.0783,-2.0838,-2.1001,-2.0838,-2.0838,-2.0987,-2.096,-2.0892,-2.0756,-2.0756,-2.0756,-2.0756,-2.0756,-2.0756,-2.0756,-2.0807,-2.0485,-2.0119,-2.0105,-1.9902,-1.9718,0.0,0.0,0.0,0.0,0.0,0.0,0.0,0.0,0.0,0.0,0.0,0.0,0.0,0.0,0.0,0.0,0.0,0.0,-0.8685,-0.8619,-0.8159,-0.7131,-0.6719,-0.6648,-0.6883,-0.904,-1.1553,-1.4381,-1.733,-1.898,-1.9367,-1.8701,-1.7895,-1.6982,-1.6627,-1.5998,-1.5147,-1.5923,-1.6046,-1.5833,-1.6212,-1.634,0.0,0.0,0.0,0.0,0.0,0.0,0.0,0.0,-1.6523,-1.6531,-1.6656,-1.6824,-1.6963,-1.7257,-1.7446,-1.7541,-1.7717,-1.8165,-1.8488,-1.8218,-1.8203,-1.8544,-1.9548,-1.9197,-1.8665,-1.8912,-1.9026,-1.906,-1.8988,-1.9713,-2.0411,-2.0717,-2.1249,-2.1692,-2.1706,-2.1896,-2.2072,-2.2235,-2.2249,-2.2221,-2.2127,-2.2194,-2.2249,-2.2249,-2.2303,-2.2276,-2.2113,-2.1882,-2.1652,-2.1435,-2.1109,-2.0878,-2.077,-2.0689,-2.0702,-2.0865,-2.0811,-2.0811,-2.0865,-2.096,-2.096,-2.0919,-2.0919,-2.0919,-2.0919,-2.0919,-2.0865,-2.0821,-2.0661,-2.0471,-2.0227,-2.0132,-1.9983,-1.978,0.0,0.0,0.0,0.0,0.0,0.0,0.0,0.0,0.0,0.0,0.0,0.0,0.0,0.0,0.0,0.0,0.0,0.0,-0.7602,-0.7075,-0.6339,-0.5384,-0.5359,-0.4987,-0.4296,-0.6629,-0.9617,-1.3171,-1.7854,-1.9765,-1.9046,-1.8372,-1.7498,-1.6503,-1.613,-1.5454,-1.4681,-1.5352,-1.5502,-1.524,-1.5633,-1.5729,0.0,0.0,0.0,0.0,0.0,0.0,0.0,0.0,-1.6083,-1.6004,-1.6169,-1.6439,-1.6765,-1.7133,-1.7432,-1.7649,-1.7541,-1.7889,-1.8258,-1.7958,-1.7876,-1.8262,-1.9727,-1.9329,-1.8836,-1.9481,-1.951,-1.9573,-2.0076,-2.04,-2.0647,-2.1044,-2.1448,-2.1747,-2.1937,-2.2099,-2.2235,-2.2398,-2.2302,-2.222,-2.2127,-2.2167,-2.2221,-2.2193,-2.2276,-2.2221,-2.2113,-2.1828,-2.1584,-2.1367,-2.0987,-2.0756,-2.0702,-2.0648,-2.0648,-2.0702,-2.0783,-2.0838,-2.0838,-2.1055,-2.1082,-2.1001,-2.1055,-2.1068,-2.1068,-2.1014,-2.0919,-2.0756,-2.0594,-2.0395,-2.0309,-2.02,-2.0051,-1.9922,0.0,0.0,0.0,0.0,0.0,0.0,0.0,0.0,0.0,0.0,-0.3212,0.0,0.0,0.0,0.0,0.0,0.0,0.0,-0.5691,-0.522,-0.4547,-0.3562,-0.3512,-0.3558,-0.3591,-0.4392,-0.7488,-1.3061,-1.7965,-1.9621,-1.8318,-1.8318,-1.723,-1.5393,-1.5393,-1.4988,-1.432,-1.4919,-1.5197,-1.524,-1.5674,-1.5802,-1.568,0.0,0.0,0.0,0.0,0.0,0.0,0.0,-1.569,-1.4959,-1.5687,-1.5986,-1.617,-1.665,-1.7305,-1.7854,-1.75,-1.7305,-1.7421,-1.8279,-1.7878,-1.7875,-2.0021,-1.9535,-1.9074,-2.0848,-2.0402,-1.9999,-2.0844,-2.0481,-2.0312,-2.1248,-2.157,-2.1774,-2.2072,-2.2249,-2.2398,-2.2534,-2.2425,-2.222,-2.2127,-2.1977,-2.195,-2.2099,-2.2113,-2.2113,-2.2113,-2.1828,-2.153,-2.1218,-2.0933,-2.0702,-2.0476,-2.0702,-2.0702,-2.0539,-2.0865,-2.1001,-2.1001,-2.1299,-2.1285,-2.1014,-2.1163,-2.1218,-2.119,-2.1055,-2.0919,-2.0756,-2.0594,-2.0395,-2.0336,-2.0336,-2.0132,-1.9875,0.0,0.0,0.0,0.0,0.0,0.0,0.0,0.0,0.0,-0.3185,-0.3195,0.0,0.0,0.0,0.0,0.0,0.0,0.0,-0.4106,-0.3872,-0.3714,-0.3422,-0.3441,-0.3506,-0.3618,-0.7442,-1.0473,-1.2673,-1.7381,-1.9166,-1.8163,-1.7602,-1.664,-1.5404,-1.5123,-1.4662,-1.4124,-1.4321,-1.4409,-1.4442,-1.4549,-1.4525,-1.4491,0.0,0.0,0.0,0.0,0.0,0.0,0.0,0.0,0.0,-1.5163,-1.5845,-1.6735,-1.6814,-1.7385,-1.7948,-1.7609,-1.7808,-1.8108,-1.8005,-1.8327,-1.8897,-1.9711,-1.9599,-1.9651,-2.0927,-2.0706,-2.0454,-2.1181,-2.1209,-2.1276,-2.1368,-2.1747,-2.2004,-2.2099,-2.2249,-2.2288,-2.2398,-2.2357,-2.222,-2.2127,-2.2072,-2.2059,-2.2113,-2.2004,-2.1896,-2.1815,-2.1516,-2.1258,-2.1068,-2.077,-2.0648,-2.0702,-2.0648,-2.0702,-2.0865,-2.096,-2.0946,-2.0838,-2.1136,-2.1231,-2.1163,-2.1299,-2.1313,-2.119,-2.0946,-2.0875,-2.0756,-2.0594,-2.0462,-2.0408,-2.03,-2.0282,-2.0173,0.0,0.0,0.0,0.0,0.0,0.0,-0.3116,-0.3119,-0.3168,-0.3185,-0.3198,-0.3206,0.0,0.0,0.0,-0.3357,-0.4076,0.0,-0.3377,-0.3285,-0.3335,-0.3425,-0.343,-0.3495,-0.3575,-0.8007,-1.0634,-1.1302,-1.6129,-1.7821,-1.6389,-1.5771,-1.4975,-1.4071,-1.4181,-1.4233,-1.4178,-1.4254,-1.4189,-1.4059,-1.4037,-1.3982,-1.3939,0.0,0.0,0.0,0.0,0.0,0.0,0.0,0.0,0.0,-1.4508,-1.5222,-1.6144,-1.633,-1.6824,-1.735,-1.762,-1.7825,-1.802,-1.8458,-1.8971,-1.9597,-2.0114,-2.0231,-2.0426,-2.1084,-2.0957,-2.0957,-2.1463,-2.1597,-2.1665,-2.1706,-2.1937,-2.214,-2.2276,-2.2357,-2.2425,-2.2425,-2.2425,-2.2357,-2.2221,-2.214,-2.2127,-2.2194,-2.2004,-2.1869,-2.1842,-2.1489,-2.1258,-2.1177,-2.0824,-2.0689,-2.077,-2.0689,-2.0716,-2.0919,-2.0919,-2.0865,-2.0783,-2.1136,-2.1245,-2.1136,-2.1285,-2.1231,-2.1014,-2.0838,-2.0743,-2.0661,-2.058,-2.0476,-2.0462,-2.0395,-2.0286,-2.0227,0.0,0.0,-0.2912,-0.2996,0.0,-0.3143,-0.3209,-0.3204,-0.319,-0.3193,-0.3215,-0.322,0.0,0.0,0.0,-0.3236,-0.3288,-0.331,0.0,-0.3302,-0.3359,-0.3506,-0.3525,-0.3531,-0.3586,-0.68,-0.872,-0.923,-1.4288,-1.5692,-1.3709,-1.3314,-1.2712,-1.2054,-1.2866,-1.3701,-1.4472,-1.4461,-1.4254,-1.3993,-1.3993,-1.3928,-1.3787,-1.3787,0.0,0.0,0.0,0.0,0.0,0.0,0.0,0.0,-1.3787,-1.4239,-1.4935,-1.5518,-1.593,-1.6416,-1.759,-1.7599,-1.7669,-1.932,-1.971,-2.001,-2.1005,-2.1231,-2.1218,-2.1218,-2.1231,-2.134,-2.1625,-2.1706,-2.1815,-2.2072,-2.2127,-2.2235,-2.2506,-2.2534,-2.2534,-2.2534,-2.2534,-2.2479,-2.2288,-2.2194,-2.2167,-2.2289,-2.2018,-2.1923,-2.2045,-2.1652,-2.1355,-2.1355,-2.1014,-2.0811,-2.0875,-2.0811,-2.0811,-2.0875,-2.0811,-2.0783,-2.0783,-2.1218,-2.1258,-2.1014,-2.1136,-2.1041,-2.077,-2.0756,-2.0661,-2.0476,-2.0476,-2.0476,-2.0476,-2.0462,-2.0349,-2.0119,0.0,0.0,-0.2991,-0.3082,0.0,0.0,-0.3187,-0.3193,-0.3195,-0.3217,-0.3175,-0.3178,-0.3223,-0.3275,0.0,-0.3269,-0.3299,-0.3318,-0.3313,-0.3296,-0.3337,-0.3506,-0.3625,-0.3656,-0.3705,-0.6315,-0.7733,-0.7723,-1.147,-1.3015,-1.2555,-1.1867,-1.1717,-1.2054,-1.2707,-1.3414,-1.4156,-1.4113,-1.4037,-1.3819,-1.3819,-1.3809,-1.3787,-1.3787,-1.3711,0.0,0.0,0.0,0.0,0.0,0.0,0.0,-1.3754,-1.4293,-1.4966,-1.5409,-1.6129,-1.6982,-1.7687,-1.8158,-1.8686,-1.9597,-2.0381,-2.0927,-2.1274,-2.1299,-2.1218,-2.1218,-2.1408,-2.1597,-2.1719,-2.195,-2.2181,-2.2127,-2.2221,-2.2303,-2.2371,-2.2398,-2.2398,-2.2398,-2.2398,-2.2371,-2.2274,-2.2194,-2.2072,-2.1991,-2.1815,-2.1665,-2.1584,-2.1367,-2.1258,-2.1258,-2.1055,-2.1001,-2.1123,-2.1001,-2.1001,-2.1123,-2.1001,-2.0892,-2.0834,-2.1001,-2.1123,-2.1163,-2.1082,-2.0946,-2.0821,-2.0648,-2.0516,-2.0476,-2.0476,-2.0476,-2.0462,-2.0354,-2.0336,-2.0192,0.0,0.0,0.0,0.0,0.0,0.0,0.0,0.0,-0.3176,-0.3206,-0.3223,-0.3225,-0.3212,-0.325,0.0,0.0,-0.3253,-0.3226,-0.3226,-0.3277,-0.3381,-0.3506,-0.3585,-0.3667,-0.3681,-0.5271,-0.6224,-0.6505,-0.7868,-0.9016,-0.9866,-0.9572,-0.9593,-0.999,-1.1537,-1.2613,-1.3354,-1.3903,-1.3961,-1.37,-1.37,-1.37,-1.37,-1.37,-1.3656,-1.3602,-1.3602,0.0,0.0,0.0,0.0,0.0,0.0,0.0,-1.4296,-1.4939,-1.5518,-1.6156,-1.7242,-1.8064,-1.8853,-2.0111,-2.0878,-2.134,-2.1355,-2.1367,-2.134,-2.1421,-2.157,-2.1692,-2.176,-2.2072,-2.2247,-2.2235,-2.2344,-2.2411,-2.2288,-2.2398,-2.2398,-2.2249,-2.2289,-2.222,-2.2127,-2.2181,-2.2127,-2.1896,-2.1815,-2.1706,-2.157,-2.1408,-2.1313,-2.1313,-2.1177,-2.1136,-2.1218,-2.1068,-2.1068,-2.1218,-2.1068,-2.096,-2.0878,-2.096,-2.1041,-2.1109,-2.1041,-2.0878,-2.0648,-2.0516,-2.0476,-2.0476,-2.0476,-2.0285,-2.0018,-2.0281,-1.9895,-1.9213,0.0,0.0,0.0,0.0,0.0,0.0,0.0,0.0,0.0,-0.3185,-0.3217,-0.3225,-0.3193,-0.3217,-0.3162,0.0,0.0,0.0,-0.3236,-0.328,-0.3406,-0.3514,-0.3569,-0.3629,-0.3578,-0.4116,-0.4715,-0.5275,-0.4726,-0.5213,-0.6694,-0.7104,-0.7423,-0.7667,-1.0051,-1.1629,-1.2541,-1.3339,-1.3536,-1.3285,-1.3285,-1.3285,-1.3338,-1.3549,-1.3602,-1.3602,-1.3602,-1.3526,-1.3417,-1.3417,0.0,0.0,0.0,0.0,-1.3587,-1.4409,-1.4784,-1.5253,-1.673,-1.7819,-1.8944,-2.0547,-2.1177,-2.1341,-2.1368,-2.1368,-2.1475,-2.1597,-2.1665,-2.176,-2.1937,-2.2167,-2.2344,-2.2371,-2.2479,-2.2506,-2.2357,-2.2479,-2.2506,-2.2221,-2.2276,-2.2235,-2.1991,-2.2167,-2.2181,-2.1896,-2.1882,-2.1815,-2.1732,-2.153,-2.1368,-2.1368,-2.1313,-2.1245,-2.1245,-2.1136,-2.1136,-2.1245,-2.1082,-2.1014,-2.1041,-2.1014,-2.0987,-2.096,-2.0987,-2.0824,-2.0476,-2.0476,-2.0476,-2.0476,-2.0476,-2.0094,-1.9535,-2.0131,-1.9329,-1.8162,0.0,0.0,0.0,0.0,0.0,0.0,0.0,0.0,0.0,0.0,-0.3236,-0.325,-0.3195,-0.3236,-0.3236,-0.31,-0.3146,-0.3242,-0.3269,0.0,0.0,-0.3495,-0.3561,-0.3607,-0.3578,-0.3697,-0.3756,-0.3873,-0.3842,-0.3998,-0.4404,-0.5533,-0.6594,-0.7607,-0.9031,-1.0723,-1.2381,-1.1495,-1.1501,-1.2122,-1.2122,-1.2122,-1.2228,-1.3232,-1.3602,-1.3602,-1.3602,-1.3526,-1.3417,-1.3417,-1.3406,0.0,0.0,0.0,-1.3675,-1.4174,-1.485,-1.5636,-1.6586,-1.8165,-1.9732,-2.0594,-2.1014,-2.1285,-2.1341,-2.1368,-2.1435,-2.1462,-2.1665,-2.1937,-2.2235,-2.2303,-2.2371,-2.2506,-2.2603,-2.2506,-2.2357,-2.2574,-2.2696,-2.252,-2.2411,-2.2316,-2.222,-2.2194,-2.2072,-2.1896,-2.1882,-2.1815,-2.1732,-2.153,-2.1368,-2.1368,-2.1355,-2.1341,-2.1341,-2.1394,-2.1394,-2.1341,-2.1123,-2.1068,-2.1177,-2.1055,-2.0933,-2.0811,-2.0946,-2.0824,-2.0476,-2.0476,-2.0476,-2.0476,-2.0476,-2.0094,-1.9509,-1.9443,-1.8862,-1.8025,0.0,0.0,0.0,0.0,0.0,0.0,0.0,0.0,0.0,0.0,0.0,-0.3247,-0.3171,-0.3201,-0.319,-0.31,-0.3146,-0.3209,-0.3272,-0.3373,0.0,-0.3427,-0.3484,-0.3512,-0.3509,-0.3544,-0.3569,-0.3527,-0.3596,-0.3896,-0.4565,-0.5443,-0.6203,-0.6853,-0.8717,-0.9927,-1.0645,-1.0596,-1.0758,-1.1081,-1.1665,-1.1356,-1.0708,-1.283,-1.301,-1.2306,-1.3254,-1.3526,-1.3406,-1.3289,-1.3268,-1.3257,-1.3203,0.0,0.0,0.0,-1.4557,-1.5623,-1.7219,-1.8454,-1.9481,-2.0309,-2.0756,-2.1014,-2.1258,-2.1367,-2.1462,-2.1543,-2.1665,-2.1828,-2.2045,-2.2221,-2.2274,-2.2303,-2.2452,-2.2535,-2.2249,-2.2534,-2.2656,-2.2344,-2.2398,-2.2357,-2.2113,-2.2181,-2.214,-2.1896,-2.1882,-2.1815,-2.1732,-2.153,-2.1368,-2.1368,-2.1368,-2.1368,-2.1368,-2.1368,-2.1368,-2.1368,-2.1231,-2.1163,-2.1218,-2.1136,-2.1041,-2.0892,-2.096,-2.0824,-2.0476,-2.0476,-2.0476,-2.0476,-2.0094,-1.9535,-1.8937,-1.8799,-1.7971,-1.6954,0.0,0.0,0.0,0.0,0.0,0.0,0.0,0.0,0.0,0.0,0.0,-0.3234,-0.3103,0.0,0.0,0.0,-0.31,-0.3165,-0.3247,0.0,0.0,0.0,-0.3475,-0.3444,-0.3414,-0.3471,-0.3509,-0.3523,-0.3476,-0.4023,-0.5058,-0.5478,-0.5865,-0.6383,-0.8369,-0.9251,-0.9321,-0.9629,-0.9875,-1.0027,-1.0573,-1.0068,-0.9211,-1.1446,-1.1572,-1.0686,-1.2389,-1.2905,-1.2813,-1.3123,-1.3213,-1.3181,-1.32,-1.3159,0.0,0.0,0.0,-1.5527,-1.7303,-1.8269,-1.8952,-1.978,-2.0295,-2.0689,-2.0987,-2.1218,-2.1421,-2.153,-2.1625,-2.1706,-2.1869,-2.2099,-2.2276,-2.2235,-2.2411,-2.2479,-2.2249,-2.2547,-2.2669,-2.2371,-2.2398,-2.233,-2.2018,-2.2113,-2.2072,-2.1842,-2.1828,-2.1774,-2.1732,-2.153,-2.1368,-2.1368,-2.1368,-2.1368,-2.1368,-2.1368,-2.1368,-2.1368,-2.1245,-2.1177,-2.1218,-2.1177,-2.1109,-2.1001,-2.1001,-2.0824,-2.0476,-2.0349,-2.0235,-2.0171,-1.9522,-1.8822,-1.8236,-1.814,-1.7252,-1.6154,0.0,0.0,0.0,0.0,0.0,0.0,0.0,0.0,0.0,0.0,0.0,-0.3159,-0.31,-0.3171,-0.3152,-0.3107,-0.3081,-0.3127,-0.3187,0.0,0.0,0.0,-0.3408,0.0,-0.3414,-0.3471,-0.349,-0.3517,-0.349,-0.3999,-0.5,-0.5023,-0.5581,-0.6505,-0.7727,-0.8639,-0.9222,-0.8066,-0.8154,-0.9022,-0.8246,-0.7874,-0.7886,-0.8613,-0.8784,-0.894,-1.0624,-1.1152,-1.1292,-1.2875,-1.333,-1.317,-1.3113,-1.3156,-1.317,0.0,0.0,0.0,-1.6271,-1.7307,-1.8287,-1.8898,-1.9603,-2.0214,-2.0512,-2.0906,-2.1231,-2.1231,-2.1462,-2.1706,-2.1869,-2.2004,-2.2221,-2.2549,-2.2603,-2.2617,-2.2603,-2.2683,-2.2832,-2.2954,-2.2479,-2.2181,-2.2303,-2.195,-2.1706,-2.1692,-2.1692,-2.1732,-2.1665,-2.153,-2.1368,-2.1368,-2.1368,-2.1368,-2.1368,-2.1368,-2.1368,-2.1368,-2.1136,-2.1082,-2.1218,-2.1068,-2.1001,-2.1001,-2.1001,-2.0824,-2.0476,-1.984,-1.9535,-1.9458,-1.8822,-1.8121,-1.7547,-1.7535,-1.6931,-1.6103,0.0,0.0,0.0,0.0,0.0,0.0,0.0,0.0,0.0,0.0,0.0,0.0,0.0,-0.3182,-0.3168,-0.3114,-0.3155,0.0,0.0,0.0,0.0,0.0,-0.337,-0.3384,-0.3354,-0.3433,-0.3522,-0.3511,-0.3522,-0.4014,-0.4984,-0.4946,-0.5609,-0.6816,-0.7223,-0.7563,-0.7824,-0.7493,-0.7587,-0.7926,-0.781,-0.7118,-0.6472,-0.9391,-0.9094,-0.744,-1.0396,-1.1297,-1.1107,-1.1584,-1.2508,-1.3428,-1.3156,-1.3145,-1.3262,-1.3559,-1.4251,-1.5175,-1.6026,-1.6576,-1.7107,-1.8134,-1.8664,-1.9033,-1.9644,-2.0404,-2.0933,-2.0933,-2.1163,-2.1462,-2.1706,-2.195,-2.214,-2.2249,-2.2357,-2.2411,-2.2411,-2.2534,-2.2696,-2.2846,-2.2669,-2.2479,-2.2288,-2.2194,-2.2018,-2.1828,-2.172,-2.1665,-2.1665,-2.153,-2.1368,-2.1368,-2.1368,-2.1394,-2.1299,-2.1299,-2.1245,-2.1163,-2.1136,-2.1163,-2.1218,-2.1258,-2.1231,-2.1123,-2.0585,-2.0232,-2.0061,-1.9728,-1.9344,-1.8758,-1.8121,-1.7686,-1.7471,-1.6894,-1.6551,-1.6222,0.0,0.0,0.0,-0.3389,0.0,-0.331,-0.328,-0.3242,-0.3225,-0.3242,0.0,0.0,0.0,0.0,-0.319,-0.316,-0.3151,-0.3242,-0.3275,-0.3275,0.0,0.0,-0.3384,-0.3397,-0.3367,-0.365,-0.3688,-0.3528,-0.3679,-0.4142,-0.4904,-0.488,-0.5515,-0.6717,-0.6806,-0.7058,-0.7329,-0.7456,-0.7455,-0.7401,-0.7138,-0.6882,-0.696,-0.9543,-0.9456,-0.8326,-1.0587,-1.1162,-1.0836,-1.1105,-1.1987,-1.3022,-1.3379,-1.3496,-1.3525,-1.379,-1.4497,-1.5219,-1.5821,-1.6237,-1.6736,-1.7852,-1.8151,-1.8475,-1.934,-2.0051,-2.058,-2.0661,-2.096,-2.1299,-2.1625,-2.1869,-2.2059,-2.2113,-2.2194,-2.2303,-2.2398,-2.2452,-2.2547,-2.2764,-2.2696,-2.2574,-2.2425,-2.2235,-2.2072,-2.1964,-2.172,-2.1638,-2.1747,-2.1543,-2.1368,-2.1368,-2.1368,-2.1394,-2.1285,-2.1231,-2.1163,-2.1068,-2.1068,-2.1082,-2.1136,-2.1245,-2.1258,-2.1138,-2.039,-1.9974,-1.9741,-1.9189,-1.8641,-1.8121,-1.7419,-1.7175,-1.71,-1.6565,-1.6331,-1.6277,-0.3498,-0.3506,-0.3487,-0.3427,-0.3414,-0.3384,-0.3294,-0.328,-0.328,-0.328,0.0,0.0,0.0,0.0,0.0,-0.3248,-0.322,-0.3247,-0.3328,-0.3331,-0.3408,-0.3472,-0.3511,-0.3544,-0.3517,-0.4035,-0.4051,-0.3506,-0.4016,-0.4454,-0.4765,-0.4706,-0.5209,-0.61,-0.6446,-0.7094,-0.7973,-0.7902,-0.782,-0.758,-0.6113,-0.7013,-0.9247,-0.8583,-0.9588,-1.131,-1.0911,-1.0564,-1.0406,-1.1539,-1.1843,-1.206,-1.3774,-1.4128,-1.3919,-1.3919,-1.4678,-1.5486,0.0,0.0,0.0,-1.7867,-1.8123,-1.8474,-1.946,-1.9834,-2.0132,-2.0395,-2.0865,-2.1258,-2.1597,-2.1774,-2.1923,-2.2072,-2.2113,-2.2221,-2.259,-2.2425,-2.2466,-2.2764,-2.2534,-2.2411,-2.2603,-2.2045,-2.1815,-2.2072,-2.1639,-2.1584,-2.1869,-2.1597,-2.1435,-2.1435,-2.1368,-2.1368,-2.1368,-2.1285,-2.1218,-2.119,-2.0919,-2.0865,-2.1001,-2.1001,-2.1082,-2.1152,-2.0495,-2.0012,-1.9677,-1.8117,-1.7483,-1.7419,-1.6717,-1.6472,-1.6472,-1.6472,-1.6396,-1.6288,-0.3558,-0.3583,-0.3524,-0.3465,-0.349,-0.3463,-0.3467,-0.3423,-0.3348,0.0,0.0,0.0,-0.3395,-0.3354,-0.3516,-0.3976,-0.3985,-0.4205,-0.4637,-0.461,-0.4644,-0.4757,-0.4382,-0.4215,-0.4317,-0.3962,-0.3745,-0.3596,-0.3736,-0.4043,-0.4594,-0.4587,-0.5235,-0.6393,-0.6638,-0.706,-0.7651,-0.7504,-0.7591,-0.7688,-0.6064,-0.5983,-0.6893,-0.7165,-0.6763,-0.6216,-0.7517,-0.9056,-1.0408,-1.0449,-1.2541,-1.5078,-1.492,-1.4693,-1.4464,-1.4355,-1.4831,-1.5344,-1.5344,0.0,0.0,0.0,0.0,0.0,-1.8012,-1.8518,-1.902,-1.9752,-1.9997,-2.0349,-2.1177,-2.1462,-2.1611,-2.176,-2.2059,-2.2371,-2.2683,-2.2588,-2.2642,-2.3049,-2.294,-2.2751,-2.2644,-2.2481,-2.2263,-2.1977,-2.1828,-2.1787,-2.1882,-2.1706,-2.1597,-2.1597,-2.1489,-2.1328,-2.1285,-2.1123,-2.1001,-2.0892,-2.0875,-2.0865,-2.1001,-2.1109,-2.1231,-2.1301,-1.9942,-1.934,-1.9241,-1.8102,-1.7307,-1.6781,-1.66,-1.6472,-1.6472,-1.6472,-1.6504,-1.6418,-0.3621,-0.3654,-0.3596,-0.3537,-0.3569,-0.3547,-0.3517,-0.3482,-0.3574,0.0,0.0,0.0,-0.4196,-0.4102,-0.407,-0.4338,-0.4331,-0.4385,-0.4494,-0.4941,-0.5122,-0.4949,-0.491,-0.491,-0.4996,-0.4819,-0.4649,-0.4376,-0.4618,-0.4786,-0.4887,-0.5256,-0.5826,-0.6548,-0.6925,-0.7257,-0.7591,-0.7363,-0.7915,-0.8692,-0.6464,-0.6846,-0.863,-0.7873,-0.747,-0.7261,-0.755,-0.8431,-0.9501,-1.0202,-1.3217,-1.6551,-1.5833,-1.552,-1.5332,-1.5082,-1.5398,-1.5879,-1.576,-1.5879,-1.6154,-1.6799,0.0,0.0,-1.7824,-1.8219,-1.8599,-1.9332,-1.9576,-1.9902,-2.0702,-2.1014,-2.1231,-2.1448,-2.1869,-2.2235,-2.2466,-2.2425,-2.2479,-2.2818,-2.2778,-2.271,-2.2656,-2.2479,-2.2344,-2.2276,-2.2018,-2.1882,-2.1882,-2.1869,-2.1801,-2.1665,-2.1584,-2.1462,-2.1313,-2.1163,-2.1041,-2.0946,-2.0946,-2.1001,-2.1082,-2.1245,-2.1353,-2.1302,-1.9769,-1.9114,-1.9036,-1.7841,-1.7034,-1.6538,-1.6483,-1.6472,-1.6472,-1.6472,-1.6472,-1.6472,0.0,-0.3708,-0.3711,-0.3713,-0.3702,-0.3748,-0.3833,-0.3827,-0.3995,0.0,-0.4519,-0.4741,-0.5289,-0.5125,-0.491,-0.4776,-0.4691,-0.4451,-0.3935,-0.4902,-0.5287,-0.4718,-0.5337,-0.5679,-0.5658,-0.609,-0.6032,-0.554,-0.599,-0.5986,-0.5519,-0.6232,-0.6709,-0.7041,-0.7527,-0.7827,-0.7955,-0.7753,-0.8657,-0.9967,-0.7356,-0.8515,-1.1691,-0.9504,-0.9659,-1.0794,-0.8876,-0.8069,-0.826,-1.0474,-1.3721,-1.6688,-1.6232,-1.6307,-1.6497,-1.5989,-1.6273,-1.6689,-1.6456,-1.654,-1.6878,-1.7406,-1.7528,0.0,-1.8287,-1.8423,-1.8572,-1.9061,-1.9332,-1.9644,-2.0159,-2.0485,-2.0756,-2.1014,-2.1475,-2.1882,-2.2113,-2.214,-2.2221,-2.2302,-2.2342,-2.2493,-2.2723,-2.2411,-2.2344,-2.271,-2.2235,-2.1923,-2.1896,-2.2018,-2.195,-2.1732,-2.1652,-2.1584,-2.1368,-2.1285,-2.1218,-2.1218,-2.119,-2.1218,-2.1245,-2.1353,-2.1368,-2.1329,-1.9795,-1.9127,-1.8995,-1.7475,-1.6766,-1.6593,-1.6538,-1.6483,-1.6483,-1.6472,-1.6472,-1.6472,-0.3711,-0.3741,-0.3927,-0.4409,-0.4458,-0.4689,-0.5202,-0.5233,-0.5114,-0.4775,-0.481,-0.4901,-0.5199,-0.5535,-0.5868,-0.6411,-0.6198,-0.6225,-0.644,-0.6699,-0.6775,-0.6719,-0.6396,-0.6341,-0.6434,-0.5977,-0.5727,-0.5671,-0.5664,-0.59,-0.6314,-0.6391,-0.7552,-0.9521,-0.9664,-0.9729,-0.9736,-0.9792,-0.9694,-0.9558,-0.9428,-0.8554,-0.7538,-0.8332,-0.7379,-0.5648,-0.5217,-0.6379,-0.85,-1.0775,-1.3199,-1.5207,-1.4586,-1.5851,-1.7514,-1.6894,-1.6946,-1.7066,-1.689,-1.6971,-1.7134,-1.7256,-1.7528,0.0,-1.7757,-1.7771,-1.796,-1.8708,-1.8599,-1.8694,-1.963,-1.999,-2.0064,-2.0119,-2.0811,-2.157,-2.2194,-2.2398,-2.252,-2.2683,-2.2805,-2.2805,-2.2628,-2.2628,-2.2588,-2.2369,-2.2316,-2.2194,-2.2072,-2.1977,-2.1842,-2.1732,-2.1543,-2.1409,-2.1368,-2.1285,-2.1218,-2.1218,-2.1082,-2.1163,-2.1394,-2.1299,-2.1394,-2.1544,-1.9933,-1.9273,-1.9128,-1.761,-1.6896,-1.6777,-1.6657,-1.6614,-1.6592,-1.6505,-1.6472,-1.6472,-0.4153,-0.4242,-0.4372,-0.463,-0.4758,-0.4768,-0.4768,-0.5007,-0.5284,-0.5413,-0.6177,-0.6726,-0.6663,-0.7532,-0.7744,-0.6961,-0.7548,-0.7549,-0.6462,-0.7849,-0.8573,-0.8334,-0.924,-0.9815,-0.987,-0.9635,-0.9496,-0.9403,-0.9328,-0.9433,-0.9751,-0.9679,-0.9693,-0.9816,-1.1122,-1.0453,-0.8489,-0.9785,-1.015,-0.9777,-0.8607,-0.7672,-0.7,-0.6594,-0.5514,-0.4215,-0.4202,-0.5876,-0.8243,-0.9206,-1.2095,0.0,-1.4543,-1.628,-1.8396,0.0,-1.7582,-1.765,-1.7202,-1.7188,-1.7338,-1.7487,0.0,0.0,0.0,-1.7867,-1.7935,-1.8531,-1.8355,-1.8314,-1.9133,-1.9392,-1.9535,-1.982,-2.0376,-2.0987,-2.1584,-2.1937,-2.2236,-2.233,-2.2398,-2.2452,-2.2452,-2.252,-2.2466,-2.2235,-2.214,-2.2072,-2.2004,-2.1923,-2.1842,-2.1774,-2.1706,-2.1652,-2.1652,-2.1516,-2.1475,-2.1543,-2.1408,-2.1408,-2.1543,-2.1543,-2.1543,-2.149,-2.0021,-1.9371,-1.9177,-1.7644,-1.6962,-1.6907,-1.6777,-1.6636,-1.6571,-1.6635,-1.657,-1.6483,-0.4481,-0.4563,-0.4694,-0.4838,-0.4925,-0.4897,-0.4602,-0.4992,-0.5745,-0.683,-0.7682,-0.8242,-0.8466,-0.9117,-0.8789,-0.6934,-0.8069,-0.8148,-0.6492,-0.8689,-0.9845,-0.9383,-1.1811,-1.2934,-1.2497,-1.3152,-1.337,-1.3198,-1.3101,-1.3083,-1.2987,-1.2603,-1.1717,-1.0568,-1.185,-1.0937,-0.8561,-1.007,-1.046,-0.991,-0.7491,-0.7423,-0.858,-0.6584,-0.5512,-0.4962,-0.4923,-0.6255,-0.8033,-0.8258,-1.1615,-1.5559,-1.5143,-1.7024,0.0,0.0,0.0,0.0,0.0,0.0,0.0,0.0,0.0,-1.7947,0.0,0.0,0.0,-1.8423,-1.8301,-1.8247,-1.8599,-1.8803,-1.9061,-1.9535,-1.9929,-2.0282,-2.0648,-2.1095,-2.1462,-2.172,-2.1774,-2.1896,-2.2181,-2.2181,-2.214,-2.2113,-2.1923,-2.1815,-2.1842,-2.1842,-2.1828,-2.1787,-2.1787,-2.1787,-2.1787,-2.1692,-2.1692,-2.1787,-2.1706,-2.1665,-2.1665,-2.1801,-2.1706,-2.1356,-2.0034,-1.942,-1.9177,-1.7666,-1.7049,-1.7016,-1.6853,-1.6722,-1.6593,-1.6722,-1.6635,-1.6483,-0.4018,-0.3914,-0.4282,-0.5368,-0.5665,-0.6018,-0.71,-0.7392,-0.8104,-0.9923,-0.8102,-0.7473,-0.9729,-0.8026,-0.6657,-0.6448,-0.6444,-0.7236,-0.9209,-0.9508,-0.9633,-0.9573,-1.2077,-1.2452,-1.0211,-1.2308,-1.3408,-1.3465,-1.3197,-1.3044,-1.2862,-1.1304,-1.2179,-1.4841,-1.1345,-1.189,-1.5152,-1.3005,-1.0996,-0.9235,-0.8702,-0.9869,-1.1869,-1.1674,-0.9845,-0.7493,-0.7567,-0.7782,-0.8373,0.0,-1.3487,-1.5899,0.0,-1.755,-1.9685,-1.9047,0.0,0.0,0.0,0.0,0.0,0.0,-1.8749,0.0,0.0,0.0,-1.8423,-1.8355,0.0,-1.8301,-1.8355,0.0,0.0,-1.8667,-1.911,-1.9488,-1.9543,-1.9997,-2.0526,-2.1218,-2.1408,-2.157,-2.172,-2.1611,-2.1639,-2.2072,-2.172,-2.1543,-2.1692,-2.1692,-2.1638,-2.1489,-2.1489,-2.1489,-2.1489,-2.1409,-2.1409,-2.1489,-2.1611,-2.1665,-2.1665,-2.1692,-2.1665,-2.1571,-1.9984,-1.9322,-1.9177,-1.7768,-1.7179,-1.7136,-1.6799,-1.6593,-1.656,-1.6538,-1.6505,-1.6472,-0.4991,-0.5236,-0.5648,-0.6134,-0.6265,-0.6819,-0.8233,-1.0349,-1.2182,-1.3226,-1.2778,-1.2712,-1.3787,-1.3759,-1.3216,-1.2146,-1.2739,-1.3014,-1.2676,-1.3558,-1.406,-1.406,-1.6037,-1.6608,-1.5539,-1.6559,-1.696,-1.6805,-1.6638,-1.6519,-1.639,-1.5485,-1.5207,-1.5351,-1.3508,-1.2452,-1.1922,-1.0625,-1.0407,-1.0965,-1.1188,-1.345,-1.6199,-1.1962,-1.0603,-1.092,-1.0758,-1.0666,-1.0779,0.0,-1.3939,0.0,0.0,0.0,0.0,-1.9644,0.0,0.0,0.0,0.0,0.0,0.0,0.0,0.0,-1.8602,0.0,-1.8301,0.0,0.0,0.0,0.0,0.0,0.0,0.0,-1.8884,-1.9101,-1.9278,-1.9468,-1.982,-2.0485,-2.0702,-2.0892,-2.1123,-2.0933,-2.0946,-2.1299,-2.1001,-2.0933,-2.1272,-2.1353,-2.1462,-2.157,-2.1584,-2.1611,-2.1692,-2.1611,-2.1652,-2.1828,-2.172,-2.176,-2.1937,-2.1937,-2.1882,-2.172,-2.0644,-1.9896,-1.9353,-1.8199,-1.7479,-1.706,-1.6831,-1.6755,-1.6733,-1.6701,-1.6581,-1.6483,-0.684,-0.7049,-0.7252,-0.7387,-0.7967,-0.8887,-1.038,-1.2984,-1.5204,-1.6244,-1.6197,-1.6378,-1.7293,-1.6727,-1.5837,-1.4602,-1.4566,-1.4142,-1.3007,-1.4853,-1.5602,-1.4823,-1.8051,-1.9211,-1.7658,-1.9045,-1.959,-1.9332,-1.9101,-1.8993,-1.8993,-1.8187,-1.7247,-1.6156,-1.4984,-1.3507,-1.1804,-1.0973,-1.1812,-1.3598,-1.3915,-1.6103,-1.8521,-1.3045,-1.1808,-1.307,-1.3537,-1.3627,-1.3583,-1.4167,-1.5746,0.0,-1.7397,0.0,-2.0512,0.0,0.0,0.0,-1.9522,0.0,0.0,0.0,0.0,0.0,0.0,0.0,0.0,0.0,0.0,0.0,0.0,0.0,-1.8464,-1.8721,0.0,-1.8776,-1.8993,-1.902,-1.9237,-1.9847,-2.0078,-2.0309,-2.0566,-2.0282,-2.0241,-2.0634,-2.0295,-2.0309,-2.0838,-2.1014,-2.1231,-2.153,-2.1638,-2.1706,-2.176,-2.1706,-2.176,-2.1923,-2.1787,-2.1828,-2.1991,-2.2018,-2.1991,-2.1882,-2.1059,-2.0253,-1.9426,-1.8531,-1.771,-1.7049,-1.6918,-1.6853,-1.682,-1.6777,-1.6668,-1.6527,-0.9683,-0.9008,-0.8682,-0.9394,-1.1198,-1.3054,-1.4443,-1.4869,-1.6035,-1.873,-1.6565,-1.5938,-1.9017,-1.3425,-0.9776,-1.0369,-0.7062,-0.6011,-0.8439,-1.1143,-1.1358,-0.8535,-1.6152,-1.7946,-1.2579,-1.7328,-1.9807,-1.9705,-1.9196,-1.8993,-1.8934,-1.7009,-1.7006,-1.8499,-1.4658,-1.5425,-1.9369,-1.7134,-1.6396,-1.6721,-1.6614,-1.7038,-1.761,-1.6775,-1.4908,-1.3053,-1.5523,0.0,0.0,-1.9164,-2.0201,0.0,0.0,0.0,0.0,0.0,0.0,0.0,0.0,0.0,0.0,-1.959,0.0,0.0,0.0,0.0,-1.9006,0.0,0.0,0.0,0.0,0.0,-1.8586,-1.8749,-1.864,0.0,0.0,-1.8488,-1.8776,-1.9373,-1.9712,-1.9942,-2.0105,-1.9712,-1.9651,-2.0295,-1.9807,-1.9718,-2.0462,-2.0702,-2.0919,-2.1218,-2.1516,-2.1597,-2.1395,-2.1597,-2.1597,-2.1462,-2.1747,-2.1815,-2.1692,-2.1828,-2.1882,-2.1869,-2.0849,-2.0076,-1.9426,-1.857,-1.7768,-1.7179,-1.7049,-1.6918,-1.6809,-1.6636,-1.6571,-1.656,-1.2142,-1.3298,-1.3628,-1.2479,-1.3046,-1.4447,-1.6755,-1.8684,-1.9545,-1.8576,-1.9902,-2.0647,-1.992,-1.9592,-1.9524,-1.9854,-1.6384,-1.4438,-1.4964,-1.5574,-1.4602,-1.157,-1.7735,-1.9415,-1.543,-1.8824,-2.0485,-2.0241,-1.9888,-1.9685,-1.9576,-1.8569,-1.851,-1.9032,-1.5915,-1.5496,-1.7029,-1.4799,-1.4902,-1.6776,-1.8975,-2.0101,-2.0548,-2.0168,-1.9455,-1.8723,-1.9369,-1.9545,0.0,-2.0475,-2.0729,-2.0689,-2.0634,-2.0607,-2.058,-2.0376,-2.0376,0.0,0.0,0.0,-2.0354,-1.9861,0.0,0.0,0.0,0.0,0.0,0.0,0.0,0.0,0.0,0.0,-1.8488,-1.8599,-1.8572,-1.8491,0.0,-1.8396,-1.8464,-1.8667,-1.8952,-1.9215,-1.9269,-1.8993,-1.9006,-1.9413,-1.925,-1.9413,-2.0064,-2.0526,-2.0824,-2.0919,-2.1313,-2.1435,-2.1285,-2.1435,-2.1543,-2.1597,-2.1692,-2.1815,-2.1964,-2.2004,-2.2099,-2.2112,-2.1705,-2.1044,-2.0316,-1.9426,-1.8593,-1.7834,-1.7335,-1.7049,-1.6918,-1.6712,-1.6592,-1.6527,-1.2576,-1.5053,-1.6529,-1.5118,-1.5837,-1.7314,-1.9278,-2.1357,-2.2107,-2.0345,-2.2559,-2.3706,-2.2172,-2.2581,-2.3034,-2.3287,-1.9886,-1.7461,-1.7024,-1.7683,-1.6707,-1.3466,-1.8891,-2.054,-1.7262,-1.9921,-2.1082,-2.0634,-2.0431,-2.0214,-1.9942,-1.9549,-1.94,-1.9307,-1.7647,-1.7049,-1.7176,-1.6088,-1.6581,-1.8367,-2.0653,-2.1815,-2.2072,0.0,-2.1706,-2.1652,0.0,-2.134,-2.1285,-2.119,-2.1123,-2.1068,-2.0892,-2.0865,-2.076,-2.0543,-2.058,-2.0634,-2.0634,-2.0661,0.0,-2.0282,-2.0051,0.0,-1.9128,0.0,0.0,0.0,0.0,0.0,0.0,0.0,-1.8694,-1.8694,-1.8599,-1.8464,0.0,-1.8192,-1.8179,-1.8233,-1.8491,-1.8654,-1.8599,-1.8518,-1.8531,-1.8749,-1.8749,-1.9006,-1.9603,-2.0214,-2.058,-2.0689,-2.1231,-2.1421,-2.1218,-2.1421,-2.1543,-2.1584,-2.1652,-2.1774,-2.195,-2.2004,-2.2113,-2.2249,-2.2045,-2.1516,-2.0786,-2.0122,-1.9195,-1.8179,-1.7724,-1.7302,-1.6973,-1.6777,-1.6614,-1.6472,-1.14,-1.4652,-1.739,-1.7343,-1.9497,-2.1367,-2.1842,-2.2764,-2.3411,-2.3467,-2.4154,-2.4826,-2.5187,-2.2286,-2.0472,-2.0817,-1.7462,-1.5148,-1.4711,-1.7316,-1.7355,-1.402,-1.9496,-2.1055,-1.7707,-2.0417,-2.1543,-2.0838,-2.0811,-2.0566,-2.0119,-1.982,-1.959,-1.9454,-1.9725,-1.9861,-1.999,-2.0811,-2.1299,-2.1489,-2.1787,-2.1991,-2.2113,-2.1977,-2.1828,-2.1706,-2.1706,-2.1597,-2.1422,-2.1422,-2.157,-2.1597,-2.1177,-2.1231,-2.1274,-2.0692,-2.0689,-2.0875,-2.0811,-2.0919,-2.1001,-2.0838,0.0,0.0,0.0,0.0,-1.9929,0.0,0.0,0.0,0.0,0.0,0.0,-1.8979,0.0,0.0,-1.8124,-1.7962,-1.7935,-1.8057,-1.8314,-1.8379,-1.8342,-1.8301,-1.8301,-1.8314,-1.8258,-1.8572,-1.9156,-1.9766,-2.0227,-2.0449,-2.1245,-2.1489,-2.1218,-2.1489,-2.1584,-2.1421,-2.1584,-2.1665,-2.1665,-2.1815,-2.195,-2.2072,-2.1815,-2.141,-2.084,-2.0502,-1.9534,-1.8245,-1.8179,-1.77,-1.6973,-1.6864,-1.6668,-1.6472,-1.5781,-1.8403,-2.0534,-2.0626,-2.0943,-2.1475,-2.2317,-2.271,-2.2291,-2.0612,-2.3072,-2.4218,-2.2122,-2.3429,-2.4411,-2.4424,-2.1087,-1.8914,-1.8625,-1.9096,-1.7819,-1.4519,-1.9963,-2.1558,-1.8381,-2.091,-2.2072,-2.176,-2.1313,-2.0933,-2.0594,-2.0064,-1.9752,-1.9603,-1.9549,-1.9657,-1.9929,-2.0594,-2.1299,-2.195,-2.214,-2.2249,-2.2289,0.0,-2.2426,-2.2303,-2.2072,-2.2045,-2.2045,-2.2045,-2.1991,-2.1801,-2.157,-2.1475,-2.1328,-2.1123,-2.1231,-2.1408,-2.1299,-2.1394,-2.1462,-2.1299,-2.1014,-2.0689,0.0,0.0,0.0,0.0,0.0,0.0,0.0,0.0,0.0,-1.8902,0.0,0.0,-1.8124,-1.8057,-1.8002,-1.7935,-1.7894,-1.7933,-1.8287,-1.796,-1.7906,-1.8244,-1.8219,-1.8355,-1.8902,-1.9657,-2.0132,-2.02,-2.0838,-2.1136,-2.1055,-2.1231,-2.1313,-2.1258,-2.1421,-2.157,-2.1665,-2.1706,-2.1815,-2.1937,-2.1869,-2.172,-2.1451,-2.0821,-1.993,-1.8977,-1.839,-1.7655,-1.6864,-1.6831,-1.6668,-1.6483,-1.6515,-1.883,-2.1086,-2.2192,-2.2276,-2.2357,-2.2873,-2.3185,-2.2935,-2.1614,-2.3726,-2.4689,-2.2879,-2.4763,-2.6006,-2.5803,-2.3935,-2.2648,-2.2272,-2.2086,-2.1019,-1.8914,-2.2041,-2.2828,-2.0707,-2.2057,0.0,-2.2113,-2.1706,-2.1285,-2.0865,-2.0336,-1.9929,-1.9718,-1.9576,-1.963,-1.9895,-2.0702,-2.1475,-2.2127,-2.2276,-2.2371,0.0,-2.259,-2.2642,-2.2723,-2.2574,-2.252,-2.2534,-2.2534,-2.2411,-2.2235,-2.2018,-2.1896,-2.1787,-2.157,-2.153,-2.1584,-2.1611,-2.1652,-2.1692,-2.172,-2.1543,-2.1285,-2.1001,-2.1014,-2.0892,0.0,0.0,0.0,0.0,0.0,0.0,0.0,0.0,0.0,0.0,-1.8097,-1.8043,-1.7936,-1.7745,-1.7757,-1.8179,-1.7812,-1.7704,-1.8097,-1.8111,-1.8247,-1.864,-1.9522,-2.0037,-2.0105,-2.0756,-2.1082,-2.1082,-2.1245,-2.1313,-2.1313,-2.1341,-2.1489,-2.1584,-2.1706,-2.1815,-2.1882,-2.195,-2.1937,-2.1842,-2.1303,-2.0608,-1.9729,-1.8668,-1.7621,-1.682,-1.6875,-1.6722,-1.6483,-1.6346,-1.8327,-2.0707,-2.2639,-2.3347,-2.3532,-2.3573,-2.3985,-2.4297,-2.4473,-2.526,-2.5694,-2.541,-2.5993,-2.6278,-2.5993,-2.5939,-2.5708,-2.5179,-2.522,-2.5016,-2.446,-2.4487,-2.4229,-2.3478,-2.3397,-2.3008,0.0,-2.195,-2.1543,-2.0933,-2.0485,-2.0051,-1.9691,-1.9691,-1.9745,-1.9861,-2.096,-2.1692,-2.2099,-2.2289,-2.2452,-2.263,-2.2698,-2.2805,-2.3008,-2.3049,-2.2981,-2.2832,-2.2832,-2.2832,-2.2764,-2.2479,-2.2371,-2.2303,-2.2018,-2.1747,-2.1584,-2.1842,-2.1828,-2.1801,-2.2045,-2.2127,-2.2045,-2.1611,-2.1421,-2.119,-2.0692,-2.0539,0.0,0.0,0.0,0.0,0.0,0.0,0.0,0.0,-1.8097,-1.8002,-1.7895,-1.7663,0.0,-1.7962,-1.7636,-1.7528,-1.7922,-1.7989,-1.8165,-1.8407,0.0,-1.9875,-2.0064,-2.0756,-2.1163,-2.1218,0.0,-2.1341,-2.1341,-2.1421,-2.1368,-2.1435,-2.1706,-2.1828,-2.1869,-2.1964,-2.2045,-2.2059,-2.176,-2.1236,-2.0407,-1.8959,-1.7765,-1.6973,-1.7093,-1.6853,-1.6516,-2.1474,-2.2277,-2.2981,-2.3154,-2.3836,-2.446,-2.4704,-2.4813,-2.4962,-2.5233,-2.5939,-2.6359,-2.6183,-2.6373,-2.6468,-2.6291,-2.6169,-2.5993,-2.5762,-2.5545,0.0,-2.4908,-2.4506,-2.4256,-2.4012,-2.3524,-2.3008,0.0,-2.2018,-2.134,-2.0607,-2.0159,-1.978,-1.9468,-1.9468,-1.982,-2.0431,-2.1071,-2.1638,-2.195,-2.2357,-2.2534,-2.2658,-2.2954,-2.3063,-2.3049,-2.3221,-2.328,-2.3158,-2.3158,-2.3063,-2.294,-2.2764,-2.2628,-2.2479,-2.2303,-2.2127,-2.2004,-2.2059,-2.2059,-2.2045,-2.2099,-2.2194,-2.218,-2.2045,-2.1964,-2.1828,-2.1367,-2.1163,-2.0892,-2.0376,0.0,0.0,0.0,0.0,0.0,0.0,0.0,-1.784,-1.7704,-1.7338,-1.7216,-1.7514,-1.7351,-1.746,-1.8002,-1.784,-1.7811,-1.8138,0.0,-1.9508,0.0,-2.0404,0.0,0.0,0.0,-2.1245,-2.1245,-2.1328,-2.1368,-2.1368,-2.1489,-2.1584,-2.1706,-2.1597,-2.1706,-2.1896,-2.1597,-2.1077,-2.0345,-1.9455,-1.8557,-1.7745,-1.7871,-1.7354,-1.6625,-2.3415,-2.3646,-2.3836,-2.4012,-2.4528,-2.5043,-2.5423,-2.5749,-2.583,-2.5583,-2.5898,-2.6169,-2.602,-2.6413,-2.6631,-2.6481,-2.64,-2.6251,-2.6047,-2.5884,-2.5667,-2.5369,-2.5098,-2.4786,-2.4473,-2.3877,-2.3307,-2.2778,-2.2113,-2.1448,-2.077,-2.0241,-1.9834,-1.9549,-1.963,-2.0078,-2.0811,-2.134,0.0,-2.214,-2.252,-2.278,-2.2818,-2.3022,-2.3171,-2.3239,-2.3235,-2.3334,-2.3248,-2.3181,-2.3171,-2.3103,-2.294,-2.2846,-2.2751,-2.252,-2.2289,-2.2127,-2.2153,-2.2113,-2.2018,-2.2181,-2.222,-2.2234,-2.214,-2.2113,-2.1991,-2.153,-2.1328,-2.1123,-2.0395,-1.9902,0.0,0.0,0.0,0.0,0.0,0.0,-1.8124,-1.7595,-1.7338,-1.727,-1.7405,-1.7351,-1.7433,-1.7717,-1.7636,-1.7745,-1.7962,0.0,-1.9223,0.0,0.0,0.0,0.0,0.0,0.0,-2.1274,-2.1341,-2.1368,-2.1368,-2.153,-2.1597,-2.1665,-2.1665,-2.1787,-2.1991,-2.176,-2.1183,-2.0386,-2.0041,-1.932,-1.8504,-1.8223,-1.7737,-1.7188,-2.4161,-2.4189,-2.4311,-2.4758,-2.5165,-2.5545,-2.5939,-2.6481,-2.659,-2.5844,-2.5979,-2.6074,-2.5939,-2.6481,-2.678,-2.6644,-2.659,-2.6468,-2.6196,-2.6142,-2.6006,-2.5708,-2.5545,-2.5274,-2.484,-2.4311,-2.3714,0.0,-2.2357,-2.1665,-2.0987,-2.0417,-1.9997,-1.9773,-1.9956,-2.0431,0.0,0.0,-2.2004,-2.2411,-2.271,-2.29,-2.3008,-2.3076,-2.3181,-2.3356,-2.3347,-2.3375,-2.3356,-2.3307,-2.3181,-2.3198,-2.3103,-2.3022,-2.2954,-2.2723,-2.2411,-2.2181,-2.2303,-2.214,-2.1991,-2.2235,-2.2289,-2.2249,-2.214,-2.2059,-2.1923,-2.157,-2.1435,-2.1177,-2.0449,-2.0119,0.0,0.0,0.0,0.0,0.0,0.0,-1.8396,-1.765,-1.7419,-1.7324,-1.7324,-1.7297,-1.7311,-1.7365,-1.7487,-1.7717,-1.7949,0.0,0.0,0.0,0.0,-2.0417,-2.1068,0.0,-2.1258,0.0,-2.1421,-2.1368,-2.1435,-2.157,-2.1638,-2.1665,-2.176,-2.1882,-2.2004,-2.1923,-2.1397,-2.0691,-2.0652,-2.0097,-1.9258,-1.8707,-1.8319,-1.781,-2.4487,-2.484,-2.5084,-2.5003,-2.5586,-2.6115,-2.6291,-2.6712,-2.6929,-2.6712,-2.682,-2.6875,-2.6712,-2.6888,-2.6943,-2.6807,-2.6658,-2.6508,-2.6346,-2.6196,-2.6006,-2.5708,-2.5545,-2.5315,-2.5003,-2.4663,-2.4066,0.0,0.0,-2.2045,-2.0987,-2.0526,-2.0159,-1.9936,-2.0494,0.0,0.0,-2.1815,-2.2249,-2.2617,-2.2873,-2.2995,-2.3049,-2.3235,-2.3356,-2.3397,-2.3592,-2.3551,-2.3383,-2.3356,-2.3275,-2.3225,-2.3198,-2.3117,-2.3008,-2.2981,-2.2656,-2.2247,-2.2274,-2.2221,-2.2099,-2.2127,-2.2127,-2.2127,-2.2113,-2.1896,-2.1706,-2.1652,-2.1421,-2.1082,-2.0543,-2.0594,-2.0404,0.0,0.0,0.0,0.0,0.0,-1.8287,-1.8057,-1.7433,-1.7026,-1.7026,-1.689,-1.6878,-1.7188,-1.7487,-1.7717,-1.8057,0.0,0.0,-1.9047,0.0,-2.0254,-2.053,-2.1001,0.0,-2.1231,-2.1367,-2.1368,-2.1368,-2.1395,-2.1543,-2.1665,-2.153,-2.157,-2.172,-2.1828,-2.1787,-2.1571,-2.1356,-2.0825,-2.0101,-2.0035,-1.9168,-1.8014,-2.5057,-2.5111,-2.5233,-2.5613,-2.5939,-2.6305,-2.682,-2.7051,-2.7173,-2.7214,-2.7105,-2.701,-2.6943,-2.6902,-2.6875,-2.6807,-2.6753,-2.6644,-2.6508,-2.6427,-2.6278,-2.5966,-2.5817,-2.564,-2.5423,-2.5043,-2.4487,0.0,0.0,0.0,-2.1394,-2.0838,-2.0526,-2.0431,0.0,-2.1394,-2.1774,-2.2194,-2.2547,-2.2832,-2.2954,-2.3008,-2.3022,-2.313,-2.3239,-2.3248,-2.3375,-2.3429,-2.3356,-2.3347,-2.328,-2.3225,-2.3225,-2.3185,-2.3117,-2.3022,-2.2818,-2.2601,-2.2601,-2.2425,-2.2289,-2.2466,-2.2371,-2.2249,-2.2249,-2.2018,-2.1747,-2.157,-2.1353,-2.1123,-2.0865,-2.0783,-2.0689,0.0,0.0,0.0,0.0,0.0,0.0,-1.7894,-1.7405,-1.708,-1.6985,-1.6998,-1.7107,0.0,-1.7446,-1.769,-1.807,0.0,0.0,-1.8708,0.0,-1.9752,-2.0132,-2.077,-2.1123,-2.1218,-2.1367,-2.1368,-2.1368,-2.1368,-2.153,-2.1665,-2.1597,-2.1625,-2.1665,-2.1787,-2.1665,-2.153,-2.1462,-2.1195,-2.0891,-2.0507,-1.9914,-1.9221,-2.5464,-2.5423,-2.5532,-2.6156,-2.6291,-2.6536,-2.7076,-2.72,-2.7255,-2.7512,-2.7241,-2.7024,-2.7024,-2.6943,-2.6848,-2.6807,-2.6807,-2.6725,-2.659,-2.6576,-2.6454,-2.6142,-2.602,0.0,-2.5694,-2.5369,-2.4921,-2.4311,-2.3605,0.0,0.0,0.0,0.0,0.0,-2.157,-2.1923,-2.2194,-2.2534,-2.2778,-2.294,-2.2995,-2.2981,-2.294,-2.2995,-2.3103,-2.3225,-2.328,-2.3289,-2.3356,-2.3248,-2.3253,-2.3225,-2.3225,-2.3225,-2.3198,-2.3103,-2.294,-2.2805,-2.2832,-2.2628,-2.2466,-2.271,-2.2547,-2.2274,-2.2274,-2.2113,-2.1787,-2.1489,-2.1353,-2.1231,-2.1082,-2.096,-2.0892,-2.0878,0.0,0.0,0.0,0.0,0.0,-1.8057,-1.7555,-1.7188,-1.6998,-1.7066,-1.7216,0.0,0.0,-1.765,-1.8002,0.0,0.0,0.0,0.0,0.0,0.0,-2.058,-2.0987,-2.1082,-2.1285,-2.1367,-2.1367,-2.1355,-2.1489,-2.1597,-2.1652,-2.1665,-2.1665,-2.1665,-2.1597,-2.1516,-2.1395,-2.1368,-2.1368,-2.0838,-2.052,-2.0074,-2.5627,-2.5925,-2.6224,-2.6522,-2.6698,-2.6888,-2.7187,-2.7119,-2.7187,-2.7648,-2.7309,-2.7024,-2.7024,-2.7024,-2.6956,-2.682,-2.6807,-2.6725,-2.659,-2.6576,-2.6454,0.0,0.0,-2.5993,-2.5694,-2.5694,-2.5396,-2.4786,0.0,0.0,-2.2981,0.0,-2.2004,-2.1882,-2.2413,-2.2466,-2.2302,-2.2818,-2.2927,-2.2805,-2.2954,-2.2927,-2.2805,-2.2954,-2.3103,-2.3239,-2.3329,-2.3383,-2.3383,-2.3383,-2.3347,-2.3225,-2.3225,-2.3225,-2.3225,-2.3225,-2.3008,-2.2818,-2.2981,-2.2778,-2.2658,-2.2751,-2.2547,-2.2274,-2.2274,-2.2113,-2.1787,-2.1489,-2.1368,-2.1394,-2.1231,-2.1218,-2.1055,-2.0607,0.0,0.0,0.0,0.0,0.0,-1.882,-1.7962,-1.7297,-1.7012,-1.6985,-1.7107,0.0,0.0,-1.7704,-1.7867,0.0,0.0,-1.8518,-1.925,0.0,-1.9875,-2.0471,-2.077,-2.0783,-2.1068,-2.1218,-2.1218,-2.1367,-2.1368,-2.1395,-2.1597,-2.1665,-2.1665,-2.1665,-2.1665,-2.1652,-2.1489,-2.1368,-2.1368,-2.1368,-2.0984,-2.036,-2.5925,-2.6061,-2.6224,-2.6522,-2.6698,-2.6875,-2.7065,-2.7132,-2.7255,-2.7512,-2.7417,-2.7295,-2.7187,-2.6997,-2.6861,0.0,-2.6807,-2.678,0.0,-2.6725,-2.659,-2.6305,-2.6291,-2.6156,-2.5844,-2.583,-2.564,-2.5247,0.0,0.0,0.0,-2.2764,-2.2642,-2.252,-2.2846,-2.2981,-2.294,-2.2995,-2.2981,-2.294,-2.2873,-2.2764,-2.2712,-2.2805,-2.2886,-2.294,-2.3103,-2.3198,-2.3293,-2.3293,-2.3253,-2.3225,-2.3225,-2.3225,-2.3225,-2.3225,-2.3158,-2.3103,-2.313,-2.3008,-2.29,-2.3049,-2.2846,-2.2669,-2.2778,-2.2316,-2.1828,-2.1638,-2.1353,-2.119,-2.134,-2.1285,-2.1163,-2.1014,0.0,0.0,0.0,0.0,0.0,0.0,-1.788,-1.7419,0.0,-1.7256,0.0,0.0,0.0,0.0,0.0,0.0,0.0,0.0,-1.9278,0.0,-1.9725,-2.0417,-2.0824,-2.0933,-2.1123,-2.1258,-2.1367,-2.1355,-2.1489,-2.1597,-2.1543,-2.1584,-2.1665,-2.157,-2.1516,-2.1516,-2.1584,-2.153,-2.1395,-2.157,-2.1342,-2.0877,-2.6061,-2.6129,-2.6224,-2.6522,-2.6658,-2.682,-2.716,-2.7173,-2.7282,-2.7594,-2.7431,-2.7309,-2.7336,-2.7065,0.0,-2.6807,-2.6807,-2.6807,-2.6807,-2.6807,-2.6698,-2.6454,-2.64,-2.6237,-2.5993,0.0,0.0,-2.5545,-2.4948,-2.4175,-2.3293,-2.3334,-2.3293,-2.3212,-2.3334,-2.3361,-2.3235,-2.3225,-2.3117,-2.3008,-2.29,-2.2778,-2.2712,-2.2751,-2.2818,-2.2886,-2.2981,-2.313,-2.3293,-2.3239,-2.3253,-2.3307,-2.3307,-2.3307,-2.3293,-2.3239,-2.3185,-2.3158,-2.3198,-2.3117,-2.3049,-2.3185,-2.3049,-2.2873,-2.2927,-2.2479,-2.1991,-2.1801,-2.1394,-2.1123,-2.1245,-2.1136,-2.1068,-2.1123,0.0,-2.0349,-2.001,0.0,0.0,0.0,0.0,0.0,0.0,-1.7636,0.0,0.0,0.0,0.0,0.0,0.0,0.0,-1.8776,-1.9413,0.0,-1.9902,-2.0417,-2.0729,-2.0824,-2.1041,-2.1245,-2.1368,-2.1368,-2.1489,-2.1584,-2.1475,-2.1489,-2.1584,-2.1475,-2.1368,-2.1395,-2.1543,-2.153,-2.1395,-2.1543,-2.1421,-2.1125,-2.6101,-2.6142,-2.6237,0.0,-2.659,0.0,-2.735,-2.7214,-2.7241,-2.7784,-2.7404,-2.716,-2.7417,-2.72,-2.6983,-2.6834,0.0,0.0,0.0,-2.6807,-2.6725,-2.6576,-2.6427,-2.6291,-2.6115,-2.5966,-2.583,-2.5694,-2.5111,-2.4596,-2.4161,-2.3999,-2.3904,-2.3904,-2.3754,-2.3592,-2.3397,-2.3356,-2.3253,-2.3008,-2.3008,-2.2927,-2.2778,-2.2805,-2.2886,-2.3008,-2.3008,-2.3198,-2.3356,-2.328,-2.3248,-2.3383,-2.3356,-2.3383,-2.3415,-2.328,-2.3158,-2.3063,-2.3185,-2.313,-2.3076,-2.3198,-2.3158,-2.3008,-2.2832,-2.2574,-2.2276,-2.195,-2.153,-2.1177,-2.1068,-2.0919,-2.0824,-2.096,-2.0607,-2.0282,-2.0105,0.0,0.0,0.0,0.0,0.0,0.0,-1.8028,-1.8287,0.0,0.0,0.0,0.0,0.0,-1.8952,-1.9223,-1.9657,-2.0037,-2.0286,-2.0471,-2.0539,-2.0489,-2.0878,-2.1163,-2.1421,-2.1368,-2.1368,-2.1368,-2.1368,-2.1368,-2.1368,-2.1368,-2.1368,-2.1368,-2.1395,-2.1395,-2.1368,-2.1395,-2.1353,-2.1218,0.0,0.0,-2.6359,-2.6536,-2.6685,-2.6834,-2.7105,-2.7173,-2.7241,-2.7377,-2.7377,-2.735,-2.7295,-2.7132,-2.7065,-2.7132,-2.7024,-2.6929,-2.6807,-2.6807,-2.6685,-2.6495,-2.6386,-2.6237,-2.5952,-2.5925,-2.583,-2.5694,-2.5315,-2.4948,-2.4636,-2.4365,-2.4175,-2.4053,-2.3809,-2.366,-2.3605,-2.3253,-2.3076,-2.3008,-2.3008,-2.2927,-2.2805,-2.29,-2.2981,-2.3008,-2.3008,-2.3198,-2.3356,-2.328,-2.3248,-2.3356,-2.3307,-2.3289,-2.3383,-2.3343,-2.3302,-2.3248,-2.3239,-2.328,-2.3289,-2.3302,-2.3456,-2.3415,-2.3049,-2.2723,-2.2411,-2.2113,-2.1597,-2.1272,-2.1475,-2.119,-2.0919,-2.0838,-2.0539,-2.0187,-1.982,0.0,0.0,0.0,-1.8667,-1.8531,-1.8192,-1.8464,-1.8698,0.0,0.0,0.0,0.0,-1.9332,-1.9541,-1.9549,-1.9875,-2.0187,-2.0422,-2.0462,-2.0594,-2.0716,-2.1014,-2.119,-2.1258,-2.1328,-2.1368,-2.1368,-2.1368,-2.1368,-2.1368,-2.1368,-2.1368,-2.1395,-2.157,-2.1543,-2.1395,-2.157,-2.1448,-2.1218,-2.6413,-2.6413,-2.6413,-2.6549,-2.6644,-2.682,-2.7173,-2.7187,-2.7227,-2.7417,-2.735,-2.7295,-2.735,-2.72,-2.716,-2.7157,-2.7051,-2.6929,-2.6902,-2.6834,-2.6698,-2.6468,-2.64,-2.6251,-2.6006,-2.5939,-2.583,-2.5694,-2.5464,-2.522,-2.4989,-2.4609,-2.4433,-2.4406,-2.4053,-2.3877,-2.3863,-2.347,-2.328,-2.3198,-2.313,-2.3063,-2.2995,-2.3008,-2.3049,-2.3103,-2.3022,-2.3239,-2.3524,-2.3293,-2.3361,-2.3537,-2.3456,-2.3483,-2.3578,-2.3632,-2.3605,-2.3537,-2.3456,-2.3483,-2.3551,-2.3551,-2.3605,-2.3578,-2.3185,-2.2873,-2.2547,-2.2181,-2.1692,-2.1353,-2.1448,-2.1163,-2.0838,-2.0689,-2.0471,-2.0159,-1.963,-1.9468,0.0,-1.8898,-1.8993,-1.9006,-1.8843,-1.9101,-1.9223,-1.9074,0.0,0.0,-1.9413,-1.9691,-1.9814,-1.9814,-2.0051,-2.0309,-2.0476,-2.0476,-2.0607,-2.077,-2.1001,-2.1123,-2.1123,-2.134,-2.1341,-2.134,-2.1341,-2.1368,-2.1368,-2.1368,-2.1368,-2.1435,-2.153,-2.1516,-2.1395,-2.153,-2.1421,-2.1218,-2.6481,-2.6468,-2.6427,-2.6549,-2.659,-2.678,-2.7336,-2.7187,-2.7173,-2.7539,-2.7255,-2.7119,-2.739,-2.7255,-2.7187,-2.7241,-2.6983,-2.6861,-2.6997,-2.6848,-2.6712,-2.6576,-2.6413,-2.6278,-2.6129,-2.5979,-2.5844,-2.5722,-2.5545,-2.5396,-2.5247,-2.4813,-2.465,-2.4745,-2.4311,-2.4107,-2.4039,-2.3768,-2.3551,-2.3329,-2.328,-2.3225,-2.3198,-2.3076,-2.3117,-2.3198,-2.3117,-2.3347,-2.3646,-2.3375,-2.3483,-2.3714,-2.3687,-2.37,-2.3727,-2.3863,-2.3836,-2.3768,-2.37,-2.37,-2.3714,-2.3741,-2.3754,-2.366,-2.3334,-2.3022,-2.2696,-2.2235,-2.1787,-2.1435,-2.1299,-2.1014,-2.0756,-2.0594,-2.0417,-2.0105,-1.9535,0.0,-1.9522,-1.9128,-1.9332,-1.9522,-1.9549,-1.9752,-1.978,-1.9529,-1.9752,-1.9834,0.0,-1.9922,-1.9942,-1.9942,-2.0187,-2.034,-2.0476,-2.0553,-2.0648,-2.077,-2.0946,-2.1041,-2.1041,-2.1313,-2.1367,-2.1245,-2.1328,-2.1368,-2.1368,-2.1368,-2.1368,-2.1368,-2.1368,-2.1368,-2.1368,-2.1368,-2.1353,-2.1245,-2.6386,-2.655,-2.6549,-2.6576,-2.6685,-2.6834,-2.7065,-2.7065,-2.7051,-2.7119,-2.7065,-2.7051,-2.7105,-2.6956,-2.6983,-2.7143,-2.6983,-2.682,-2.6834,-2.6698,-2.659,-2.6576,-2.6305,-2.6142,-2.6129,-2.5979,-2.5884,-2.5871,-2.5599,-2.545,-2.541,-2.4962,-2.4704,-2.4658,-2.4256,-2.3985,-2.3727,-2.3551,-2.3329,-2.3253,-2.3239,-2.3225,-2.3225,-2.3198,-2.3198,-2.3239,-2.3275,-2.351,-2.3687,-2.3632,-2.3714,-2.3836,-2.3714,-2.3768,-2.3863,-2.389,-2.4066,-2.4161,-2.3782,-2.3768,-2.389,-2.4012,-2.4053,-2.3944,-2.3451,-2.3185,-2.2846,-2.2398,-2.195,-2.1638,-2.1597,-2.1245,-2.0919,-2.0756,-2.0404,-2.001,-1.9685,0.0,-1.9644,-1.9576,-1.9759,-1.9902,-2.0173,-1.9997,-1.9956,-2.0173,-1.9997,-1.9929,-2.0037,-2.0173,-2.0254,-2.0254,-2.0246,-2.034,-2.0476,-2.0661,-2.0756,-2.077,-2.1055,-2.1177,-2.1177,-2.1353,-2.1421,-2.1341,-2.1421,-2.1368,-2.1368,-2.1368,-2.1368,-2.1368,-2.1368,-2.1368,-2.1368,-2.1368,-2.1421,-2.1341,-2.6576,-2.6644,-2.6698,-2.6698,-2.6753,-2.6861,-2.701,-2.6956,-2.6943,-2.701,-2.6956,-2.6943,-2.701,-2.6956,-2.6983,-2.7119,-2.6997,-2.6888,-2.6807,-2.6658,-2.6576,-2.6576,-2.6291,-2.6101,-2.6006,-2.5939,-2.5871,-2.5803,-2.5572,-2.5423,-2.5342,-2.4962,-2.4786,-2.4786,-2.4487,-2.4189,-2.3904,-2.3836,-2.3519,-2.3239,-2.3402,-2.3415,-2.3289,-2.3429,-2.347,-2.3483,-2.3551,-2.366,-2.3782,-2.37,-2.3768,-2.3877,-2.3822,-2.389,-2.4039,-2.4121,-2.4175,-2.4189,-2.4066,-2.4039,-2.4039,-2.4107,-2.4121,-2.4039,-2.366,-2.347,-2.3225,-2.2696,-2.2289,-2.1991,-2.1815,-2.1421,-2.1068,-2.0919,-2.058,0.0,0.0,-1.9888,-1.9929,-2.001,-2.0159,-2.0309,-2.0539,-2.0431,-2.0349,-2.0336,-2.02,-2.0159,-2.0227,-2.0295,-2.0404,-2.0566,-2.0566,-2.0648,-2.0783,-2.0865,-2.0865,-2.077,-2.1068,-2.1123,-2.0987,-2.1299,-2.1394,-2.1313,-2.1341,-2.1394,-2.1313,-2.1341,-2.1394,-2.1313,-2.1341,-2.1368,-2.1368,-2.1368,-2.1368,-2.1421,-2.6698,-2.678,-2.6807,-2.6807,-2.6807,-2.6834,-2.6956,-2.6875,-2.6834,-2.6956,-2.6875,-2.6848,-2.6956,-2.6983,-2.6983,-2.6983,-2.6983,-2.6902,-2.6766,-2.6603,-2.6536,-2.6576,-2.6332,-2.6101,-2.5898,-2.5939,-2.5871,-2.5694,-2.5532,-2.5396,-2.5155,-2.4962,-2.4894,-2.4948,-2.4718,-2.4433,-2.4121,-2.4161,-2.3836,-2.3361,-2.366,-2.37,-2.3578,-2.3714,-2.3768,-2.3727,-2.3768,-2.3822,-2.3877,-2.3809,-2.3863,-2.3944,-2.3985,-2.4053,-2.4161,-2.4351,-2.4311,-2.4229,-2.4284,-2.4202,-2.4121,-2.4121,-2.4121,-2.4053,-2.3782,-2.3687,-2.3483,-2.2995,-2.2588,-2.2276,-2.2045,-2.1597,-2.1218,-2.1068,0.0,0.0,0.0,-2.0187,-2.0241,-2.03,-2.0539,-2.0702,-2.0865,-2.0838,-2.0743,-2.0512,-2.0485,-2.0471,-2.0431,-2.0471,-2.0607,-2.0865,-2.0838,-2.0865,-2.0946,-2.1014,-2.0987,-2.0878,-2.1136,-2.1136,-2.0933,-2.1285,-2.1367,-2.1258,-2.1394,-2.1367,-2.1285,-2.1394,-2.1367,-2.1285,-2.1394,-2.1355,-2.1328,-2.1328,-2.1328,-2.1301,-2.6549,-2.6698,-2.6807,-2.6807,-2.6807,-2.6807,-2.682,-2.6807,-2.6807,-2.682,-2.6807,-2.6807,-2.682,-2.682,-2.682,-2.682,-2.682,-2.6753,-2.6603,-2.6454,-2.6427,-2.6576,-2.6427,-2.6196,-2.5898,-2.6047,-2.5966,-2.5694,-2.5532,-2.5396,-2.5233,-2.507,-2.4935,-2.4813,-2.4786,-2.4528,-2.4134,-2.4208,-2.4066,-2.3687,-2.3958,-2.3999,-2.3877,-2.4039,-2.3999,-2.389,-2.4039,-2.3999,-2.3904,-2.4053,-2.4107,-2.4121,-2.4208,-2.4229,-2.4175,-2.446,-2.4541,-2.4473,-2.4216,-2.4121,-2.4121,-2.4121,-2.4121,-2.408,-2.3904,-2.366,-2.3343,-2.3225,-2.2723,-2.2274,-2.2303,-2.1761,-2.1367,-2.1231,0.0,0.0,-2.0336,-2.0417,-2.0449,-2.0462,-2.0783,-2.1014,-2.1163,-2.1055,-2.0987,-2.0946,-2.0946,-2.0892,-2.0756,-2.0878,-2.1014,-2.1177,-2.1055,-2.0919,-2.0783,-2.1055,-2.119,-2.1177,-2.1353,-2.1341,-2.1394,-2.1421,-2.1368,-2.1421,-2.1368,-2.1368,-2.1421,-2.1368,-2.1368,-2.1421,-2.1368,-2.1353,-2.1231,-2.1231,-2.1231,-2.1218,-2.6658,-2.6766,-2.6807,-2.6807,-2.6807,-2.6807,-2.6807,-2.6807,-2.6807,-2.6807,-2.6807,-2.6807,-2.6807,-2.6807,-2.6807,-2.6807,-2.6712,-2.6644,-2.6576,-2.6346,-2.6196,-2.6169,-2.6196,-2.6115,-2.5898,-2.5952,-2.5884,-2.5694,-2.5532,-2.5396,-2.5233,-2.5084,-2.4989,-2.4935,-2.4935,-2.4745,-2.4406,-2.4568,-2.4365,-2.3985,-2.4284,-2.4311,-2.4189,-2.4338,-2.4297,-2.4114,-2.4243,-2.4161,-2.4053,-2.4107,-2.4121,-2.4134,-2.4189,-2.4297,-2.4433,-2.465,-2.4704,-2.465,-2.446,-2.4338,-2.4168,-2.4134,-2.4121,-2.4107,-2.4053,-2.3944,-2.3809,-2.3551,-2.3171,-2.2805,-2.252,-2.2221,-2.1882,-2.1543,0.0,-2.099,-2.0892,-2.0838,-2.0892,-2.1068,-2.119,-2.1299,-2.1353,-2.1218,-2.1082,-2.1001,-2.1001,-2.0987,-2.0919,-2.096,-2.1014,-2.1068,-2.1109,-2.1136,-2.119,-2.1299,-2.1299,-2.1218,-2.1367,-2.1368,-2.1368,-2.1368,-2.1489,-2.1584,-2.1475,-2.1328,-2.1299,-2.1341,-2.1328,-2.1299,-2.1341,-2.1341,-2.134,-2.1245,-2.1218,-2.119,-2.6753,-2.6807,-2.6807,-2.6807,-2.6807,-2.6807,-2.6807,-2.6807,-2.6807,-2.6807,-2.6807,-2.6807,-2.6807,-2.6807,-2.6807,-2.6807,-2.6658,-2.6549,-2.6508,-2.6224,-2.6006,-2.5898,-2.6101,-2.6101,-2.5844,-2.5925,-2.5844,-2.5627,-2.5518,-2.5396,-2.5233,-2.5084,-2.5016,-2.5016,-2.5016,-2.488,-2.465,-2.4786,-2.4636,-2.4284,-2.4582,-2.4609,-2.4514,-2.465,-2.4582,-2.4419,-2.4473,-2.4338,-2.4134,-2.4229,-2.4189,-2.4134,-2.4284,-2.4514,-2.4718,-2.4772,-2.4867,-2.488,-2.4691,-2.4568,-2.4433,-2.4243,-2.4189,-2.4175,-2.4134,-2.408,-2.3999,-2.3782,-2.351,-2.3185,-2.2832,-2.2642,-2.2411,-2.195,-2.176,-2.1597,-2.1435,-2.134,-2.1367,-2.1611,-2.1692,-2.1652,-2.1652,-2.1543,-2.1394,-2.1285,-2.1231,-2.1231,-2.1285,-2.1285,-2.1258,-2.1218,-2.1299,-2.1394,-2.1368,-2.1368,-2.1328,-2.1285,-2.1394,-2.1368,-2.1368,-2.1368,-2.1489,-2.1597,-2.1489,-2.1328,-2.1299,-2.1341,-2.1367,-2.1299,-2.1341,-2.1341,-2.1353,-2.1245,-2.1245,-2.1258,-2.6753,-2.6807,-2.6807,-2.6807,-2.6807,-2.6807,-2.6807,-2.6807,-2.6807,-2.6807,-2.6807,-2.6807,-2.6807,-2.6807,-2.6807,-2.6807,-2.6658,-2.6522,-2.6441,-2.6074,-2.5898,-2.5898,-2.6196,-2.6156,-2.5708,-2.5966,-2.5898,-2.5464,-2.5464,-2.5396,-2.5233,-2.5084,-2.5016,-2.5016,-2.5016,-2.4935,-2.4813,-2.4948,-2.484,-2.4596,-2.4894,-2.4935,-2.4813,-2.4962,-2.4826,-2.4658,-2.4745,-2.4514,-2.4175,-2.446,-2.4365,-2.4216,-2.465,-2.4894,-2.4989,-2.484,-2.5003,-2.5165,-2.488,-2.4786,-2.4718,-2.4344,-2.4276,-2.4235,-2.4161,-2.3999,-2.389,-2.389,-2.366,-2.3343,-2.3253,-2.3117,-2.2873,-2.2411,-2.2221,-2.2059,-2.1923,-2.1882,-2.195,-2.2099,-2.2249,-2.2274,-2.2274,-2.2059,-2.1882,-2.1882,-2.176,-2.1747,-2.1882,-2.1882,-2.1828,-2.1692,-2.1665,-2.1597,-2.1435,-2.1368,-2.1368,-2.1368,-2.1368,-2.1368,-2.1435,-2.1368,-2.1368,-2.1435,-2.1368,-2.1368,-2.1368,-2.1368,-2.1368,-2.1368,-2.1368,-2.1353,-2.1218,-2.1218,-2.1313,-2.1341,-2.6725,-2.6712,-2.6685,-2.678,-2.6807,-2.6807,-2.6807,-2.6807,-2.6807,-2.6807,-2.6807,-2.6807,-2.6807,-2.6807,-2.6807,-2.6807,-2.6658,-2.6468,-2.6224,-2.6115,-2.6006,-2.5898,-2.5993,-2.5939,-2.5694,-2.5776,-2.5762,-2.5627,-2.5518,-2.545,-2.5396,-2.5233,-2.5111,-2.5016,-2.5016,-2.5003,-2.4948,-2.5003,-2.4962,-2.4894,-2.4989,-2.4989,-2.4948,-2.5003,-2.4894,-2.4718,-2.4772,-2.4636,-2.4446,-2.4604,-2.4514,-2.4473,-2.4718,-2.4962,-2.5125,-2.4867,-2.5003,-2.5165,-2.488,-2.4867,-2.4867,-2.4384,-2.4256,-2.4175,-2.4134,-2.408,-2.4012,-2.3904,-2.3822,-2.3687,-2.3356,-2.3429,-2.3334,-2.2886,-2.2764,-2.2656,-2.2398,-2.2357,-2.2371,-2.2481,-2.2547,-2.2601,-2.2506,-2.2411,-2.2303,-2.2221,-2.2167,-2.2113,-2.2045,-2.214,-2.2181,-2.214,-2.2045,-2.195,-2.1923,-2.1706,-2.1597,-2.1597,-2.1706,-2.1815,-2.1896,-2.1692,-2.172,-2.1896,-2.1517,-2.1489,-2.1597,-2.1489,-2.1368,-2.1395,-2.157,-2.1516,-2.1367,-2.1367,-2.134,-2.1258,-2.682,-2.6766,-2.6712,-2.6875,-2.6834,-2.6807,-2.6807,-2.6807,-2.6807,-2.6807,-2.6807,-2.6807,-2.6807,-2.6807,-2.6807,-2.6807,-2.6603,-2.6413,-2.6237,-2.6115,-2.6006,-2.5898,-2.5898,-2.583,-2.5694,-2.5694,-2.5654,-2.5599,-2.5518,-2.5464,-2.5464,-2.5247,-2.5125,-2.5111,-2.5043,-2.5016,-2.5016,-2.5016,-2.5016,-2.5016,-2.5016,-2.5016,-2.5016,-2.5016,-2.4962,-2.488,-2.488,-2.4786,-2.4663,-2.4786,-2.4867,-2.4998,-2.4948,-2.5125,-2.5274,-2.5043,-2.5138,-2.5247,-2.4962,-2.4894,-2.484,-2.4514,-2.4406,-2.4351,-2.4243,-2.4202,-2.4189,-2.408,-2.4039,-2.3904,-2.366,-2.3754,-2.3727,-2.3347,-2.328,-2.3185,-2.294,-2.2859,-2.2818,-2.2818,-2.29,-2.294,-2.29,-2.2751,-2.2588,-2.2425,-2.2479,-2.2479,-2.2371,-2.2411,-2.2425,-2.2425,-2.2289,-2.2194,-2.2194,-2.2072,-2.1937,-2.176,-2.1964,-2.2045,-2.2018,-2.1896,-2.1923,-2.2004,-2.1665,-2.1584,-2.1652,-2.1516,-2.1368,-2.1395,-2.1543,-2.157,-2.153,-2.1462,-2.1462,-2.1462,-2.6943,-2.6888,-2.6834,-2.6983,-2.6888,-2.6807,-2.6807,-2.6807,-2.6807,-2.6807,-2.6807,-2.6807,-2.6807,-2.6807,-2.6807,-2.6807,-2.6536,-2.6441,-2.6346,-2.6074,-2.5925,-2.5898,-2.5884,-2.5817,-2.5708,-2.5694,-2.5627,-2.5464,-2.5477,-2.5556,-2.5477,-2.522,-2.5125,-2.5155,-2.5084,-2.5043,-2.5016,-2.5016,-2.5016,-2.5016,-2.5016,-2.5016,-2.5016,-2.5043,-2.5043,-2.5016,-2.5057,-2.4962,-2.488,-2.5165,-2.5355,-2.5464,-2.5301,-2.5369,-2.5464,-2.5287,-2.5342,-2.5396,-2.5111,-2.4921,-2.4772,-2.4672,-2.4691,-2.4745,-2.4344,-2.4276,-2.4276,-2.4276,-2.4168,-2.408,-2.3944,-2.4039,-2.4039,-2.3768,-2.37,-2.3632,-2.3483,-2.3334,-2.3225,-2.3239,-2.3253,-2.3307,-2.3356,-2.3063,-2.2751,-2.2658,-2.271,-2.2778,-2.2764,-2.2656,-2.2658,-2.2658,-2.2452,-2.2329,-2.2398,-2.2534,-2.2371,-2.195,-2.2235,-2.2235,-2.1977,-2.2072,-2.2059,-2.1937,-2.176,-2.1706,-2.1706,-2.1543,-2.1409,-2.1475,-2.1489,-2.157,-2.1652,-2.153,-2.1638,-2.1815,-2.678,-2.6725,-2.6685,-2.682,-2.682,-2.6807,-2.6807,-2.6807,-2.6807,-2.6807,-2.6807,-2.6807,-2.6807,-2.6807,-2.6807,-2.6807,-2.6631,-2.6427,-2.6196,-2.6115,-2.602,-2.5898,-2.5667,-2.5654,-2.5844,-2.5749,-2.5627,-2.5464,-2.5586,-2.564,-2.564,-2.5572,-2.5423,-2.5233,-2.5192,-2.5125,-2.5016,-2.5016,-2.5016,-2.5016,-2.5016,-2.5016,-2.5043,-2.5138,-2.5111,-2.5057,-2.5287,-2.5274,-2.5165,-2.5355,-2.5518,-2.5627,-2.5464,-2.5586,-2.5722,-2.5342,-2.5342,-2.5396,-2.5111,-2.5003,-2.4894,-2.4636,-2.4772,-2.4867,-2.4433,-2.4276,-2.4276,-2.4276,-2.4311,-2.4181,-2.4107,-2.4107,-2.4107,-2.4039,-2.3836,-2.366,-2.3632,-2.3402,-2.328,-2.3302,-2.351,-2.3537,-2.3383,-2.3158,-2.29,-2.2751,-2.2873,-2.2846,-2.2628,-2.2805,-2.29,-2.29,-2.2764,-2.2751,-2.2873,-2.2886,-2.2751,-2.2481,-2.2601,-2.2656,-2.2588,-2.2371,-2.2344,-2.2467,-2.2004,-2.1896,-2.2004,-2.1842,-2.1787,-2.1787,-2.1923,-2.1842,-2.1692,-2.176,-2.1692,-2.1543,-2.6875,-2.678,-2.6725,-2.6888,-2.6848,-2.6807,-2.6807,-2.6807,-2.6807,-2.6807,-2.6807,-2.6807,-2.6807,-2.6725,-2.6658,-2.659,-2.6522,-2.6413,-2.6251,-2.6169,-2.6061,-2.5898,-2.5762,-2.5667,-2.5694,-2.5762,-2.5722,-2.5572,-2.5654,-2.5654,-2.5586,-2.5518,-2.5396,-2.5233,-2.5165,-2.5084,-2.5016,-2.5016,-2.5016,-2.5016,-2.5016,-2.5057,-2.5125,-2.5192,-2.5287,-2.5355,-2.5423,-2.5464,-2.5464,-2.5545,-2.5667,-2.5776,-2.5694,-2.5776,-2.5844,-2.5532,-2.5464,-2.541,-2.5179,-2.5016,-2.488,-2.4704,-2.4745,-2.4745,-2.4514,-2.4514,-2.4541,-2.4473,-2.4406,-2.4297,-2.4161,-2.4121,-2.4121,-2.4121,-2.3931,-2.3782,-2.3782,-2.3524,-2.3375,-2.3537,-2.351,-2.3429,-2.3347,-2.3198,-2.3049,-2.29,-2.29,-2.2873,-2.2778,-2.2846,-2.2954,-2.3103,-2.2981,-2.2954,-2.3117,-2.3117,-2.3022,-2.2873,-2.2954,-2.2886,-2.2683,-2.2588,-2.252,-2.2425,-2.2127,-2.2045,-2.2099,-2.195,-2.1882,-2.1882,-2.1977,-2.1896,-2.1774,-2.1774,-2.1638,-2.1395,-2.6929,-2.6848,-2.682,-2.6956,-2.6888,-2.678,-2.6766,-2.6766,-2.6766,-2.6766,-2.6766,-2.6766,-2.6766,-2.6631,-2.6481,-2.6332,-2.6359,-2.6373,-2.6332,-2.6251,-2.6129,-2.5952,-2.5884,-2.5762,-2.5545,-2.5722,-2.5776,-2.5694,-2.5708,-2.5654,-2.5532,-2.5369,-2.5301,-2.526,-2.5125,-2.5043,-2.5016,-2.5016,-2.5043,-2.5057,-2.5057,-2.5138,-2.526,-2.526,-2.5423,-2.564,-2.5532,-2.5599,-2.5722,-2.5722,-2.5803,-2.5898,-2.5898,-2.5898,-2.5884,-2.5762,-2.5627,-2.5477,-2.5342,-2.5098,-2.4867,-2.484,-2.4745,-2.4636,-2.4582,-2.4691,-2.4758,-2.4636,-2.4514,-2.4365,-2.4189,-2.4161,-2.4161,-2.4121,-2.3985,-2.3863,-2.3863,-2.3592,-2.347,-2.3632,-2.3402,-2.3198,-2.3185,-2.3171,-2.3076,-2.294,-2.2873,-2.2846,-2.2927,-2.2873,-2.294,-2.3185,-2.3063,-2.3076,-2.3225,-2.3225,-2.3225,-2.3225,-2.3225,-2.3022,-2.2683,-2.2778,-2.2696,-2.2369,-2.2276,-2.2181,-2.2181,-2.2018,-2.195,-2.195,-2.195,-2.1937,-2.1869,-2.1692,-2.1543,-2.1368,-2.6603,-2.6631,-2.6658,-2.6807,-2.682,-2.6753,-2.6631,-2.6603,-2.6603,-2.6603,-2.6603,-2.6603,-2.6603,-2.655,-2.6332,-2.6183,-2.64,-2.6427,-2.6183,-2.6373,-2.64,-2.6115,-2.5844,-2.5762,-2.5844,-2.564,-2.5586,-2.5694,-2.5817,-2.5871,-2.583,-2.5694,-2.5545,-2.5423,-2.5274,-2.5138,-2.5016,-2.5016,-2.5084,-2.5192,-2.5192,-2.5301,-2.5423,-2.5423,-2.5464,-2.5518,-2.5627,-2.5749,-2.5871,-2.5871,-2.5884,-2.5898,-2.5898,-2.5898,-2.5898,-2.5884,-2.5776,-2.5654,-2.564,-2.541,-2.5138,-2.5016,-2.4962,-2.4894,-2.4623,-2.4691,-2.4786,-2.4758,-2.4745,-2.465,-2.4365,-2.4235,-2.4208,-2.4134,-2.389,-2.3714,-2.3714,-2.3456,-2.3307,-2.3397,-2.3334,-2.3171,-2.3049,-2.2927,-2.2778,-2.2698,-2.2832,-2.2873,-2.2698,-2.2846,-2.2995,-2.3049,-2.3022,-2.3076,-2.3225,-2.3225,-2.3225,-2.3225,-2.3225,-2.3185,-2.313,-2.3022,-2.2954,-2.29,-2.2628,-2.2506,-2.2549,-2.2344,-2.2276,-2.2276,-2.2276,-2.2113,-2.1842,-2.1584,-2.1395,-2.1368,-2.6454,-2.6454,-2.6508,-2.6644,-2.6603,-2.6549,-2.6576,-2.6508,-2.6454,-2.6454,-2.6454,-2.6481,-2.6576,-2.6454,-2.6278,-2.602,-2.6196,-2.6278,-2.6129,-2.6251,-2.6278,-2.6129,-2.5844,-2.5722,-2.5776,-2.5654,-2.5627,-2.5694,-2.583,-2.5817,-2.5654,-2.5586,-2.545,-2.522,-2.5138,-2.507,-2.5016,-2.5111,-2.5179,-2.5233,-2.5315,-2.545,-2.5586,-2.5586,-2.564,-2.5708,-2.5776,-2.5844,-2.5898,-2.5898,-2.5898,-2.5898,-2.5898,-2.5898,-2.5898,-2.5898,-2.5749,-2.5586,-2.5667,-2.541,-2.5125,-2.5125,-2.507,-2.4962,-2.4745,-2.4813,-2.4867,-2.4704,-2.4596,-2.4528,-2.4473,-2.4338,-2.4189,-2.4134,-2.3877,-2.3646,-2.3551,-2.3361,-2.3239,-2.3307,-2.3275,-2.3293,-2.3144,-2.2995,-2.2846,-2.2696,-2.2805,-2.2818,-2.2696,-2.2886,-2.3049,-2.313,-2.313,-2.3158,-2.3225,-2.3225,-2.3225,-2.3225,-2.3225,-2.3185,-2.3103,-2.3049,-2.2954,-2.2873,-2.2712,-2.2617,-2.2603,-2.2398,-2.2274,-2.2274,-2.2274,-2.2194,-2.1991,-2.176,-2.1638,-2.1584]},{"header":{"parameterUnit":"m.s-1","parameterCategory":1,"la1":30.6,"la2":28.766,"lo1":-90.7593,"lo2":-88.6598,"dy":0.0162,"dx":0.0183,"nx":116,"ny":114,"refTime":"2024-06-17T18:00:00:Z","depth":0,"parameterNumber":3,"parameterNumberName":"V-component_of_WINDS"},"data":[0.0,0.0,0.0,0.0,0.0,0.0,0.0,0.0,0.0,0.0,0.0,0.0,0.0,0.0,0.0,0.0,0.0,0.0,0.0,0.0,0.0,0.0,0.0,0.0,0.0,0.0,0.0,0.0,0.0,0.0,0.0,0.0,0.0,0.0,0.0,0.0,0.0,0.0,0.0,0.0,0.0,0.0,0.0,0.0,0.0,0.0,0.0,0.0,0.0,0.0,0.0,0.0,0.0,0.0,0.0,0.0,0.0,0.0,0.0,0.0,0.0,0.0,0.0,0.0,0.0,0.0,0.0,0.0,0.0,0.0,0.0,0.0,0.0,0.0,0.0,0.0,0.0,0.0,0.0,0.0,0.0,0.0,0.0,0.0,0.0,0.0,0.0,0.0,0.0,0.0,0.0,0.0,0.0,0.0,0.0,0.0,0.0,0.0,0.0,0.0,0.0,0.0,0.0,0.0,0.0,0.0,0.0,0.0,0.0,0.0,0.0,0.0,0.0,0.0,0.0,0.0,0.0,0.0,0.0,0.0,0.0,0.0,0.0,0.0,0.0,0.0,0.0,0.0,0.0,0.0,0.0,0.0,0.0,0.0,0.0,0.0,0.0,0.0,0.0,0.0,0.0,0.0,0.0,0.0,0.0,0.0,0.0,0.0,0.0,0.0,0.0,0.0,0.0,0.0,0.0,0.0,0.0,0.0,0.0,0.0,0.0,0.0,0.0,0.0,0.0,0.0,0.0,0.0,0.0,0.0,0.0,0.0,0.0,0.0,0.0,0.0,0.0,0.0,0.0,0.0,0.0,0.0,0.0,0.0,0.0,0.0,0.0,0.0,0.0,0.0,0.0,0.0,0.0,0.0,0.0,0.0,0.0,0.0,0.0,0.0,0.0,0.0,0.0,0.0,0.0,0.0,0.0,0.0,0.0,0.0,0.0,0.0,0.0,0.0,0.0,0.0,0.0,0.0,0.0,0.0,0.0,0.0,0.0,0.0,0.0,0.0,0.0,0.0,0.0,0.0,0.0,0.0,0.0,0.0,0.0,0.0,0.0,0.0,0.0,0.0,0.0,0.0,0.0,0.0,0.0,0.0,0.0,0.0,0.0,0.0,0.0,0.0,0.0,0.0,0.0,0.0,0.0,0.0,0.0,0.0,0.0,0.0,0.0,0.0,0.0,0.0,0.0,0.0,0.0,0.0,0.0,0.0,0.0,0.0,0.0,0.0,0.0,0.0,0.0,0.0,0.0,0.0,0.0,0.0,0.0,0.0,0.0,0.0,0.0,0.0,0.0,0.0,0.0,0.0,0.0,0.0,0.0,0.0,0.0,0.0,0.0,0.0,0.0,0.0,0.0,0.0,0.0,0.0,0.0,0.0,0.0,0.0,0.0,0.0,0.0,0.0,0.0,0.0,0.0,0.0,0.0,0.0,0.0,0.0,0.0,0.0,0.0,0.0,0.0,0.0,0.0,0.0,0.0,0.0,0.0,0.0,0.0,0.0,0.0,0.0,0.0,0.0,0.0,0.0,0.0,0.0,0.0,0.0,0.0,0.0,0.0,0.0,0.0,0.0,0.0,0.0,0.0,0.0,0.0,0.0,0.0,0.0,0.0,0.0,0.0,0.0,0.0,0.0,0.0,0.0,0.0,0.0,0.0,0.0,0.0,0.0,0.0,0.0,0.0,0.0,0.0,0.0,0.0,0.0,0.0,0.0,0.0,0.0,0.0,0.0,0.0,0.0,0.0,0.0,0.0,0.0,0.0,0.0,0.0,0.0,0.0,0.0,0.0,0.0,0.0,0.0,0.0,0.0,0.0,0.0,0.0,0.0,0.0,0.0,0.0,0.0,0.0,0.0,0.0,0.0,0.0,0.0,0.0,0.0,0.0,0.0,0.0,0.0,0.0,0.0,0.0,0.0,0.0,0.0,0.0,0.0,0.0,0.0,0.0,0.0,0.0,0.0,0.0,0.0,0.0,0.0,0.0,0.0,0.0,0.0,0.0,0.0,0.0,0.0,0.0,0.0,0.0,0.0,0.0,0.0,0.0,0.0,0.0,0.0,0.0,0.0,0.0,0.0,0.0,0.0,0.0,0.0,0.0,0.0,0.0,0.0,0.0,0.0,0.0,0.0,0.0,0.0,0.0,0.0,0.0,0.0,0.0,0.0,0.0,0.0,0.0,0.0,0.0,0.0,0.0,0.0,0.0,0.0,0.0,0.0,0.0,0.0,0.0,0.0,0.0,0.0,0.0,0.0,0.0,0.0,0.0,0.0,0.0,0.0,0.0,0.0,0.0,0.0,0.0,0.0,0.0,0.0,0.0,0.0,0.0,0.0,0.0,0.0,0.0,0.0,0.0,0.0,0.0,0.0,0.0,0.0,0.0,0.0,0.0,0.0,0.0,0.0,0.0,0.0,0.0,0.0,0.0,0.0,0.0,0.0,0.0,0.0,0.0,0.0,0.0,0.0,0.0,0.0,0.0,0.0,0.0,0.0,0.0,0.0,0.0,0.0,0.0,0.0,0.0,0.0,0.0,0.0,0.0,0.0,0.0,0.0,0.0,0.0,0.0,0.0,0.0,0.0,0.0,0.0,0.0,0.0,0.0,0.0,0.0,0.0,0.0,0.0,0.0,0.0,0.0,0.0,0.0,0.0,0.0,0.0,0.0,0.0,0.0,0.0,0.0,0.0,0.0,0.0,0.0,0.0,0.0,0.0,0.0,0.0,0.0,0.0,0.0,0.0,0.0,0.0,0.0,0.0,0.0,0.0,0.0,0.0,0.0,0.0,0.0,0.0,0.0,0.0,0.0,0.0,0.0,0.0,0.0,0.0,0.0,0.0,0.0,0.0,0.0,0.0,0.0,0.0,0.0,0.0,0.0,0.0,0.0,0.0,0.0,0.0,0.0,0.0,0.0,0.0,0.0,0.0,0.0,0.0,0.0,0.0,0.0,0.0,0.0,0.0,0.0,0.0,0.0,0.0,0.0,0.0,0.0,0.0,0.0,0.0,0.0,0.0,0.0,0.0,0.0,0.0,0.0,0.0,0.0,0.0,0.0,0.0,0.0,0.0,0.0,0.0,0.0,0.0,0.0,0.0,0.0,0.0,0.0,0.0,0.0,0.0,0.0,0.0,0.0,0.0,0.0,0.0,0.0,0.0,0.0,0.0,0.0,0.0,0.0,0.0,0.0,0.0,0.0,0.0,0.0,0.0,0.0,0.0,0.0,0.0,0.0,0.0,0.0,0.0,0.0,0.0,0.0,0.0,0.0,0.0,0.0,0.0,0.0,0.0,0.0,0.0,0.0,0.0,0.0,0.0,0.0,0.0,0.0,0.0,0.0,0.0,0.0,0.0,0.0,0.0,0.0,0.0,0.0,0.0,0.0,0.0,0.0,0.0,0.0,0.0,0.0,0.0,0.0,0.0,0.0,0.0,0.0,0.0,0.0,0.0,0.0,0.0,0.0,0.0,0.0,0.0,0.0,0.0,0.0,0.0,0.0,0.0,0.0,0.0,0.0,0.0,0.0,0.0,0.0,0.0,0.0,0.0,0.0,0.0,0.0,0.0,0.0,0.0,0.0,0.0,0.0,0.0,0.0,0.0,0.0,0.0,0.0,0.0,0.0,0.0,0.0,0.0,0.0,0.0,0.0,0.0,0.0,0.0,0.0,0.0,0.0,0.0,0.0,0.0,0.0,0.0,0.0,0.0,0.0,0.0,0.0,0.0,0.0,0.0,0.0,0.0,0.0,0.0,0.0,0.0,0.0,0.0,0.0,0.0,0.0,0.0,0.0,0.0,0.0,0.0,0.0,0.0,0.0,0.0,0.0,0.0,0.0,0.0,0.0,0.0,0.0,0.0,0.0,0.0,0.0,0.0,0.0,0.0,0.0,0.0,0.0,0.0,0.0,0.0,0.0,0.0,0.0,0.0,0.0,0.0,0.0,0.0,0.0,0.0,0.0,0.0,0.0,0.0,0.0,0.0,0.0,0.0,0.0,0.0,0.0,0.0,0.0,0.0,0.0,0.0,0.0,0.0,0.0,0.0,0.0,0.0,0.0,0.0,0.0,0.0,0.0,0.0,0.0,0.0,0.0,0.0,0.0,0.0,0.0,0.0,0.0,0.0,0.0,0.0,0.0,0.0,0.0,0.0,0.0,0.0,0.0,0.0,0.0,0.0,0.0,0.0,0.0,0.0,0.0,0.0,0.0,0.0,0.0,0.0,0.0,0.0,0.0,0.0,0.0,0.0,0.0,0.0,0.0,0.0,0.0,0.0,0.0,0.0,0.0,0.0,0.0,0.0,0.0,0.0,0.0,0.0,0.0,0.0,0.0,0.0,0.0,0.0,0.0,0.0,0.0,0.0,0.0,0.0,0.0,0.0,0.0,0.0,0.0,0.0,0.0,0.0,0.0,0.0,0.0,0.0,0.0,0.0,0.0,0.0,0.0,0.0,0.0,0.0,0.0,0.0,0.0,0.0,0.0,0.0,0.0,0.0,0.0,0.0,0.0,0.0,0.0,0.0,0.0,0.0,0.0,0.0,0.0,0.0,0.0,0.0,0.0,0.0,0.0,0.0,0.0,0.0,0.0,0.0,0.0,0.0,0.0,0.0,0.0,0.0,0.0,0.0,0.0,0.0,0.0,0.0,0.0,0.0,0.0,0.0,0.0,0.0,0.0,0.0,0.0,0.0,0.0,0.0,0.0,0.0,0.0,0.0,0.0,0.0,0.0,0.0,0.0,0.0,0.0,0.0,0.0,0.0,0.0,0.0,0.0,0.0,0.0,0.0,0.0,0.0,0.0,0.0,0.0,0.0,0.0,0.0,0.0,0.0,0.0,0.0,0.0,0.0,0.0,0.0,0.0,0.0,0.0,0.0,0.0,0.0,0.0,0.0,0.0,0.0,0.0,0.0,0.0,0.0,0.0,0.0,0.0,0.0,0.0,0.0,0.0,0.0,0.0,0.0,0.0,0.0,0.0,0.0,0.0,0.0,0.0,0.0,0.0,0.0,0.0,0.0,0.0,0.0,0.0,0.0,0.0,0.0,0.0,0.0,0.0,0.0,0.0,0.0,0.0,0.0,0.0,0.0,0.0,0.0,0.0,0.0,0.0,0.0,0.0,0.0,0.0,0.0,0.0,0.0,0.0,0.0,0.0,0.0,0.0,0.0,0.0,0.0,0.0,0.0,0.0,0.0,0.0,0.0,0.0,0.0,0.0,0.0,0.0,0.0,0.0,0.0,0.0,0.0,0.0,0.0,0.0,0.0,0.0,0.0,0.0,0.0,0.0,0.0,0.0,0.0,0.0,0.0,0.0,0.0,0.0,0.0,0.0,0.0,0.0,0.0,0.0,0.0,0.0,0.0,0.0,0.0,0.0,0.0,0.0,0.0,0.0,0.0,0.0,0.0,0.0,0.0,0.0,0.0,0.0,0.0,0.0,0.0,0.0,0.0,0.0,0.0,0.0,0.0,0.0,0.0,0.0,0.0,0.0,0.0,0.0,0.0,0.0,0.0,0.0,0.0,0.0,0.0,0.0,0.0,0.0,0.0,0.0,0.0,0.0,0.0,0.0,0.0,0.0,0.0,0.0,0.0,0.0,0.0,0.0,0.0,0.0,0.0,0.0,0.0,0.0,0.0,0.0,0.0,0.0,0.0,0.0,0.0,0.0,0.0,0.0,0.0,0.0,0.0,0.0,0.0,0.0,0.0,0.0,0.0,0.0,0.0,0.0,0.0,0.0,0.0,0.0,0.0,0.0,0.0,0.0,0.0,0.0,0.0,0.0,0.0,0.0,0.0,0.0,0.0,0.0,0.0,0.0,0.0,0.0,0.0,0.0,0.0,0.0,0.0,0.0,0.0,0.0,0.0,0.0,0.0,0.0,0.0,0.0,0.0,0.0,0.0,0.0,0.0,0.0,0.0,0.0,0.0,0.0,0.0,0.0,0.0,0.0,0.0,0.0,0.0,0.0,0.0,0.0,0.0,0.0,0.0,0.0,0.0,0.0,0.0,0.0,0.0,0.0,0.0,0.0,0.0,0.0,0.0,0.0,0.0,0.0,0.0,0.0,0.0,0.0,0.0,0.0,0.0,0.0,0.0,0.0,0.0,0.0,0.0,7.0777,0.0,0.0,0.0,0.0,0.0,0.0,0.0,0.0,0.0,0.0,0.0,0.0,0.0,0.0,0.0,0.0,0.0,0.0,0.0,0.0,0.0,0.0,0.0,0.0,7.4938,7.663,7.8323,7.8477,7.8631,7.9092,7.8323,7.763,7.7246,7.6015,7.4707,7.3399,7.3399,7.3322,7.3322,7.3783,7.4168,7.456,7.4091,7.1699,6.7705,0.0,0.0,0.0,0.0,0.0,0.0,0.0,0.0,0.0,0.0,0.0,0.0,0.0,0.0,0.0,0.0,0.0,0.0,0.0,0.0,0.0,0.0,0.0,0.0,0.0,0.0,0.0,0.0,0.0,0.0,0.0,0.0,0.0,0.0,0.0,0.0,0.0,0.0,0.0,0.0,0.0,0.0,0.0,0.0,0.0,0.0,0.0,0.0,0.0,0.0,0.0,0.0,0.0,0.0,0.0,0.0,0.0,0.0,0.0,0.0,0.0,0.0,0.0,0.0,0.0,0.0,0.0,0.0,0.0,0.0,0.0,7.3716,0.0,0.0,0.0,0.0,0.0,0.0,0.0,0.0,0.0,0.0,0.0,0.0,0.0,0.0,0.0,0.0,0.0,0.0,0.0,0.0,0.0,7.0391,7.4469,7.663,7.8784,8.1554,8.1631,8.1631,8.1785,8.0785,7.9862,7.9023,7.8176,7.7015,7.5399,7.6245,7.663,7.663,7.7707,7.8561,7.9408,7.9939,7.7246,7.1783,6.9629,0.0,0.0,0.0,0.0,0.0,0.0,0.0,0.0,0.0,0.0,0.0,0.0,0.0,0.0,0.0,0.0,0.0,0.0,0.0,0.0,0.0,0.0,0.0,0.0,0.0,0.0,0.0,0.0,0.0,0.0,0.0,0.0,0.0,0.0,0.0,0.0,0.0,0.0,0.0,0.0,0.0,0.0,0.0,0.0,0.0,0.0,0.0,0.0,0.0,0.0,0.0,0.0,0.0,0.0,0.0,0.0,0.0,0.0,0.0,0.0,0.0,0.0,0.0,8.7243,8.7702,8.8694,8.74,8.744,8.8173,8.1147,7.8889,8.0106,7.7568,0.0,0.0,0.0,0.0,0.0,0.0,0.0,0.0,0.0,0.0,0.0,0.0,0.0,0.0,0.0,0.0,0.0,0.0,0.0,7.1937,7.5476,7.8015,8.0777,8.4085,8.3708,8.3555,8.4316,8.2862,8.1631,8.0785,7.9939,7.9015,7.8023,7.8861,7.9315,7.9315,8.0862,8.2093,8.2947,8.2247,8.1477,8.0477,7.6553,7.4322,7.3322,0.0,0.0,0.0,0.0,0.0,0.0,0.0,0.0,0.0,0.0,0.0,0.0,0.0,0.0,0.0,0.0,0.0,0.0,0.0,0.0,0.0,0.0,0.0,0.0,0.0,0.0,0.0,0.0,0.0,0.0,0.0,0.0,0.0,0.0,0.0,0.0,0.0,0.0,0.0,0.0,0.0,7.9204,8.0351,0.0,0.0,0.0,0.0,0.0,0.0,0.0,0.0,0.0,0.0,0.0,0.0,0.0,9.0131,8.9977,9.2048,9.1702,8.8975,9.1481,9.1642,8.9722,8.9491,8.9903,9.0639,8.8809,0.0,8.5531,8.3752,0.0,0.0,0.0,0.0,0.0,0.0,0.0,0.0,0.0,0.0,0.0,0.0,0.0,0.0,0.0,0.0,0.0,0.0,0.0,0.0,0.0,8.0708,8.3324,8.6709,8.7094,8.6863,8.6324,8.5555,8.4555,8.3324,8.2401,8.1554,8.0631,8.1939,8.317,8.4093,8.6247,8.7248,8.7171,8.7786,8.7786,8.7171,8.4401,8.0554,7.5938,7.2552,0.0,0.0,0.0,0.0,0.0,0.0,0.0,0.0,0.0,0.0,0.0,0.0,0.0,0.0,0.0,0.0,0.0,0.0,0.0,0.0,0.0,0.0,0.0,0.0,0.0,0.0,0.0,0.0,0.0,0.0,0.0,0.0,0.0,0.0,0.0,0.0,0.0,0.0,0.0,8.3824,8.6298,8.6932,8.7537,8.784,0.0,0.0,0.0,0.0,0.0,0.0,0.0,0.0,0.0,9.5119,9.5893,9.602,9.5368,9.6761,9.7007,9.6009,9.6405,9.648,9.624,9.5326,9.5403,9.6172,9.5249,9.4089,9.2469,8.8116,8.6046,8.5364,0.0,0.0,0.0,0.0,8.1187,8.0662,0.0,0.0,0.0,0.0,0.0,0.0,0.0,0.0,0.0,0.0,0.0,0.0,8.1246,8.3247,8.564,8.9017,8.9479,8.9171,8.8094,8.7632,8.6709,8.5239,8.4401,8.3632,8.3016,8.4863,8.6786,8.8709,9.0787,9.1633,9.1248,9.2556,9.2633,9.1787,9.0325,8.6179,7.9946,7.633,7.3322,7.0706,0.0,0.0,0.0,0.0,0.0,0.0,0.0,0.0,0.0,0.0,0.0,0.0,0.0,0.0,0.0,0.0,0.0,0.0,0.0,0.0,0.0,0.0,0.0,0.0,0.0,0.0,0.0,0.0,0.0,0.0,0.0,0.0,0.0,0.0,0.0,0.0,0.0,8.9488,9.1702,9.247,9.2672,9.2623,0.0,0.0,0.0,0.0,0.0,0.0,9.7159,9.9328,10.0671,10.0989,10.1318,10.1011,10.0096,10.0712,10.1096,10.1317,10.0481,10.0481,10.1327,10.0019,9.9712,10.0106,9.9413,9.8634,9.7385,9.197,8.9724,8.9307,8.6834,8.5484,8.5026,8.6331,8.5996,8.5312,0.0,0.0,0.0,0.0,0.0,0.0,0.0,0.0,0.0,0.0,0.0,7.9561,8.3101,8.4939,8.7325,9.0787,8.9633,8.9017,8.9701,8.8248,8.7017,8.6094,8.5239,8.4777,8.4777,8.7248,8.9718,9.2249,9.3172,9.395,9.472,9.4797,9.4412,9.3557,9.271,9.071,8.7872,8.3555,8.0323,7.7715,7.4399,0.0,0.0,0.0,0.0,0.0,0.0,0.0,0.0,0.0,0.0,0.0,0.0,0.0,0.0,0.0,0.0,0.0,0.0,0.0,0.0,0.0,0.0,0.0,0.0,0.0,0.0,0.0,0.0,0.0,0.0,0.0,0.0,0.0,0.0,0.0,0.0,0.0,0.0,9.4615,9.649,0.0,0.0,0.0,0.0,9.607,10.0668,10.3811,10.4117,10.5517,10.6196,10.5969,10.4528,10.3692,10.3635,10.3712,10.2866,10.1317,10.2866,10.2789,10.1317,10.1164,10.0789,10.0106,10.0106,9.9567,9.8481,9.5778,9.4321,9.3786,9.2837,9.2124,9.1795,9.2301,9.1003,8.9011,0.0,0.0,0.0,6.7398,6.7321,6.7943,7.0475,7.186,7.3476,7.6015,7.9561,8.287,8.5717,8.8017,9.0325,9.2633,9.2249,9.1556,9.0778,8.9171,8.8325,8.8547,8.7248,8.7555,8.971,9.071,9.2095,9.4104,9.6019,9.6865,9.6634,9.7797,9.7797,9.6942,9.6095,9.5172,9.3941,8.694,8.2785,8.0631,7.7323,7.4553,0.0,0.0,0.0,0.0,0.0,0.0,0.0,0.0,0.0,0.0,0.0,0.0,0.0,0.0,0.0,0.0,0.0,0.0,0.0,0.0,0.0,0.0,0.0,0.0,0.0,0.0,0.0,0.0,0.0,0.0,0.0,0.0,0.0,0.0,0.0,0.0,0.0,10.1337,10.213,0.0,10.128,10.1817,10.239,10.2731,10.512,10.6721,10.7324,10.8882,10.9771,10.9703,10.9098,10.8482,10.8031,10.8031,10.7405,10.6174,10.5713,10.5174,10.4472,10.3482,10.2789,10.2491,10.1404,10.0712,10.0327,9.8875,9.7481,9.6116,9.4196,9.4031,9.4697,9.3764,9.3208,9.2852,0.0,0.0,0.0,6.7321,6.7552,6.8475,7.1321,7.3245,7.5399,7.8169,8.2255,8.5871,8.8402,9.0941,9.2941,9.4027,9.3864,9.3095,9.171,9.0017,8.9325,8.9855,8.9402,9.0325,9.2864,9.4018,9.5326,9.672,9.8942,9.9788,9.925,10.0404,10.0481,9.9635,9.9019,9.8634,9.8019,9.2095,8.794,8.5016,8.1939,7.9708,7.7931,0.0,0.0,0.0,0.0,0.0,0.0,0.0,0.0,0.0,0.0,0.0,0.0,0.0,0.0,0.0,0.0,0.0,0.0,0.0,0.0,0.0,0.0,0.0,0.0,0.0,0.0,0.0,0.0,0.0,0.0,0.0,0.0,0.0,0.0,10.2327,10.4636,10.6559,10.7328,10.7559,10.7328,10.7021,10.7098,10.7636,10.9021,11.0329,11.1406,11.2637,11.333,11.3626,11.2791,11.2099,11.1483,11.0868,11.0175,10.9329,10.8175,10.7405,10.679,10.5713,10.4866,10.4174,10.3097,10.2327,10.1712,10.1173,10.0096,9.8634,9.6942,9.6634,9.7019,9.5865,9.5412,9.5326,0.0,0.0,0.0,6.793,6.8391,6.9545,7.3007,7.4938,7.7246,8.0708,8.4863,8.8402,9.0941,9.348,9.5027,9.5027,9.4258,9.3403,9.2633,9.0855,8.9932,9.0009,9.171,9.3095,9.3864,9.7173,9.9336,10.0183,10.1866,10.2712,10.2635,10.2712,10.2174,10.1394,10.1394,10.0866,10.0183,9.925,9.6019,9.1325,8.8632,8.6555,8.4777,0.0,0.0,0.0,0.0,0.0,0.0,0.0,0.0,0.0,0.0,0.0,0.0,0.0,0.0,0.0,0.0,0.0,0.0,0.0,0.0,0.0,0.0,0.0,0.0,0.0,0.0,0.0,0.0,0.0,0.0,0.0,0.0,0.0,10.2712,10.502,10.7482,11.0021,11.1791,11.1868,10.9406,11.1406,11.2175,11.057,11.2714,11.4791,11.6495,11.6495,11.6869,11.7715,11.5407,11.4099,11.4099,11.2472,11.1329,11.0417,11.0329,10.9406,10.779,10.779,10.679,10.5184,10.5184,10.4174,10.2712,10.2712,10.2097,10.1394,10.1317,10.0327,9.8865,9.8788,9.7711,9.6172,0.0,0.0,6.5166,6.709,6.8013,6.9545,7.3007,7.5476,7.84,8.2408,8.6555,8.9932,9.1941,9.4403,9.5942,9.5942,9.4557,9.3864,9.4258,9.1026,8.9863,9.171,9.5172,9.748,9.8336,9.9865,10.1019,10.1866,10.3558,10.4097,10.3558,10.4097,10.402,10.3174,10.3174,10.3097,10.2789,10.1866,10.0404,9.8173,9.371,9.0941,8.9171,0.0,0.0,0.0,0.0,0.0,0.0,0.0,0.0,0.0,0.0,0.0,0.0,0.0,0.0,0.0,0.0,0.0,0.0,0.0,0.0,0.0,0.0,0.0,0.0,0.0,0.0,0.0,0.0,0.0,0.0,0.0,10.4174,10.6097,10.5395,10.8626,11.1483,11.2791,11.4407,11.5407,11.5407,11.5407,11.5484,11.5715,11.5792,11.633,11.7407,11.6792,11.6561,11.6792,11.6792,11.6792,11.6792,11.6869,11.633,11.4802,11.3483,11.2099,11.0395,10.9098,10.8021,10.6867,10.6328,10.5405,10.4405,10.3789,10.3405,10.302,10.1173,10.0481,10.0404,9.8557,9.7173,9.6249,0.0,6.432,6.5705,6.7321,6.8084,6.9545,7.3007,7.563,7.8792,8.3024,8.7248,9.0547,9.2326,9.4788,9.6019,9.5249,9.4941,9.4557,9.4027,9.2334,9.2642,9.5566,9.8327,10.0327,10.1096,10.2327,10.3328,10.4174,10.5482,10.5867,10.5482,10.6328,10.6097,10.502,10.5328,10.5328,10.4866,10.402,10.3405,10.2481,9.8481,9.5865,9.4095,9.1556,8.9641,8.8102,8.617,8.5247,8.4786,8.3785,0.0,0.0,0.0,0.0,0.0,0.0,0.0,0.0,0.0,0.0,0.0,0.0,0.0,0.0,0.0,0.0,0.0,0.0,0.0,0.0,0.0,0.0,0.0,0.0,10.8021,10.9867,11.0098,11.2175,11.4176,11.5407,11.71,11.8331,11.8792,11.81,11.7792,11.8331,11.7484,11.7407,11.8331,11.7869,11.7561,11.7561,11.7715,11.7792,11.7792,11.7638,11.7023,11.6034,11.4561,11.3099,11.1483,11.0483,10.9329,10.8175,10.7713,10.7175,10.6559,10.579,10.5328,0.0,0.0,0.0,0.0,0.0,9.7557,9.6788,0.0,6.5013,6.6628,6.816,6.8545,6.9776,7.3007,7.563,7.8869,8.3178,8.7171,9.0316,9.2326,9.4634,9.5403,9.3941,9.5326,9.5403,9.3326,9.4797,9.7028,10.0106,10.1173,10.2097,10.302,10.4636,10.579,10.6703,10.7482,10.779,10.7867,10.8636,10.8098,10.6626,10.7405,10.7405,10.6472,10.579,10.5405,10.502,10.2789,10.0789,9.8942,9.6259,9.5412,9.5104,9.1787,9.0248,8.9487,8.7094,0.0,0.0,0.0,0.0,0.0,0.0,0.0,0.0,0.0,0.0,0.0,0.0,0.0,0.0,0.0,0.0,0.0,0.0,0.0,0.0,0.0,0.0,0.0,0.0,11.2022,11.3637,11.533,11.5715,11.6407,11.7869,11.9408,12.0331,12.0331,11.9562,11.91,11.9177,11.8407,11.8331,11.91,11.9023,0.0,0.0,0.0,11.7781,11.7869,11.6484,11.5715,11.5572,11.4714,11.3483,11.1934,11.178,11.078,10.9175,10.9175,10.9098,10.9021,10.8175,10.7328,10.6174,10.3712,10.2174,10.1087,9.9635,9.8481,9.7634,0.0,6.6782,6.8007,6.8314,6.9545,7.1091,7.3161,7.563,7.9092,8.4016,8.6555,8.9094,9.2172,9.3557,9.4326,9.472,9.5711,9.6634,9.7557,9.9173,10.0404,10.101,10.3174,10.4789,10.5626,10.6713,10.7636,10.8406,10.8636,10.8713,10.8713,10.879,10.8406,10.7482,10.8329,10.8175,10.7482,10.8021,10.7405,10.6087,10.5626,10.402,10.1481,9.825,9.7865,9.8798,9.6019,9.5865,9.6634,9.548,9.4172,9.2873,9.2018,8.9795,0.0,0.0,0.0,0.0,0.0,0.0,0.0,0.0,0.0,0.0,0.0,0.0,0.0,0.0,0.0,0.0,0.0,0.0,0.0,11.2637,11.4099,11.5407,11.71,11.8484,11.9485,11.9792,12.01,12.0331,12.0331,11.9562,11.9408,12.0023,11.9331,11.8869,11.91,11.8407,11.81,11.81,11.7869,11.81,11.8792,11.8484,11.8023,11.733,0.0,0.0,11.4484,11.3791,11.2637,11.1021,11.1021,11.0637,10.9867,10.9021,10.779,10.6164,10.4405,10.2712,10.1327,10.0933,9.9865,9.8481,6.768,6.811,6.8622,6.9468,7.0321,7.1475,7.3238,7.563,7.8784,8.3016,8.5786,8.8248,9.0325,9.171,9.2326,9.1873,9.3787,9.6634,10.0481,10.1481,10.2712,10.4395,10.5328,10.6328,10.7636,10.7713,10.8329,10.956,10.956,10.979,11.0175,11.0175,10.979,10.8867,10.8867,10.8713,10.8329,10.8329,10.779,10.7021,10.6626,10.5626,10.4174,10.1712,10.1173,10.1799,10.0096,9.9712,9.9865,9.8557,9.7557,9.672,9.5865,9.4172,9.2095,0.0,0.0,0.0,0.0,0.0,0.0,0.0,0.0,0.0,0.0,0.0,0.0,0.0,0.0,10.9098,11.156,0.0,11.3176,11.6561,11.7484,11.8407,12.01,12.11,12.1331,12.0408,12.0716,12.1035,12.1035,12.0177,12.0023,12.0869,11.9792,11.9331,11.9715,11.8869,11.8484,11.8484,11.8484,11.8715,11.91,11.8715,11.8177,11.7792,11.6869,11.611,11.533,11.4791,11.3714,11.2088,11.2637,11.2022,11.0791,10.9867,10.879,10.7482,10.6328,10.4174,10.1866,10.1481,10.0481,9.9259,6.9962,6.9566,6.9334,7.0706,7.1168,7.186,7.3315,7.563,7.8484,8.1631,8.4786,8.7094,8.8333,8.9633,9.0171,8.9487,9.2479,9.6788,10.2174,10.3097,10.4636,10.7636,10.7175,10.7636,10.9098,10.8482,10.9021,11.0714,11.0714,11.1098,11.2022,11.178,11.1329,11.0406,10.9713,10.9329,10.9098,10.8636,10.8175,10.7867,10.7175,10.6703,10.6164,10.4482,10.402,10.402,10.2635,10.1712,10.0866,9.9481,9.8942,9.8711,9.8173,9.7557,9.6557,9.4172,9.2402,0.0,0.0,0.0,0.0,0.0,0.0,0.0,0.0,10.8713,11.0406,11.1175,11.3176,11.5176,11.6715,11.71,11.8023,12.0408,12.0716,12.1177,12.287,12.287,12.2177,12.1023,12.11,12.1331,12.1331,12.0716,12.0716,12.1485,12.0485,12.01,12.0793,12.0177,11.9792,11.9562,11.9408,11.9331,11.9331,11.8331,11.7792,11.7792,11.71,11.633,11.5484,11.5715,11.4791,11.3176,11.3868,11.333,11.1703,11.1021,11.0021,10.879,10.8021,10.579,10.302,10.2097,10.1173,10.0106,0.0,7.143,7.0779,7.0873,7.2161,7.3238,7.3469,7.563,7.8253,8.0862,8.2862,8.4948,8.7325,8.7709,8.894,9.1864,9.5172,9.8634,10.2404,10.4713,10.6482,10.7636,10.8329,10.9098,11.0021,11.0032,11.0714,11.2406,11.2406,11.2868,11.3714,11.2868,11.2088,11.1406,11.1329,11.0791,11.0098,11.0791,11.0175,10.879,10.8713,10.7713,10.6164,10.4482,10.4328,10.4569,10.1491,10.0337,10.0183,10.0029,9.9413,9.8942,9.9567,9.9721,9.9336,9.748,9.6326,9.5865,9.7173,9.8788,10.1394,10.6636,10.7636,10.8482,0.0,11.4407,11.4802,11.5572,11.6638,11.7715,11.8638,11.9408,12.0485,12.2331,12.2024,12.2024,12.3716,12.2716,12.2024,12.2485,12.1331,12.0408,12.0408,12.0408,12.0716,12.1485,12.21,12.2485,12.2639,12.2485,12.21,12.1331,12.0562,12.0177,12.0177,11.8638,11.7792,11.7792,11.7715,11.7176,11.6418,11.7176,11.6638,11.5022,11.5099,11.4176,11.2637,11.2483,11.1021,10.879,10.8021,10.6482,10.4713,10.3866,10.2635,10.101,0.0,7.1193,7.118,7.1157,7.2456,7.3469,7.3469,7.563,7.7869,7.9408,8.1485,8.3247,8.4324,8.5786,8.7632,9.0094,9.4249,9.825,10.1635,10.4702,10.7175,10.9098,10.9021,10.979,11.1637,11.1175,11.1483,11.2714,11.2714,11.3099,11.4022,11.3099,11.3099,11.3637,11.2175,11.1637,11.1637,11.1021,11.0329,10.956,10.9098,10.8175,10.6867,10.4174,10.302,10.2635,10.0798,10.0106,0.0,9.8942,9.9029,9.9644,10.0029,10.0106,10.0029,9.9788,9.9865,10.0404,10.2635,10.4405,10.6482,10.9637,11.2022,11.433,11.6869,11.8715,11.9792,12.0177,12.0485,12.1023,12.187,12.2331,12.287,12.4178,12.4486,12.4562,12.4793,12.3793,12.3024,12.287,12.1793,12.11,12.11,12.1485,12.2024,12.2331,12.3101,12.3639,12.3639,12.3639,12.3178,12.2408,12.2024,12.1562,12.11,11.9869,11.9023,11.8638,11.8638,11.7792,11.6484,11.7407,11.71,11.588,11.4407,11.3714,11.3407,11.2406,11.1098,10.956,10.8713,10.7405,10.5713,10.4405,10.3097,10.1866,0.0,7.0528,7.1087,7.1325,7.244,7.3227,7.321,7.5106,7.6861,7.7715,7.9792,8.14,8.1939,8.4016,8.6017,8.7478,9.2095,9.6403,10.001,10.3712,10.679,10.9406,10.9329,11.0098,11.2022,11.1714,11.1934,11.2714,11.2714,11.333,11.433,11.3483,11.3714,11.4868,11.2791,11.2011,11.2329,11.0791,11.0109,10.979,10.8867,10.779,10.6328,10.3097,10.1173,10.0087,9.9327,9.8875,9.849,9.725,9.7788,9.9106,9.9336,9.9721,10.0414,10.1866,10.3789,10.5713,10.7098,10.879,11.0714,11.2406,11.5484,11.8407,11.9485,12.1793,12.3485,12.3024,12.3332,12.3639,12.3716,12.4332,12.5024,12.5717,12.6332,12.6486,12.5794,12.4639,12.3639,12.3024,12.21,12.1574,12.1574,12.2408,12.3024,12.3178,12.4024,12.4716,12.5101,12.487,12.4562,12.4024,12.3716,12.3101,12.2024,12.11,12.0177,11.9408,11.9408,11.8484,11.6869,11.733,11.71,11.6418,11.433,11.3791,11.4176,11.2472,11.1329,11.0406,10.9329,10.7867,10.6164,10.4482,10.3328,10.2404,0.0,0.0,7.0532,7.1322,7.2166,7.2622,7.2399,7.3749,7.5091,7.5938,7.7561,7.9254,8.0939,8.2639,8.4016,8.4939,8.894,9.3172,9.7326,10.1635,10.5097,10.7713,10.9329,11.0186,11.034,11.1098,11.1934,11.2714,11.2714,11.3637,11.5176,11.4407,11.4022,11.4022,11.3099,11.2165,11.1483,11.056,10.9713,10.8867,10.8098,10.6174,10.3712,10.1183,9.9096,9.748,9.6711,9.5865,9.5181,9.5104,9.5634,9.6557,9.7326,9.8711,10.0721,10.402,10.8482,11.2099,11.0483,11.1868,11.4176,11.5869,11.7715,11.9485,12.11,12.3485,12.487,12.3178,12.4178,12.4793,12.3178,12.5024,12.6563,12.6729,12.6729,12.6729,12.6729,12.4486,12.287,12.287,12.21,12.1574,12.1574,12.2408,12.3178,12.4024,12.487,12.6101,12.7705,12.7025,12.6563,12.6575,12.5794,12.4486,12.287,12.2024,12.11,12.0331,12.0331,11.9408,11.7715,11.6869,11.6484,11.6495,11.5572,11.5176,11.5099,11.3407,11.2175,11.1318,10.9637,10.7867,10.6164,10.4482,10.3328,10.2481,0.0,0.0,0.0,7.1563,7.231,7.2719,7.268,7.3891,7.4957,7.517,7.7121,0.0,0.0,0.0,0.0,0.0,8.9094,9.2556,9.5643,9.9788,10.3097,10.5097,10.7328,10.879,10.9329,11.0175,11.0791,11.1021,11.1021,11.1329,11.1868,11.2175,11.2637,11.3099,11.2791,11.2329,11.1395,11.056,10.9713,10.8713,10.679,10.5492,10.4415,10.1337,9.8711,9.6557,0.0,9.4403,9.3864,9.2172,9.3326,9.5557,9.6403,9.7865,10.0491,10.6723,10.9713,11.1483,11.3802,11.5022,11.5869,11.71,11.9485,12.1793,12.2331,12.4024,12.5101,12.387,12.4101,12.4716,12.5332,12.5563,12.6178,12.7332,12.7486,12.7101,12.6024,12.5563,12.4793,12.3101,12.2639,12.2177,12.1727,12.2408,12.3166,12.4024,12.487,12.6101,12.7782,12.7628,12.7332,12.6729,12.587,12.4562,12.287,12.2024,12.1189,12.0331,11.9792,11.9177,11.8638,11.7792,11.7023,11.6495,11.5561,11.5022,11.433,11.3176,11.1483,10.9713,10.9098,10.7867,10.6328,10.5097,10.4482,10.402,0.0,0.0,0.0,0.0,0.0,0.0,0.0,0.0,0.0,0.0,0.0,0.0,0.0,0.0,0.0,0.0,0.0,9.071,9.3873,9.6942,9.9788,10.2404,10.4097,10.5405,10.6174,10.6713,10.7328,10.7867,10.7867,10.8406,10.9329,10.9867,11.0395,11.0868,11.0868,11.0483,10.9626,10.8406,10.7559,10.6867,10.4328,10.2866,10.2097,9.9336,9.6865,0.0,9.2941,9.271,9.2941,9.1018,9.2633,9.5634,9.648,9.9788,10.4174,10.8482,11.1483,11.3868,11.633,11.7407,11.8111,11.8869,12.1331,12.3178,12.2562,12.3716,12.4409,12.2716,12.2793,12.3408,12.387,12.3485,12.4178,12.7397,12.7717,12.7332,12.6794,12.7178,12.6486,12.3716,12.3332,12.3101,12.2485,12.2716,12.3166,12.4024,12.487,12.6332,12.8332,12.8089,12.7871,12.8114,12.6871,12.564,12.4332,12.3408,12.2408,12.1177,12.0408,11.9792,11.9485,11.8331,11.7484,11.6869,11.5792,11.5022,11.4407,11.3176,11.1637,10.979,10.9098,10.7867,10.6318,10.5405,10.4713,10.402,0.0,0.0,0.0,0.0,0.0,0.0,0.0,0.0,0.0,0.0,0.0,0.0,0.0,0.0,0.0,0.0,0.0,0.0,9.1941,9.3095,9.5412,9.9567,9.9875,10.0327,10.1087,10.1164,10.202,10.3558,10.3712,10.502,10.7328,10.7405,10.7405,10.7405,10.7405,10.7021,10.601,10.4405,10.3712,10.3405,10.0875,9.8942,9.725,9.5643,9.395,9.2249,9.0624,9.1095,9.2402,9.1556,9.371,9.6788,9.7634,10.4097,11.1098,10.9637,11.3868,11.8792,11.8177,11.9177,12.0562,12.1485,12.287,12.3562,12.187,12.2716,12.287,11.9715,12.0331,12.0869,11.9408,11.9177,12.11,12.6781,12.7101,12.7178,12.8794,12.9102,12.7871,12.4639,12.4178,12.4101,12.4101,12.3408,12.3332,12.4101,12.487,12.6486,12.9102,12.8397,12.8717,13.041,12.8705,12.7409,12.6575,12.5717,12.4409,12.2793,12.2024,12.11,12.0177,11.8715,11.7869,11.7715,11.6099,11.5407,11.5187,11.3483,11.2329,11.1318,10.9637,10.7867,10.6405,10.5482,10.4097,10.2712,0.0,0.0,0.0,0.0,0.0,0.0,0.0,0.0,0.0,0.0,0.0,0.0,0.0,0.0,0.0,0.0,0.0,0.0,8.8556,9.0633,9.2633,9.4326,9.6249,9.7634,9.8481,9.9712,10.0327,10.0096,10.1404,10.202,10.2106,10.3328,10.3866,10.3866,10.3866,10.3405,10.2471,10.1481,10.0721,9.9942,9.8019,9.7019,9.648,9.5412,9.395,9.2402,9.2018,9.2095,9.2556,9.2941,9.6634,10.1173,10.2712,10.6097,11.0098,11.2868,11.533,11.7792,12.0793,12.187,12.2408,12.3332,12.3332,12.2793,12.1023,12.0023,11.9319,11.91,11.8869,11.9023,11.9792,12.0485,12.187,12.4639,12.5409,12.6101,12.7178,12.7871,12.7397,12.5332,12.5101,12.4793,12.4178,12.4486,12.4793,12.5101,12.4716,12.6101,13.0025,12.8705,12.8397,12.9487,12.7871,12.6332,12.4793,12.3332,12.242,12.187,12.1727,12.11,12.0331,11.9869,11.9023,11.7792,11.733,11.6484,11.5176,11.4099,11.2791,11.1318,10.9637,10.8329,10.7328,10.6405,10.5405,10.4405,0.0,0.0,0.0,0.0,0.0,0.0,0.0,0.0,0.0,0.0,0.0,0.0,0.0,0.0,0.0,0.0,0.0,0.0,0.0,8.8556,9.0094,9.1325,9.2701,9.4095,9.5249,9.5865,9.6326,9.6557,9.748,9.8096,9.8481,9.9404,9.9865,9.9865,9.9865,9.9558,9.9019,9.8259,9.7567,0.0,0.0,9.4634,9.4557,9.3633,9.271,9.1941,9.1941,9.3095,9.4941,9.648,10.0019,10.4097,10.6097,10.9329,11.2791,11.5561,11.7792,12.0023,12.3101,12.4024,12.4101,12.4562,12.3793,12.2331,11.9792,11.8177,11.71,11.6407,11.6176,11.6407,11.7407,11.7561,11.9023,12.287,12.4024,12.5101,12.7486,12.8794,12.8871,12.7332,12.7101,12.6871,12.6409,12.6101,12.6409,12.7563,12.6101,12.6409,12.9179,12.8397,12.832,12.9179,12.7871,12.6409,12.4716,12.3716,12.287,12.2177,12.2177,12.1716,12.0793,12.01,11.9331,11.8331,0.0,11.6484,11.5176,11.4407,11.3022,11.1318,10.9637,10.8406,10.7482,10.6328,10.5482,10.4866,0.0,0.0,0.0,0.0,0.0,0.0,0.0,0.0,0.0,0.0,0.0,7.7248,7.8866,8.0377,0.0,0.0,0.0,0.0,0.0,0.0,8.794,8.947,8.9547,9.0325,9.1941,9.1325,9.171,9.3018,9.3249,9.4095,9.548,9.5557,9.5711,9.5788,9.5711,9.5711,9.5711,9.4874,9.4489,9.4335,9.2941,9.2326,9.2249,0.0,9.1171,9.1248,9.1479,9.3941,9.7634,10.0471,10.3328,10.602,10.8482,11.256,11.6715,11.7792,12.0485,12.3485,12.5178,12.5717,12.5717,12.5563,12.4101,12.187,11.8638,11.6792,11.533,11.333,11.3176,11.356,11.3791,11.3407,11.5099,12.1177,12.2408,12.4024,12.8332,13.0102,13.0564,12.9333,12.9179,12.9179,12.9179,12.7871,12.7871,13.0179,12.8332,12.7409,12.8179,12.8012,12.8179,12.8794,12.8025,12.6794,12.5178,12.5101,12.4332,12.2716,12.2716,12.2331,12.1574,12.01,11.9331,11.9023,11.7484,11.633,11.5418,11.4407,11.3099,11.1626,10.9713,10.8482,10.7636,10.5867,10.5097,10.4713,0.0,0.0,0.0,0.0,0.0,0.0,0.0,0.0,0.0,0.0,7.914,7.9533,0.0,0.0,0.0,0.0,0.0,0.0,0.0,0.0,0.0,8.7786,8.7863,8.8325,8.9334,8.9863,8.994,8.9564,9.0941,9.1402,9.1009,9.1787,9.2479,9.3095,9.2402,9.2479,9.3095,9.2249,9.1864,9.1864,9.1556,9.1402,9.1402,9.1248,9.1171,0.0,9.2787,9.4181,9.6182,10.0789,10.502,10.8636,11.0483,11.356,11.6869,11.9177,12.1793,12.4409,12.6781,12.7486,12.7332,12.6563,12.4101,12.11,11.8407,11.5022,11.2637,11.3637,11.2175,11.1329,11.2714,11.4022,11.5715,11.8331,11.9792,12.2177,12.6486,12.7409,12.8025,12.9102,12.9179,12.9179,12.9179,12.8871,12.8871,12.941,12.9025,12.9102,13.0025,12.8717,12.7717,12.7101,12.6332,12.5332,12.4332,12.3716,12.2793,12.1793,12.1793,12.1716,12.1574,12.1343,12.0408,11.91,11.8792,0.0,11.6187,11.4561,11.3791,11.333,11.0098,10.879,10.8482,10.679,10.5328,10.4097,0.0,0.0,0.0,0.0,0.0,0.0,0.0,7.8292,8.076,8.3726,8.415,8.3951,8.345,8.3403,8.385,0.0,0.0,0.0,0.0,0.0,0.0,8.7325,8.7401,8.7786,8.8718,8.9094,8.9325,8.9325,0.0,8.9863,8.9932,8.9863,9.0094,9.0479,9.0556,9.0778,9.1171,9.1171,9.1171,9.1171,9.1171,9.1171,9.1171,9.1171,9.1479,0.0,9.3787,9.4951,9.6172,9.9481,10.3174,10.7021,11.0868,11.4407,11.7715,12.0177,12.2793,12.5332,12.7871,12.8166,12.7717,12.6871,12.3805,12.0331,11.7715,11.4176,11.1703,11.2472,11.1021,11.0021,11.1791,11.2791,11.4176,11.6715,11.7792,12.0331,12.5883,12.6332,12.7101,13.0102,13.0487,13.0487,13.0487,13.0102,13.0102,13.0487,13.0102,12.9717,12.9179,12.8025,12.7101,12.6729,12.6332,12.5409,12.4101,12.3716,12.287,12.1574,12.1574,12.1574,12.1574,12.11,12.0485,11.9715,11.8792,0.0,11.7023,11.5407,11.4407,11.3791,11.1175,10.9713,10.8713,10.701,10.5636,10.4492,0.0,0.0,0.0,0.0,0.0,0.0,0.0,8.0337,8.3048,8.6836,8.8376,8.8212,8.57,8.5163,8.5136,0.0,0.0,0.0,0.0,0.0,0.0,0.0,8.7094,8.7555,8.841,0.0,0.0,8.9624,8.9017,0.0,0.0,0.0,0.0,0.0,8.9479,8.9855,9.0239,9.071,9.1018,0.0,0.0,9.1325,9.1479,0.0,0.0,0.0,0.0,9.5634,9.6326,9.8557,10.1019,10.4097,10.9637,11.4176,11.8023,12.0408,12.3332,12.6101,12.8102,12.8332,12.7717,12.6717,12.3332,11.9562,11.688,11.3637,11.1165,11.1165,10.979,10.9175,11.0868,11.1098,11.2022,11.5407,11.6341,11.8804,12.5178,12.6024,12.7332,13.1025,13.1564,13.1718,13.1718,13.1102,13.1025,13.1718,13.0794,12.964,12.8332,12.7178,12.6729,12.6729,12.6486,12.5717,12.4101,12.387,12.3101,12.1574,12.1574,12.1574,12.1574,12.0716,12.0177,12.0023,11.8484,0.0,0.0,11.5869,11.4791,11.3791,11.2175,11.0395,10.8713,10.7175,10.602,10.503,0.0,0.0,0.0,0.0,0.0,0.0,0.0,8.1842,8.5106,8.7075,8.9406,9.0549,8.9374,8.8404,8.7482,0.0,0.0,0.0,0.0,0.0,0.0,0.0,0.0,0.0,0.0,0.0,0.0,8.8795,8.8718,0.0,0.0,0.0,0.0,0.0,0.0,8.9633,9.1018,9.0316,0.0,0.0,0.0,0.0,0.0,0.0,0.0,0.0,0.0,9.5711,9.572,9.9712,10.0789,10.1183,10.5636,11.1406,11.7034,11.8792,12.2793,12.6563,12.6883,12.7409,12.7474,12.587,12.287,11.9408,11.6187,11.2791,11.0329,11.0329,10.9021,10.8329,11.0021,10.9713,11.0329,11.3714,11.5484,11.8331,12.3562,12.6332,12.8409,13.041,13.1333,13.1718,13.1718,13.1564,13.1564,13.1718,13.0179,12.9179,12.9102,12.7563,12.6729,12.6729,12.587,12.5101,12.4101,12.3408,12.2485,12.1574,12.1574,12.1574,12.1574,12.0716,11.9869,11.9177,11.8177,0.0,0.0,11.5726,11.4791,11.3791,11.2175,11.0395,10.879,10.7867,10.6482,10.5107,0.0,0.0,0.0,0.0,0.0,0.0,7.9427,8.1846,8.4484,8.7621,8.9484,9.0242,8.9865,8.9893,8.9502,8.8502,0.0,0.0,0.0,0.0,0.0,0.0,0.0,0.0,0.0,0.0,8.8863,9.0171,8.971,0.0,0.0,0.0,0.0,0.0,0.0,8.9787,9.0393,9.0624,0.0,0.0,0.0,0.0,0.0,0.0,0.0,0.0,0.0,0.0,9.6095,9.825,9.8788,9.8942,10.1096,10.579,11.1329,11.5561,11.9715,12.3332,12.5409,12.6486,12.6871,12.5717,12.2793,11.9408,11.6099,11.3099,11.0791,11.0329,10.8867,10.8175,10.9867,10.9098,10.9483,11.3407,11.333,11.5022,12.1716,12.21,12.3408,12.7717,12.8486,12.9333,13.0794,13.1025,13.1025,13.1025,12.9871,12.9025,12.8397,12.7332,12.6729,12.6729,12.6421,12.5486,12.4101,12.3793,12.287,12.1574,12.1574,12.1574,12.1574,12.0716,12.01,11.9715,11.8407,0.0,0.0,11.6418,11.5484,11.4714,11.3483,11.2022,11.0329,10.8867,10.7328,10.5867,0.0,0.0,0.0,0.0,0.0,7.6163,7.9661,8.1373,8.3541,8.6995,8.8696,8.9607,8.9787,9.0556,9.0917,9.0436,8.9302,0.0,0.0,0.0,0.0,0.0,0.0,0.0,0.0,0.0,9.0248,9.1941,9.1556,9.171,0.0,0.0,9.0556,8.9795,0.0,0.0,0.0,0.0,0.0,0.0,0.0,0.0,0.0,0.0,0.0,0.0,0.0,0.0,0.0,0.0,0.0,9.7634,9.825,10.1096,10.5405,11.156,11.633,12.0177,12.3101,12.4716,12.5409,12.4486,12.187,11.8715,11.533,11.2791,11.0791,10.9713,10.8482,10.8098,10.9175,10.8482,10.879,11.2329,11.2175,11.3868,12.0331,12.0331,12.1408,12.6101,12.6729,12.7486,12.9487,13.0179,13.041,13.0102,12.9487,12.8717,12.764,12.7025,12.6729,12.6729,12.6178,12.5332,12.4101,12.3562,12.2793,12.1574,12.1574,12.1574,12.1574,12.0485,11.9869,11.9869,11.8177,0.0,0.0,11.6803,11.588,11.4868,11.4176,11.2714,11.0637,10.9406,10.779,10.6395,0.0,0.0,0.0,0.0,0.0,0.0,7.8177,8.0584,8.2825,8.4576,8.7042,8.8884,8.9706,9.0556,9.1414,9.2271,9.0604,0.0,0.0,0.0,0.0,0.0,0.0,0.0,0.0,0.0,9.2018,9.3633,9.4566,9.4951,9.4951,9.4104,9.3249,9.2402,0.0,0.0,0.0,0.0,0.0,0.0,0.0,0.0,0.0,0.0,0.0,0.0,0.0,0.0,0.0,0.0,0.0,0.0,0.0,9.8173,10.0173,10.7021,11.3176,11.8177,11.9869,12.1639,12.2716,12.187,11.9715,11.6857,11.3483,11.1406,10.9713,10.8098,10.7713,10.7713,10.7713,10.7713,10.8329,11.0032,11.311,11.6407,11.9792,12.2485,12.4716,12.6486,12.6729,12.7025,12.7782,12.9487,13.0102,12.9333,12.9179,12.8486,12.6806,12.6729,12.6729,12.6729,12.5024,12.4101,12.4101,12.2485,12.1574,12.1574,12.1574,12.1574,12.1485,11.9869,11.91,11.9023,0.0,0.0,0.0,11.6495,11.5484,11.4022,11.4022,11.1868,10.8867,10.8867,10.779,10.6395,0.0,0.0,0.0,0.0,0.0,0.0,0.0,7.9577,8.1122,8.2782,8.5261,8.7345,8.8774,9.0248,9.1414,9.2349,9.1303,0.0,0.0,0.0,0.0,0.0,0.0,0.0,0.0,9.308,9.4389,9.548,9.6865,9.7019,9.5865,9.6172,9.5249,9.3249,9.2172,9.1864,0.0,0.0,0.0,0.0,0.0,0.0,9.5104,0.0,0.0,0.0,0.0,0.0,0.0,0.0,0.0,0.0,0.0,0.0,0.0,10.2106,10.6713,11.1406,11.3714,11.5484,11.6792,11.6484,11.5792,11.4484,11.156,11.1021,11.0406,10.8175,10.7713,10.7713,10.7713,10.7713,10.879,11.2175,11.3714,11.5792,11.9715,12.0485,12.1485,12.3793,12.6717,12.8486,12.8794,12.9794,12.9871,12.8397,12.832,12.7794,12.6806,12.6729,12.6409,12.5794,12.5332,12.4409,12.3332,12.2793,12.2177,12.1574,12.1574,12.1343,12.0716,11.9562,11.8792,0.0,0.0,0.0,0.0,11.6495,11.588,11.4791,11.4176,11.2637,11.0483,10.9329,10.8175,10.7175,0.0,0.0,0.0,0.0,0.0,0.0,0.0,7.8945,8.0335,8.2012,8.4098,8.6412,8.8713,8.9943,9.1261,9.2742,9.2352,0.0,0.0,0.0,0.0,0.0,0.0,0.0,9.2488,9.4501,9.6118,9.725,9.8942,9.9173,9.8173,9.8404,9.7096,9.4634,9.3787,9.3095,0.0,0.0,0.0,0.0,0.0,0.0,9.5104,0.0,0.0,0.0,0.0,0.0,0.0,0.0,0.0,0.0,0.0,0.0,0.0,0.0,10.1789,10.5713,10.9483,11.1791,11.3099,11.3099,11.3099,11.2483,11.0175,11.0098,10.9867,10.7713,10.7482,10.7636,10.7328,10.8021,10.9406,11.1714,11.3176,11.5099,11.8407,11.9023,12.0177,12.3024,12.6024,12.8025,12.864,12.9179,12.9102,12.8012,12.7859,12.7409,12.6332,12.6178,12.5717,12.4486,12.4793,12.4409,12.3408,12.2716,12.21,12.1574,12.1574,12.11,12.0331,11.9485,11.8638,0.0,0.0,0.0,0.0,11.6495,11.5792,11.4791,11.4176,11.2791,11.0868,10.979,10.8713,10.7636,0.0,0.0,0.0,0.0,0.0,0.0,0.0,7.8609,8.0314,8.1875,8.363,8.6014,8.9364,8.9804,9.0875,9.3447,0.0,0.0,0.0,0.0,0.0,0.0,0.0,0.0,9.2805,9.5357,9.7437,9.8942,10.0712,10.1471,10.1394,10.0712,9.8942,9.648,9.5566,9.4181,0.0,0.0,0.0,0.0,9.5634,9.5788,0.0,0.0,0.0,0.0,0.0,0.0,0.0,0.0,0.0,0.0,0.0,0.0,0.0,0.0,0.0,0.0,0.0,10.9483,11.0868,11.078,11.0857,11.0637,10.9021,10.8713,0.0,10.6703,10.701,10.7405,10.6703,10.8482,10.9867,10.9406,11.2099,11.4791,11.6407,11.8177,12.0639,12.4024,12.5101,12.6332,12.7859,12.8012,12.7859,12.7782,12.7794,12.7012,12.5486,12.5332,12.4562,12.3024,12.3716,12.4024,12.387,12.2408,12.1574,12.1574,12.1485,12.11,12.0177,11.9408,11.8484,0.0,0.0,0.0,0.0,11.6495,11.5484,11.4022,11.4022,11.2406,11.0186,11.0186,10.9098,10.7713,0.0,0.0,0.0,0.0,0.0,0.0,0.0,0.0,0.0,0.0,8.3272,8.5824,8.859,8.9436,9.0824,0.0,0.0,0.0,0.0,0.0,0.0,0.0,0.0,0.0,9.5443,9.8065,9.9802,10.0712,10.3097,10.3558,10.2327,10.2789,10.1327,9.8173,9.7326,9.5634,0.0,0.0,0.0,0.0,9.5865,9.6172,0.0,0.0,0.0,0.0,9.6788,9.6788,0.0,0.0,0.0,0.0,0.0,0.0,0.0,0.0,9.8711,10.0337,10.1029,0.0,10.4482,10.3933,10.5174,10.6482,0.0,10.7021,10.7713,10.6626,10.6626,10.701,10.8098,10.8329,10.9483,11.3176,11.5022,11.6484,11.8177,12.0485,12.3332,12.6628,12.7794,12.8717,12.9794,12.9333,12.8409,12.7101,12.6409,12.5794,12.5409,12.4793,12.4178,12.3793,12.3408,12.287,12.2177,12.1804,12.1574,12.1574,12.0869,12.0177,11.9408,11.8484,11.7638,0.0,0.0,0.0,11.6495,11.6495,11.5484,11.4022,11.4022,11.2406,11.0186,11.0186,10.9098,10.7713,0.0,0.0,0.0,0.0,0.0,0.0,0.0,0.0,0.0,0.0,0.0,0.0,0.0,0.0,0.0,0.0,0.0,0.0,0.0,0.0,0.0,0.0,0.0,9.588,9.6942,9.9565,10.1208,10.1866,10.402,10.4636,10.3712,10.3876,10.2327,9.9336,9.725,9.5788,0.0,0.0,0.0,0.0,9.6095,0.0,0.0,0.0,0.0,0.0,9.6711,9.6634,0.0,9.7634,9.7788,9.748,0.0,0.0,0.0,0.0,9.8173,9.9336,9.8404,10.0866,10.3635,10.3174,10.4713,10.6328,10.6328,10.6097,10.579,10.5405,10.5867,10.6636,10.7098,10.8406,11.0318,11.3099,11.4561,11.6484,11.9792,12.2793,12.5486,12.7628,12.8717,12.9179,12.9333,12.8179,12.7178,12.6717,12.587,12.5178,12.4793,12.4409,12.3716,12.3024,12.2485,12.2331,12.2177,12.1793,12.1574,12.1574,12.0716,11.9869,11.91,11.8177,11.733,0.0,0.0,0.0,11.6495,11.6495,11.5715,11.4561,11.4176,11.2868,11.1329,11.0868,11.0021,10.879,0.0,0.0,0.0,0.0,0.0,0.0,0.0,0.0,0.0,0.0,0.0,0.0,0.0,0.0,0.0,0.0,0.0,0.0,0.0,0.0,0.0,0.0,9.7006,9.7107,9.7893,10.0191,10.1911,10.2789,10.4482,10.5328,10.5328,10.4713,10.303,10.0106,9.7028,9.5865,9.6249,0.0,0.0,9.648,9.648,0.0,0.0,0.0,0.0,0.0,0.0,0.0,0.0,9.8798,9.9096,9.8557,9.8327,0.0,0.0,0.0,0.0,0.0,9.8173,10.1481,10.502,10.4559,10.6097,10.7636,10.7405,10.5713,10.4338,10.4512,10.5502,10.6272,10.582,10.8909,11.1592,11.1791,11.3483,11.6407,12.1035,12.4178,12.6486,12.764,12.8486,12.8794,12.8179,12.6717,12.6024,12.6729,12.587,12.5101,12.4332,12.4101,12.3332,12.1793,12.1727,12.187,12.2485,12.1793,12.1497,12.1574,12.0485,11.9562,11.91,11.81,11.7176,11.6495,0.0,0.0,11.6495,11.6495,11.6034,11.5176,11.4484,11.3714,11.2791,11.2022,11.1098,11.0406,0.0,0.0,0.0,0.0,0.0,0.0,0.0,0.0,0.0,0.0,0.0,0.0,0.0,0.0,0.0,0.0,0.0,0.0,0.0,0.0,0.0,9.9119,9.6919,9.6661,9.8829,9.9986,10.1593,10.3712,10.5405,10.6174,10.6164,10.679,10.502,10.101,9.9096,9.748,9.6326,9.6865,9.7173,9.7326,9.7326,0.0,0.0,0.0,0.0,0.0,0.0,0.0,0.0,9.6788,9.725,9.748,9.6028,0.0,0.0,0.0,0.0,0.0,10.001,10.2866,10.4559,10.2404,10.4789,10.7328,10.579,10.579,10.6195,10.6988,10.6776,10.6931,10.8163,11.0323,11.2173,11.3439,11.633,11.91,12.1343,12.2716,12.4332,12.6563,12.7563,12.832,12.8871,12.8102,12.7332,12.6717,12.587,12.5332,12.5178,12.387,12.3024,12.2716,12.2024,12.1331,12.0716,12.0562,12.0869,12.1574,11.9331,11.8484,11.9023,11.7407,11.6561,11.6495,0.0,11.6495,11.6495,11.6495,11.6034,11.533,11.5187,11.4561,11.3714,11.2791,11.2022,11.1098,0.0,0.0,0.0,0.0,0.0,0.0,0.0,0.0,0.0,0.0,0.0,0.0,0.0,0.0,0.0,0.0,0.0,0.0,0.0,9.7813,9.8769,10.0082,9.8607,9.8419,9.9916,10.1081,10.2997,10.5417,10.7025,10.8021,10.8406,10.6482,10.3866,10.0635,9.8865,9.7739,9.7102,9.7345,9.8047,9.8863,0.0,0.0,0.0,0.0,0.0,0.0,0.0,0.0,0.0,0.0,9.821,9.8709,9.7422,0.0,0.0,0.0,0.0,0.0,9.9558,10.2789,10.5405,10.3789,10.6174,10.879,10.8021,10.6713,10.5974,10.6931,10.7191,10.7412,10.8193,11.0622,11.2991,11.4978,11.8561,12.1639,12.2793,12.4486,12.6024,12.7178,12.8102,12.8409,12.7871,12.7101,12.6563,12.6729,12.587,12.5409,12.5409,12.4178,12.3332,12.287,12.1562,12.0716,12.0331,11.9408,11.9408,12.0177,11.8638,11.8023,11.8407,11.71,11.6495,11.6495,0.0,11.6495,11.6495,11.6495,11.6341,11.588,11.5495,11.511,11.4484,11.3176,11.2165,11.1395,0.0,0.0,0.0,0.0,0.0,0.0,0.0,0.0,0.0,0.0,0.0,0.0,0.0,0.0,0.0,0.0,0.0,0.0,0.0,9.7555,9.8744,9.9883,9.9996,10.0331,10.1017,10.2397,10.4519,10.7306,10.8627,10.9566,11.0098,10.6482,10.3194,10.0365,9.9057,9.8189,9.7739,9.8016,9.894,10.0083,0.0,0.0,0.0,0.0,0.0,0.0,0.0,0.0,0.0,0.0,0.0,0.0,0.0,0.0,0.0,9.7508,9.7634,9.8942,9.9558,10.2481,10.5482,10.5713,10.7965,11.0284,11.0493,10.8272,10.6707,10.8019,10.8491,10.8732,10.8685,11.1517,11.4711,11.732,12.0585,12.3024,12.3485,12.5486,12.7089,12.7332,12.7871,12.7794,12.6486,12.5794,12.5717,12.6332,12.6024,12.5563,12.5409,12.4562,12.3639,12.2639,12.11,12.01,11.9715,11.8407,11.8177,11.91,11.8177,11.7869,11.81,11.7407,11.7023,11.6792,11.6792,11.6792,11.6792,11.6792,11.6792,11.6715,11.6099,11.5484,11.4791,11.3483,11.2406,11.1472,0.0,0.0,0.0,0.0,0.0,0.0,0.0,0.0,0.0,0.0,0.0,0.0,0.0,0.0,0.0,0.0,0.0,0.0,0.0,9.706,9.8092,9.7499,9.9847,10.152,10.2094,10.2875,10.533,10.9092,11.001,11.0401,11.0186,10.8329,10.5301,10.1393,10.1316,9.9906,9.7903,9.9349,10.0083,10.0083,9.9134,0.0,0.0,0.0,0.0,0.0,0.0,0.0,0.0,0.0,0.0,0.0,0.0,0.0,9.9911,9.797,9.8096,9.9327,10.1712,10.2635,10.3635,10.6713,10.8863,11.0531,11.1197,11.0633,11.0639,11.3114,11.2421,11.1372,11.1471,11.4188,11.7506,12.0897,12.2336,12.2639,12.187,12.3332,12.4716,12.5486,12.5563,12.5563,12.5486,12.5409,12.5409,12.5486,12.6178,12.6267,12.5409,12.4562,12.3408,12.1716,12.0793,11.9562,11.8023,11.7869,11.8177,11.91,11.8177,11.8177,11.9023,11.8869,11.8484,11.7715,11.7715,11.7715,11.7715,11.7715,11.7715,11.7715,11.7627,11.6176,11.4099,11.4022,11.2868,11.1472,0.0,0.0,0.0,0.0,0.0,0.0,0.0,0.0,0.0,0.0,0.0,0.0,0.0,0.0,0.0,0.0,0.0,0.0,9.4523,9.6098,9.755,9.8884,10.0009,10.1423,10.3286,10.3983,10.6563,11.1104,11.2185,11.1917,11.0186,10.8478,10.5524,10.1479,10.2092,10.1006,9.8767,9.9832,10.0603,10.1032,9.9548,9.8972,0.0,0.0,0.0,0.0,0.0,0.0,0.0,0.0,9.7754,9.8782,9.789,9.9208,10.069,9.8817,9.8942,9.9798,10.0798,10.302,10.5184,10.6024,10.9513,11.2703,11.2295,11.1722,11.2287,11.6522,11.5632,11.4281,11.5401,11.6627,11.8013,11.9784,12.1674,12.3024,12.3101,12.4178,12.5178,12.6101,12.6178,12.6024,12.5486,12.587,12.6178,12.6178,12.6486,12.6332,12.5409,12.4101,12.2793,12.1562,11.9715,11.8407,11.7792,11.733,11.7407,11.8331,11.8023,11.8023,11.8331,11.8869,11.8869,11.8638,11.8638,11.8638,11.8638,11.8638,11.8331,11.7704,11.7176,11.6099,11.4714,11.4176,11.333,11.2175,0.0,0.0,0.0,0.0,0.0,0.0,0.0,0.0,0.0,0.0,0.0,0.0,0.0,0.0,0.0,0.0,0.0,0.0,9.4617,9.5911,9.7528,9.962,10.0169,10.1518,10.3583,10.4634,10.7226,11.1805,11.3526,11.2813,10.9766,10.8692,10.5987,10.2033,10.2567,10.1881,10.0101,10.0474,10.1084,10.1597,10.0115,9.9309,0.0,0.0,0.0,0.0,0.0,0.0,0.0,0.0,9.7748,9.8948,9.8605,9.9906,10.1199,9.971,9.9817,10.0414,9.9798,10.2434,10.5224,10.5197,10.9013,11.2907,11.3692,11.3601,11.4476,11.8804,11.777,11.6571,11.7991,11.8332,11.8607,11.9727,12.1639,12.3332,12.4409,12.5332,12.6101,12.7025,12.6883,12.6421,12.5486,12.5717,12.6024,12.6267,12.6332,12.6024,12.5409,12.3793,12.2408,12.1177,11.9023,11.7715,11.7407,11.71,11.71,11.7407,11.7869,11.8177,11.8177,11.9408,11.9562,11.91,11.9408,11.9485,11.9485,11.9177,11.8638,11.7715,11.6792,11.6034,11.5176,11.4561,11.3714,11.2626,0.0,0.0,0.0,0.0,0.0,0.0,0.0,0.0,0.0,0.0,9.1975,0.0,0.0,0.0,0.0,0.0,0.0,0.0,9.4751,9.6578,9.8019,9.892,10.0563,10.1891,10.2828,10.4517,10.7082,11.0874,11.3825,11.3076,10.9098,10.9098,10.6901,10.2996,10.2996,10.2582,10.1889,10.1724,10.1683,10.1597,10.0741,9.9772,9.9,0.0,0.0,0.0,0.0,0.0,0.0,0.0,9.8366,9.9349,10.0106,10.0929,10.1375,10.0505,10.0711,10.0933,9.925,10.0711,10.3069,10.4666,10.7191,11.0517,11.5385,11.6736,11.7524,11.9761,11.9125,11.8321,11.8969,11.919,11.9774,12.1277,12.2331,12.3485,12.5178,12.6178,12.7025,12.7794,12.7178,12.6421,12.5486,12.4639,12.4486,12.5332,12.5409,12.5409,12.5409,12.3793,12.21,12.0331,11.8715,11.7407,11.6495,11.7407,11.7407,11.6484,11.8331,11.91,11.91,12.0793,12.0716,11.9177,12.0023,12.0331,12.0177,11.9408,11.8638,11.7715,11.6792,11.6034,11.533,11.533,11.4176,11.2714,0.0,0.0,0.0,0.0,0.0,0.0,0.0,0.0,0.0,9.1194,9.1507,0.0,0.0,0.0,0.0,0.0,0.0,0.0,9.4051,9.4608,9.5865,9.7987,9.8533,10.0407,10.3608,10.5597,10.7538,10.911,11.0912,11.0459,10.8173,10.7712,10.5809,10.3074,10.43,10.3103,10.0102,10.0705,10.0929,10.0767,9.9962,9.9413,9.9181,0.0,0.0,0.0,0.0,0.0,0.0,0.0,0.0,0.0,9.9239,10.0398,10.1362,10.0478,10.1173,10.1789,10.0183,10.1972,10.4695,10.5823,10.9888,11.407,11.6231,11.6725,11.7429,11.9827,12.0896,12.1414,12.0893,12.1443,12.1828,12.1574,12.3332,12.4793,12.5332,12.6178,12.6806,12.7025,12.6794,12.6421,12.5486,12.5178,12.5101,12.5409,12.4793,12.4178,12.3716,12.2024,12.0562,11.9485,11.7792,11.71,11.7407,11.71,11.7407,11.8331,11.8869,11.8792,11.8177,11.9869,12.0408,12.0023,12.0793,12.0869,12.0177,11.8792,11.8011,11.7715,11.6792,11.6418,11.611,11.5495,11.5022,11.4407,0.0,0.0,0.0,0.0,0.0,0.0,9.0649,9.0727,9.0726,9.1194,9.1585,9.1819,0.0,0.0,0.0,9.3221,9.3348,0.0,9.3767,9.4083,9.5488,9.8065,9.8221,10.0095,10.4001,10.6183,10.7365,10.7532,10.8732,10.8309,10.648,10.7126,10.6136,10.3816,10.593,10.4583,10.0883,10.1425,10.0961,10.0032,9.9483,9.9096,9.8787,0.0,0.0,0.0,0.0,0.0,0.0,0.0,0.0,0.0,9.8547,9.9625,10.0508,9.9924,10.0872,10.1972,10.0895,10.3396,10.6613,10.8123,11.2236,11.6329,11.7826,11.8124,11.8486,11.9958,12.117,12.1962,12.2112,12.2485,12.287,12.3101,12.4409,12.5563,12.6332,12.6794,12.7178,12.7178,12.7178,12.6794,12.6024,12.5563,12.5486,12.587,12.4793,12.4024,12.387,12.187,12.0562,12.01,11.81,11.733,11.7792,11.733,11.7484,11.8638,11.8638,11.8331,11.7869,11.9869,12.0485,11.9869,12.0716,12.0408,11.9177,11.8177,11.7638,11.7176,11.6715,11.6495,11.6418,11.6034,11.5418,11.4714,0.0,0.0,8.3386,8.5807,0.0,8.8616,9.1897,9.1741,9.135,9.1428,9.2053,9.2209,0.0,0.0,0.0,9.2678,9.4161,9.4786,0.0,9.4552,9.6191,9.8844,9.939,10.111,10.4313,10.6423,10.7067,10.6162,10.7176,10.6585,10.4574,10.6987,10.6903,10.4777,10.7199,10.6308,10.2972,10.2895,10.1425,9.9174,9.9174,9.871,9.8098,9.8098,0.0,0.0,0.0,0.0,0.0,0.0,0.0,0.0,9.8098,9.8586,9.9194,9.9026,10.0226,10.1493,10.1376,10.4465,10.8492,11.0987,11.4329,11.7606,11.9892,12.0408,12.0331,12.0331,12.0408,12.1023,12.2639,12.3101,12.3716,12.5178,12.5486,12.6101,12.764,12.7794,12.7794,12.7794,12.7794,12.7486,12.6806,12.587,12.5717,12.6409,12.487,12.4332,12.5024,12.2793,12.1497,12.1497,11.9177,11.8023,11.8011,11.8023,11.8023,11.8011,11.8023,11.7869,11.7869,12.0331,12.0562,11.9177,11.9869,11.9331,11.7792,11.7715,11.7176,11.6495,11.6495,11.6495,11.6495,11.6418,11.5407,11.4099,0.0,0.0,8.5651,8.6898,0.0,0.0,9.1272,9.1428,9.1507,9.2131,9.2367,9.2445,9.2287,9.3771,0.0,9.3615,9.4473,9.502,9.4864,9.4395,9.5567,9.8844,10.2201,10.4702,10.6107,10.7079,10.7221,10.6282,10.6336,10.6001,10.5584,10.6214,10.5916,10.4777,10.5881,10.4533,10.1123,10.0419,9.9483,9.833,9.833,9.8253,9.8098,9.8098,9.7557,0.0,0.0,0.0,0.0,0.0,0.0,0.0,9.7866,9.8578,9.9032,9.8331,9.9719,10.1479,10.1279,10.3973,10.7688,11.1494,11.5957,11.9827,12.1035,12.0793,12.0331,12.0331,12.1408,12.2485,12.2781,12.4486,12.5794,12.5486,12.6024,12.6486,12.6871,12.7025,12.7025,12.7025,12.7025,12.6871,12.6729,12.587,12.5178,12.4716,12.3716,12.287,12.2408,12.1177,12.0562,12.0562,11.9408,11.91,11.9792,11.91,11.91,11.9792,11.91,11.8484,11.7781,11.91,11.9792,12.0023,11.9562,11.8792,11.7704,11.71,11.6726,11.6495,11.6495,11.6495,11.6418,11.5803,11.533,11.4879,0.0,0.0,0.0,0.0,0.0,0.0,0.0,0.0,9.096,9.1819,9.2287,9.2365,9.1975,9.3068,0.0,0.0,9.3146,9.3851,9.3851,9.3849,9.533,9.8844,10.2672,10.5014,10.5404,10.6119,10.6537,10.6363,10.588,10.571,10.6105,10.7386,10.762,10.6799,10.7508,10.5577,10.1863,10.0922,9.9336,9.7479,9.7479,9.7479,9.7479,9.7479,9.717,9.6783,9.6783,0.0,0.0,0.0,0.0,0.0,0.0,0.0,9.7473,9.7771,9.9026,10.0586,10.1673,10.4782,10.9006,11.4418,11.8407,12.1023,12.1497,12.1177,12.1023,12.1485,12.2331,12.3024,12.3408,12.5178,12.6575,12.6101,12.6717,12.7101,12.6806,12.7025,12.7025,12.6178,12.6409,12.6421,12.5486,12.5794,12.5486,12.4178,12.3716,12.3101,12.2331,12.1408,12.0869,12.0869,12.01,11.9869,12.0331,11.9485,11.9485,12.0331,11.9485,11.8869,11.8407,11.8869,11.9331,11.9715,11.9331,11.8407,11.71,11.6726,11.6495,11.6495,11.6495,11.6529,11.6496,11.6133,11.5407,11.481,0.0,0.0,0.0,0.0,0.0,0.0,0.0,0.0,0.0,9.1194,9.2131,9.2365,9.1428,9.2131,9.1977,0.0,0.0,0.0,9.2678,9.3927,9.6033,9.9078,10.2203,10.3921,10.4079,10.4763,10.5363,10.6197,10.5597,10.6122,10.7526,10.93,10.9592,10.8792,10.9383,10.7262,10.3068,10.218,9.9868,9.6827,9.6827,9.6827,9.682,9.679,9.6783,9.6783,9.6783,9.6241,9.5468,9.5468,0.0,0.0,0.0,0.0,9.5917,9.714,9.819,9.9462,10.1679,10.5775,11.0973,11.7276,12.01,12.142,12.1574,12.1574,12.1793,12.2485,12.287,12.3408,12.4409,12.5717,12.6717,12.6871,12.7486,12.764,12.6794,12.7486,12.764,12.6024,12.6332,12.6101,12.4716,12.5717,12.5794,12.4178,12.4101,12.3716,12.2858,12.21,12.1574,12.1574,12.0869,12.0485,12.0485,11.9869,11.9869,12.0485,11.9562,11.9177,11.9331,11.9177,11.9023,11.8869,11.9023,11.81,11.6495,11.6495,11.6495,11.6495,11.6495,11.6562,11.6736,11.6397,11.5503,11.4268,0.0,0.0,0.0,0.0,0.0,0.0,0.0,0.0,0.0,0.0,9.2678,9.3068,9.1507,9.2678,9.2678,9.0181,9.1508,9.2834,9.3615,0.0,0.0,10.0095,10.1969,10.3296,10.4079,10.4231,10.4307,10.4381,10.5086,10.7738,11.2101,11.0173,10.8784,10.7935,10.8688,10.6492,10.2221,10.1381,9.9494,9.6979,9.6979,9.6979,9.6966,9.6834,9.6783,9.6783,9.6783,9.6241,9.5468,9.5468,9.539,0.0,0.0,0.0,9.6536,9.5911,9.6836,9.8374,10.012,10.5716,11.2263,11.6792,11.9177,12.0716,12.142,12.1574,12.1562,12.1716,12.287,12.4409,12.6101,12.6486,12.6871,12.764,12.7782,12.764,12.6794,12.8025,12.8717,12.7717,12.7101,12.6563,12.6421,12.587,12.5178,12.4178,12.4101,12.3716,12.2858,12.21,12.1574,12.1574,12.1497,12.142,12.142,12.1331,12.1331,12.142,11.9792,11.9485,12.01,11.9408,11.8715,11.8023,11.8792,11.81,11.6495,11.6495,11.6495,11.6495,11.6495,11.6562,11.6582,11.5801,11.5026,11.4211,0.0,0.0,0.0,0.0,0.0,0.0,0.0,0.0,0.0,0.0,0.0,9.299,9.0804,9.1663,9.135,8.8774,9.0101,9.1897,9.3693,9.6582,0.0,9.8143,9.9783,10.0563,10.0485,10.15,10.2203,10.2595,10.2984,10.6569,11.3033,11.0804,11.139,11.4091,11.1535,10.8688,10.5715,10.2422,9.9734,9.7733,9.7193,9.7308,9.7775,9.7046,9.718,9.7586,9.6989,9.6241,9.539,9.4934,9.4779,9.4701,9.4315,0.0,0.0,0.0,9.6328,9.7269,10.1202,10.5666,11.0483,11.5176,11.7715,11.9177,12.0562,12.1177,12.1716,12.2177,12.287,12.3793,12.5024,12.6024,12.6729,12.6486,12.7332,12.7397,12.6178,12.7794,12.8486,12.6717,12.7025,12.6794,12.5409,12.5794,12.5563,12.4178,12.4101,12.3716,12.2858,12.21,12.1574,12.1574,12.1574,12.1574,12.1574,12.1574,12.1574,12.1574,12.0408,12.0023,12.0331,11.9869,11.9331,11.8484,11.8869,11.81,11.6495,11.6495,11.6495,11.6495,11.6562,11.6736,11.6676,11.5828,11.5089,11.4296,0.0,0.0,0.0,0.0,0.0,0.0,0.0,0.0,0.0,0.0,0.0,9.26,9.0259,0.0,0.0,0.0,8.8774,9.0648,9.299,0.0,0.0,0.0,9.7985,9.8612,9.7753,9.9392,10.0485,10.0876,10.1112,10.5314,11.3012,11.1506,11.4302,12.0534,11.5165,11.1335,10.8585,10.4165,10.1395,9.9574,9.8025,9.7843,9.8476,9.8084,9.8227,9.8563,9.7812,9.68,9.5708,9.4878,9.4392,9.416,9.3921,9.4005,0.0,0.0,0.0,9.6335,10.1029,10.4271,10.7482,11.2175,11.5099,11.733,11.9023,12.0331,12.1485,12.21,12.2639,12.3101,12.4024,12.5332,12.6332,12.6101,12.7101,12.7486,12.6178,12.7871,12.8563,12.6871,12.7025,12.664,12.487,12.5409,12.5178,12.387,12.3793,12.3485,12.2858,12.21,12.1574,12.1574,12.1574,12.1574,12.1574,12.1574,12.1574,12.1574,12.0485,12.01,12.0331,12.01,11.9715,11.91,11.91,11.81,11.6495,11.6517,11.6617,11.6628,11.6659,11.6774,11.6788,11.617,11.5436,11.4491,0.0,0.0,0.0,0.0,0.0,0.0,0.0,0.0,0.0,0.0,0.0,9.1899,9.0181,9.0804,9.0257,8.7601,8.8227,8.9555,9.1272,0.0,0.0,0.0,9.7597,0.0,9.7753,9.9392,9.9939,9.9156,9.9939,10.4689,11.3092,11.2231,11.6194,12.4126,11.8889,11.3735,10.8828,10.6962,10.5074,10.3121,9.9894,9.867,9.8826,10.0334,10.0398,9.9678,9.9512,9.8354,9.6765,9.5779,9.4849,9.4082,9.3302,9.3611,9.4082,0.0,0.0,0.0,9.7558,10.0394,10.3712,10.7175,11.1175,11.4638,11.633,11.8561,12.0408,12.0408,12.1716,12.3101,12.4024,12.4793,12.6024,12.7474,12.7782,12.7859,12.7782,12.864,12.9487,13.0179,12.7486,12.5794,12.6486,12.4486,12.3101,12.3024,12.3024,12.2858,12.287,12.21,12.1574,12.1574,12.1574,12.1574,12.1574,12.1574,12.1574,12.1574,11.9869,11.9562,12.0331,11.9485,11.91,11.91,11.91,11.81,11.6495,11.6605,11.6736,11.6669,11.6774,11.6885,11.6972,11.6895,11.5879,11.4577,0.0,0.0,0.0,0.0,0.0,0.0,0.0,0.0,0.0,0.0,0.0,0.0,0.0,9.1116,9.0726,8.9164,9.0335,0.0,0.0,0.0,0.0,0.0,9.6503,9.6894,9.6035,9.8299,9.9312,9.9,9.9312,10.3594,11.1373,11.0514,11.2907,11.7771,11.6025,11.4438,11.2776,10.716,10.4412,10.3603,10.0635,10.0216,10.1278,10.1598,10.2017,10.2386,10.2128,10.0618,9.8438,9.6967,9.6222,9.5545,9.3611,9.3534,9.3991,9.3159,9.3609,9.4809,9.6411,9.7745,9.9556,10.3501,10.7216,11.0402,11.212,11.5715,11.8715,11.8715,12.0023,12.1716,12.3101,12.4486,12.5563,12.6178,12.6794,12.7101,12.7101,12.7794,12.8717,12.9563,12.8563,12.7486,12.6806,12.587,12.487,12.3793,12.3178,12.287,12.287,12.21,12.1574,12.1574,12.1574,12.1331,12.0793,12.0793,12.0485,12.0023,11.9869,12.0023,12.0331,12.0562,12.0408,11.9792,11.941,11.852,11.7518,11.7496,11.7164,11.6784,11.6885,11.703,11.6904,11.6516,11.5934,11.5428,0.0,0.0,0.0,9.705,0.0,9.4786,9.3927,9.2834,9.2365,9.2834,0.0,0.0,0.0,0.0,9.135,9.0492,9.1664,9.2834,9.3771,9.3771,0.0,0.0,9.6894,9.7284,9.6425,9.837,9.9385,9.9468,9.915,10.2572,10.9578,10.9031,11.1035,11.496,11.3311,11.3374,11.4688,10.9199,10.6614,10.5835,10.2877,10.2425,10.3594,10.5114,10.5436,10.5061,10.5721,10.4012,10.0982,9.891,9.7626,9.6469,9.4448,9.3799,9.3637,9.2967,9.3176,9.3773,9.4861,9.5742,9.74,10.1568,10.4609,10.7169,11.0032,11.3714,11.6715,11.7176,11.8869,12.0793,12.2639,12.4024,12.5101,12.5409,12.587,12.6486,12.7025,12.7332,12.7871,12.9102,12.8717,12.8025,12.7178,12.6101,12.5178,12.4562,12.3178,12.2716,12.3332,12.2177,12.1574,12.1574,12.1574,12.1331,12.0716,12.0408,12.0023,11.9485,11.9485,11.9562,11.9869,12.0485,12.0562,12.0266,11.984,11.896,11.7969,11.7822,11.7278,11.6885,11.6991,11.7106,11.7038,11.6484,11.6201,11.5815,10.0173,10.0407,9.9861,9.8143,9.7753,9.6894,9.4317,9.3927,9.3927,9.3927,0.0,0.0,0.0,0.0,0.0,9.1583,9.2209,9.299,9.3847,9.3925,9.4626,9.6422,9.9,9.9937,9.9156,9.9918,10.0309,10.0407,9.945,10.2012,10.7785,10.7788,11.0971,11.6402,11.1376,11.1023,11.4018,11.3005,11.1836,11.013,10.6622,10.5235,10.569,11.0605,11.0287,10.761,11.0164,10.8471,10.4483,10.177,9.9139,9.6909,9.5733,9.418,9.279,9.279,9.2673,9.2541,0.0,0.0,0.0,10.1327,10.3107,10.5107,11.0011,11.2483,11.4176,11.6034,11.8331,12.0562,12.2485,12.3485,12.4332,12.5178,12.5409,12.6024,12.7705,12.7178,12.7409,12.9102,12.7794,12.7101,12.7782,12.5024,12.3716,12.5178,12.3113,12.2408,12.4024,12.2485,12.1562,12.1562,12.1574,12.1574,12.1574,12.0716,12.0331,12.0177,11.8638,11.8331,11.91,11.91,11.9562,12.0342,12.0456,11.9587,11.7979,11.7281,11.6982,11.6991,11.7094,11.7207,11.7207,11.7207,11.6666,11.5892,10.1891,10.2593,10.2517,10.08,9.9939,9.9158,9.7751,9.6502,9.5879,0.0,0.0,0.0,9.5721,9.6035,9.6186,9.5855,9.6089,9.6314,9.6529,9.5983,9.6685,9.9026,10.0373,10.1631,10.2722,10.2267,10.2431,10.2984,10.2197,10.2889,10.5212,10.6385,10.7763,10.9423,11.0504,11.0478,10.942,10.7316,10.8563,11.1689,10.5764,10.6394,11.0723,11.0236,11.0574,11.1624,11.2796,11.1194,10.8094,10.5499,10.3068,10.0516,9.6589,9.4094,9.2627,9.1933,9.1699,9.1694,9.1694,0.0,0.0,0.0,0.0,0.0,10.2809,10.502,10.7867,11.2022,11.3407,11.5407,12.01,12.1716,12.2562,12.3408,12.5101,12.6871,12.864,12.8102,12.8409,13.0718,13.0102,12.9025,12.8012,12.7089,12.5858,12.4639,12.3793,12.3562,12.4101,12.3101,12.2485,12.2485,12.187,12.1343,12.0716,11.9792,11.91,11.8484,11.8011,11.8331,11.91,11.9715,12.0408,12.1189,12.0786,12.0409,11.9792,11.8468,11.7561,11.7085,11.7189,11.7207,11.7207,11.7207,11.6966,11.682,10.3687,10.4623,10.4625,10.2908,10.2203,10.1578,10.072,9.9705,9.9232,0.0,0.0,0.0,9.8582,10.0228,10.0777,9.9358,9.9202,9.92,9.9195,9.8391,9.8773,10.0738,10.2226,10.3399,10.402,10.3872,10.388,10.4127,10.3178,10.317,10.4104,10.5807,10.6716,10.7065,10.8372,10.8899,10.8563,10.529,10.6503,11.0439,10.7618,10.9004,11.2795,11.3477,11.3974,11.4614,11.6161,11.4299,11.0686,10.8427,10.5267,10.163,9.7551,9.5624,9.4467,9.2924,9.2635,9.2712,9.2019,9.2712,9.4013,9.5883,0.0,0.0,10.1731,10.3328,10.5482,10.9637,11.1021,11.2868,11.7407,11.9177,12.0408,12.1639,12.4024,12.6101,12.7409,12.7178,12.7486,12.941,12.9179,12.8794,12.8486,12.7486,12.6717,12.6332,12.487,12.4101,12.4101,12.4024,12.3639,12.287,12.2408,12.1716,12.0869,12.0023,11.9331,11.8792,11.8792,11.91,11.9562,12.0485,12.11,12.1585,12.0973,12.0683,12.0616,11.9377,11.839,11.7671,11.7285,11.7207,11.7207,11.7207,11.7207,11.7207,0.0,10.6185,10.6263,10.47,10.4387,10.4073,10.3288,10.3132,10.3126,0.0,10.3495,10.3407,10.3067,10.55,10.5823,10.2936,10.2314,10.1934,10.1564,10.0896,10.0877,10.1687,10.4004,10.5081,10.4691,10.5214,10.5218,10.4619,10.3498,10.342,10.4229,10.5676,10.6821,10.7426,10.5983,10.6901,10.9477,10.5888,10.5583,10.7821,11.038,11.2099,11.3619,11.829,11.8591,11.6768,11.9436,11.7222,11.2823,11.0677,10.6463,10.1766,9.899,9.8107,9.76,9.4912,9.4706,9.4951,9.3326,9.4104,9.6028,9.9029,9.9404,0.0,10.3712,10.4482,10.5328,10.8098,10.9637,11.1406,11.433,11.6176,11.7715,11.9177,12.1793,12.4101,12.5409,12.5563,12.6024,12.6883,12.7114,12.7563,12.8871,12.7101,12.6717,12.8794,12.6101,12.4332,12.4178,12.487,12.4486,12.2858,12.2793,12.2408,12.1574,12.0716,12.0331,12.0331,12.0177,12.0331,12.0485,12.11,12.1574,12.1739,12.1127,12.076,12.0781,12.0063,11.9296,11.8531,11.7671,11.7285,11.7285,11.7207,11.7207,11.7207,10.6263,10.7122,10.7428,10.6315,10.6078,10.6068,10.5888,10.5339,10.5266,10.669,10.747,10.95,11.3396,11.1425,10.9687,10.9734,10.7086,10.458,10.2532,10.2202,10.251,10.3375,10.457,10.653,10.9107,10.7333,10.7034,10.8211,10.5864,10.4912,10.5123,10.5431,10.5511,10.5509,10.5809,10.5882,10.596,10.721,10.8082,10.8564,10.983,11.3428,11.7962,11.8222,11.852,11.8928,11.9495,11.8031,11.5234,11.1904,10.8969,10.6103,10.2167,10.0792,9.9962,9.6739,9.6412,9.6788,9.5788,9.6249,9.7173,9.7865,9.9404,0.0,10.1029,10.1106,10.2183,10.6097,10.5482,10.602,11.1329,11.3011,11.3791,11.4099,11.8023,12.2331,12.587,12.7025,12.7717,12.864,12.9333,12.9333,12.8332,12.8332,12.8102,12.7268,12.6563,12.587,12.5178,12.4639,12.387,12.2858,12.2177,12.1804,12.1574,12.0716,12.0331,12.0331,11.9562,12.0023,12.1331,12.0793,12.1331,12.2574,12.1975,12.1686,12.163,12.099,12.0224,11.9373,11.8522,11.8213,11.8058,11.7439,11.7207,11.7207,10.7185,10.7963,10.8271,10.74,10.7629,10.7863,10.7863,10.7931,10.8778,11.1431,11.4286,11.6211,11.6215,11.4909,11.3408,11.1815,10.8801,10.6294,10.4722,10.4079,10.3865,10.4433,10.5612,10.6815,10.8066,10.8087,10.7864,10.748,10.6624,10.583,10.486,10.5337,10.5493,10.556,10.5823,10.6127,10.638,10.7132,10.7883,10.9015,11.17,11.5135,11.87,11.9584,12.0264,12.0707,12.0317,11.8291,11.5174,11.079,10.9333,0.0,10.4303,10.3888,10.4328,0.0,9.9712,10.0096,9.7557,9.748,9.8327,9.9173,0.0,0.0,0.0,10.1327,10.1712,10.5097,10.4097,10.3866,10.8164,10.9626,11.0791,11.2406,11.5561,11.9023,12.2408,12.4409,12.5704,12.664,12.7025,12.7332,12.7332,12.7717,12.7409,12.6101,12.5563,12.5178,12.4793,12.4332,12.387,12.3485,12.3101,12.2793,12.2793,12.2024,12.1793,12.2177,12.1408,12.1408,12.2177,12.2177,12.2177,12.2266,12.2515,12.2303,12.1938,12.1222,12.0689,12.0302,11.9373,11.8841,11.8377,11.8368,11.7904,11.7285,10.8032,10.8576,10.8883,10.8095,10.8716,10.9421,10.9512,11.0199,11.1962,11.5814,12.0223,12.1674,11.8291,11.8321,11.7406,11.4399,11.1035,10.8836,10.8086,10.6678,10.5871,10.5913,10.677,10.727,10.7086,10.8581,10.8397,10.6529,10.6698,10.6071,10.4823,10.55,10.5916,10.6115,10.6059,10.6863,10.802,10.7027,10.801,11.0494,11.4286,11.6169,11.7186,12.0601,12.1672,12.1226,12.029,11.8115,11.4875,11.0316,10.9935,11.0709,10.6901,10.7488,0.0,0.0,0.0,0.0,0.0,0.0,0.0,0.0,0.0,10.2106,0.0,0.0,0.0,10.4482,10.3789,10.3482,10.5482,10.6636,10.8098,11.0791,11.3022,11.5022,11.71,11.9638,12.1716,12.3178,12.3485,12.4178,12.5794,12.5794,12.5563,12.5409,12.4332,12.3716,12.387,12.387,12.3793,12.3562,12.3562,12.3562,12.3562,12.3024,12.3024,12.3562,12.3101,12.287,12.287,12.3639,12.3101,12.1893,12.2592,12.2612,12.1938,12.1377,12.1308,12.1075,11.9915,11.8987,11.8531,11.8987,11.8368,11.7285,10.8285,10.8679,10.8978,10.807,10.9228,11.0226,11.0162,11.0926,11.3226,11.7864,12.0587,12.3289,12.6266,12.3489,12.1928,12.3034,11.8027,11.4224,11.3063,11.0764,10.942,10.9426,10.8627,10.9293,11.18,10.9623,10.8707,10.9172,10.7001,10.5761,10.5705,10.5882,10.5864,10.5603,10.6821,10.8019,10.9109,10.8363,11.1019,11.5726,11.6237,11.4968,11.3522,11.9195,12.0066,11.8278,11.7412,11.6772,11.6104,0.0,11.3419,11.358,0.0,11.1597,11.1637,10.8021,0.0,0.0,0.0,0.0,0.0,0.0,10.6328,0.0,0.0,0.0,10.4482,10.4097,0.0,10.3789,10.4097,0.0,0.0,10.5867,10.8724,11.0878,11.1186,11.3407,11.6407,12.0331,12.1408,12.2331,12.3178,12.2562,12.3113,12.5178,12.3178,12.2177,12.3024,12.3024,12.2716,12.187,12.187,12.187,12.187,12.1804,12.1804,12.187,12.2562,12.287,12.287,12.3024,12.287,12.2728,12.2284,12.1995,12.1938,12.2073,12.2236,12.1926,11.9528,11.8531,11.8299,11.7671,11.7439,11.7207,10.887,10.9015,10.8916,10.8029,10.9273,11.0493,11.0788,11.6102,12.0322,12.0762,12.5523,12.9063,12.9816,12.6912,12.5085,12.5429,12.1207,11.7641,11.5164,11.349,11.2484,11.2484,11.1035,11.0714,11.1895,11.08,10.9791,10.9183,10.7707,10.6935,10.6875,10.5984,10.6103,10.7108,10.8065,10.9293,11.0531,10.9721,11.0605,11.2592,11.3591,11.3109,11.259,12.0109,12.1962,12.0286,11.8497,11.7485,11.6612,0.0,11.3522,0.0,0.0,0.0,0.0,11.1406,0.0,0.0,0.0,0.0,0.0,0.0,0.0,0.0,10.5164,0.0,10.3789,0.0,0.0,0.0,0.0,0.0,0.0,0.0,10.7098,10.8329,10.9329,11.0406,11.2406,11.6176,11.7407,11.8484,11.9792,11.8715,11.8792,12.0793,11.91,11.8715,12.0639,12.11,12.1716,12.2331,12.2408,12.2562,12.3024,12.2562,12.2793,12.3793,12.3178,12.3408,12.4409,12.4409,12.4101,12.3574,12.3362,12.301,12.2623,12.1772,12.1483,12.1385,11.976,11.9219,11.9064,11.8832,11.7981,11.7285,10.9865,10.9382,10.8821,10.8185,10.9633,11.1364,11.2961,11.9767,12.4386,12.3388,12.8436,13.2192,13.2469,12.9786,12.8402,12.9413,12.5407,12.1759,11.9371,11.7266,11.6065,11.601,11.397,11.2908,11.3083,11.2303,11.1098,10.9637,10.8329,10.7713,10.7713,10.6188,10.6266,10.7701,10.9211,11.0505,11.1722,11.1414,11.1799,11.2777,11.384,11.4577,11.5714,12.0939,12.2636,12.18,11.9391,11.7887,11.6397,11.3336,11.3838,0.0,11.3439,0.0,11.633,0.0,0.0,0.0,11.0714,0.0,0.0,0.0,0.0,0.0,0.0,0.0,0.0,0.0,0.0,0.0,0.0,0.0,10.4713,10.6174,0.0,10.6482,10.7713,10.7867,10.9098,11.256,11.3868,11.5176,11.6638,11.5022,11.4791,11.7023,11.5099,11.5176,11.8177,11.9177,12.0408,12.21,12.2716,12.3101,12.3408,12.3101,12.3408,12.4332,12.3562,12.3793,12.4716,12.487,12.4716,12.4101,12.3768,12.3506,12.3086,12.1722,12.1213,12.1308,12.0379,11.9915,11.9683,11.9373,11.86,11.7594,11.1376,10.9865,10.8795,10.8735,11.0606,11.347,11.7632,12.002,12.2312,12.5327,12.6892,12.9806,13.5311,13.2603,13.253,13.75,13.1998,12.8062,12.769,12.3482,12.0717,12.0166,11.7725,11.6596,11.7217,11.424,11.2329,11.1395,10.8867,10.7713,10.7723,10.7016,10.6621,10.661,10.9492,11.1516,11.2723,11.3795,11.6666,12.0407,11.9633,12.123,12.3832,12.0794,12.033,12.1017,11.8913,0.0,0.0,11.5293,11.5671,0.0,0.0,0.0,0.0,0.0,0.0,0.0,0.0,0.0,0.0,11.1098,0.0,0.0,0.0,0.0,10.779,0.0,0.0,0.0,0.0,0.0,10.5405,10.6328,10.5713,0.0,0.0,10.5184,10.6482,10.9867,11.1791,11.3099,11.4022,11.1791,11.1802,11.5099,11.2329,11.2186,11.6418,11.7407,11.8638,12.0331,12.2024,12.2485,12.1727,12.2485,12.2485,12.1716,12.3332,12.3716,12.3024,12.3793,12.4101,12.4024,12.2536,12.2427,12.3086,12.2427,12.2073,12.2236,12.1308,12.0379,11.9606,11.8841,11.8377,11.8299,11.2,11.1318,11.0491,10.9526,11.1269,11.4561,11.9219,12.2726,12.6072,12.9613,13.2182,13.5624,14.0627,13.8306,13.729,13.9611,13.5891,13.2497,13.0079,12.7411,12.5717,12.5169,12.2314,12.0872,12.1288,11.8435,11.6176,11.4791,11.2791,11.1637,11.1021,10.9134,10.8431,10.8975,11.0184,11.1585,11.31,11.4831,11.663,11.8427,12.023,12.2581,12.4883,12.257,12.1974,12.2088,12.0168,11.9189,0.0,11.8002,11.7561,11.733,11.7023,11.6869,11.6715,11.5561,11.5561,0.0,0.0,0.0,11.5803,11.2637,0.0,0.0,0.0,0.0,0.0,0.0,0.0,0.0,0.0,0.0,10.5184,10.5482,10.5328,10.4866,0.0,10.4328,10.4713,10.5867,10.7482,10.8626,10.8934,10.7713,10.779,11.0098,10.9175,11.0098,11.3791,11.6407,11.81,11.8638,12.0869,12.1562,12.0716,12.1562,12.2177,12.2485,12.3024,12.3716,12.4562,12.4793,12.5332,12.5806,12.4687,12.4087,12.3892,12.3086,12.2582,12.2063,12.1898,12.1308,12.0379,11.8909,11.8058,11.7594,11.3681,11.338,11.27,11.1085,11.3588,11.7165,12.129,12.5936,12.9929,13.2667,13.5716,13.9325,14.3532,14.1569,14.0467,14.2009,13.929,13.6071,13.2662,13.0999,12.9631,12.8122,12.5934,12.4409,12.3802,12.1898,11.9562,11.7023,11.5869,11.4638,11.3099,11.0868,11.0021,11.0196,11.1028,11.1991,11.3236,11.6314,11.7981,11.8902,12.138,12.3716,12.5178,0.0,12.3101,12.2793,0.0,12.1023,12.0716,12.0177,11.9792,11.9485,11.8484,11.8331,11.8111,11.688,11.6715,11.7023,11.7023,11.7176,0.0,11.5022,11.3714,0.0,10.8482,0.0,0.0,0.0,0.0,0.0,0.0,0.0,10.602,10.602,10.5482,10.4713,0.0,10.3174,10.3097,10.3405,10.4866,10.579,10.5482,10.502,10.5097,10.6328,10.6328,10.779,11.1175,11.4638,11.6715,11.733,12.0408,12.1485,12.0331,12.1485,12.2177,12.2408,12.2793,12.3485,12.4486,12.4793,12.5409,12.6178,12.5024,12.4403,12.421,12.3132,12.2489,12.2091,12.2237,12.1666,12.0766,11.9373,11.8213,11.7207,11.6396,11.6189,11.5495,11.3921,11.7297,12.1177,12.387,12.9102,13.3192,13.4372,13.7424,14.0796,14.4223,14.2723,14.2284,14.4682,14.2213,13.9021,13.5689,13.4357,13.2383,12.932,12.853,12.7096,12.5002,12.4509,12.2177,11.8177,11.8023,11.6638,11.4099,11.2406,11.1098,11.0329,11.1868,11.2637,11.3011,11.8023,12.0793,12.187,12.3562,12.4716,12.5409,12.4639,12.3793,12.3101,12.3101,12.2485,12.1881,12.1881,12.2331,12.2485,12.01,12.0408,12.1035,11.7726,11.733,11.8011,11.8023,11.8638,11.91,11.8177,0.0,0.0,0.0,0.0,11.3022,0.0,0.0,0.0,0.0,0.0,0.0,10.7636,0.0,0.0,10.2789,10.1866,10.1712,10.2404,10.3866,10.4569,10.402,10.3789,10.3789,10.3866,10.3876,10.5328,10.8636,11.2099,11.4714,11.6341,12.0485,12.187,12.0331,12.187,12.2408,12.1485,12.2408,12.287,12.287,12.3716,12.4486,12.5178,12.3716,12.339,12.4122,12.2515,12.204,12.2081,12.2091,12.1609,12.0766,11.9992,11.86,11.7207,11.6908,11.9134,12.1083,12.1226,12.0696,12.1793,12.6166,12.8794,13.1879,13.6894,14.0224,14.328,14.6384,14.5864,14.5386,14.5463,14.3774,14.1869,13.9701,13.806,13.6498,13.461,13.2094,13.0576,13.0272,12.7515,12.5178,12.3408,12.0869,11.8715,11.6792,11.3791,11.2022,11.1175,11.0868,11.1483,11.3022,11.6792,12.0793,12.4486,12.5563,12.6178,12.6409,0.0,12.6781,12.6486,12.5178,12.5024,12.5421,12.5421,12.4716,12.3639,12.2331,12.1793,12.1343,11.9792,12.0408,12.1408,12.0793,12.1331,12.1716,12.0793,11.9177,11.733,0.0,0.0,0.0,0.0,0.0,0.0,0.0,0.0,0.0,10.6856,0.0,0.0,10.2789,10.2404,10.2097,10.1712,10.1481,10.2029,10.3712,10.2183,10.1876,10.3799,10.3328,10.4097,10.6856,11.1483,11.4176,11.4561,11.8177,11.9869,11.9408,12.0408,12.0869,12.0562,12.1485,12.2331,12.287,12.3101,12.3716,12.4409,12.4024,12.3574,12.3225,12.2778,12.2372,12.197,12.2139,12.13,11.9992,11.976,11.86,11.7285,11.9883,12.2783,12.5586,12.6664,12.6332,12.6794,12.9717,13.1487,13.3909,13.7926,14.1778,14.4626,14.5477,14.6991,14.749,14.6336,14.5466,14.4011,14.1618,14.0936,13.9598,13.7297,13.5801,13.4165,13.2611,13.0493,0.0,12.5409,12.3101,12.0716,11.8331,11.533,11.3022,11.1472,11.1021,11.1329,11.2472,11.7407,12.1793,12.5486,12.6332,12.6871,0.0,12.7705,12.8409,12.8871,12.8025,12.7717,12.7794,12.7794,12.7101,12.6101,12.487,12.4178,12.3562,12.2331,12.21,12.2408,12.2562,12.2793,12.3024,12.3178,12.2177,12.0716,11.91,11.9177,11.8484,0.0,0.0,0.0,0.0,0.0,0.0,0.0,0.0,0.0,0.0,10.2635,10.2327,10.1394,10.0635,10.1029,10.3097,10.1019,10.0404,10.2635,10.2712,10.3482,10.5713,11.0714,11.3637,11.4022,11.7715,11.9562,11.9562,12.0485,12.0869,12.0869,12.142,12.187,12.2408,12.3101,12.3716,12.4101,12.4486,12.4409,12.387,12.3171,12.2735,12.2404,12.2175,12.1068,11.9683,12.007,11.8987,11.7285,12.4163,12.6886,12.9369,13.0472,13.241,13.3885,13.4116,13.6026,13.7796,13.8796,14.3258,14.572,14.4105,14.7413,14.9029,14.7413,14.7105,14.5797,14.2797,14.3028,14.1874,13.8719,13.8873,13.7411,13.3577,13.3115,13.0487,0.0,12.4486,12.2177,11.8715,11.6176,11.3714,11.1318,11.1318,11.1626,11.2637,11.8869,12.3024,12.5332,12.6409,12.7332,12.7935,12.832,12.9333,13.0487,13.0718,13.0333,12.9487,12.9487,12.9487,12.9102,12.7486,12.6871,12.6486,12.487,12.3332,12.2408,12.387,12.3793,12.3639,12.5024,12.5486,12.5024,12.2562,12.1485,12.0177,11.7726,11.6484,0.0,0.0,0.0,0.0,0.0,0.0,0.0,0.0,10.2635,10.2097,10.1164,10.0173,0.0,10.1866,10.0019,9.9404,10.1317,10.202,10.302,10.4723,0.0,11.2714,11.3791,11.7715,12.0023,12.0331,0.0,12.142,12.142,12.1485,12.1574,12.1562,12.3101,12.3793,12.4024,12.4562,12.5024,12.5101,12.3408,12.2786,12.2768,12.2289,12.1126,11.9819,12.067,11.9442,11.7517,12.7897,13.093,13.2871,13.173,13.518,13.8719,14.0104,14.0719,14.1566,14.3105,14.7105,14.949,14.849,14.9567,15.0106,14.9106,14.8413,14.7413,14.6105,14.4874,0.0,14.1258,13.9425,13.7565,13.618,13.341,13.0487,0.0,12.4474,12.1023,11.6869,11.433,11.2175,11.0406,11.0406,11.2406,11.5869,11.9881,12.2716,12.4486,12.6794,12.7794,12.8089,13.0179,13.0794,13.0718,13.2115,13.2025,13.1333,13.1333,13.0794,13.0102,12.9102,12.8332,12.7486,12.6486,12.5486,12.4793,12.5101,12.5101,12.5024,12.5332,12.587,12.619,12.5024,12.4562,12.3793,12.1177,12.0023,11.8484,11.5561,0.0,0.0,0.0,0.0,0.0,0.0,0.0,10.1173,10.0404,9.8327,9.7634,9.9327,9.8404,9.9019,10.2097,10.1173,10.1337,10.2866,0.0,11.0637,0.0,11.5715,0.0,0.0,0.0,12.0485,12.0485,12.1343,12.1574,12.1574,12.187,12.2408,12.3101,12.2485,12.3101,12.4178,12.2485,12.1862,12.1987,12.1974,12.1007,11.9628,12.0478,11.9686,11.829,13.2795,13.4103,13.518,13.618,13.9104,14.2027,14.4182,14.6028,14.649,14.4629,14.6875,14.8413,14.7567,14.9798,15.1029,15.0183,14.9721,14.8875,14.7721,14.6798,14.5567,14.3874,14.2335,14.0566,13.8796,13.5411,13.2179,12.9179,12.5409,12.1639,11.7792,11.4791,11.2483,11.0868,11.1329,11.3868,11.8023,12.1023,0.0,12.5563,12.7717,12.8782,12.941,13.0564,13.141,13.1795,13.2192,13.2333,13.2269,13.1884,13.141,13.1025,13.0102,12.9563,12.9025,12.7717,12.6409,12.5486,12.6036,12.5409,12.487,12.5794,12.6421,12.6498,12.5563,12.5409,12.4716,12.21,12.1343,11.9792,11.6034,11.2868,0.0,0.0,0.0,0.0,0.0,0.0,10.2789,9.9788,9.8327,9.7942,9.8711,9.8404,9.8865,10.0481,10.0337,10.0635,10.1866,0.0,10.9021,0.0,0.0,0.0,0.0,0.0,0.0,12.1035,12.142,12.1574,12.1574,12.21,12.2485,12.287,12.287,12.3562,12.4716,12.3408,12.2478,12.1821,12.1799,12.1125,12.0225,12.0584,12.0024,11.8999,13.7026,13.718,13.7873,14.0412,14.272,14.4874,14.7105,15.0183,15.0798,14.6567,14.7336,14.7875,14.7105,15.0183,15.1875,15.1106,15.0798,15.0106,14.8567,14.8259,14.749,14.5797,14.4874,14.3335,14.0873,13.7873,13.4487,0.0,12.6794,12.287,11.9023,11.5792,11.3407,11.178,11.3176,11.5869,0.0,0.0,12.4793,12.7101,12.8794,12.9871,13.0487,13.0871,13.1884,13.2885,13.241,13.2564,13.2885,13.2179,13.1884,13.1564,13.1025,13.0564,13.0179,12.8871,12.7101,12.5794,12.6486,12.5563,12.4716,12.6101,12.6409,12.6178,12.5563,12.5101,12.4332,12.2331,12.1562,12.01,11.6341,11.4099,0.0,0.0,0.0,0.0,0.0,0.0,10.4328,10.0096,9.8788,9.825,9.825,9.8096,9.8173,9.8481,9.949,10.0481,10.1471,0.0,0.0,0.0,0.0,11.5792,11.9485,0.0,12.0562,0.0,12.1485,12.1574,12.1562,12.2331,12.2716,12.287,12.3408,12.4101,12.4793,12.4332,12.3313,12.2008,12.1777,12.1315,12.0739,12.0668,12.0332,11.9619,13.8873,14.0873,14.2258,14.1797,14.5105,14.8106,14.9106,15.1491,15.2722,15.1491,15.2106,15.2414,15.1491,15.2491,15.2799,15.2029,15.1183,15.0337,14.9413,14.8567,14.749,14.5797,14.4874,14.3566,14.1797,13.9873,13.6488,0.0,0.0,12.4627,11.9023,11.6407,11.433,11.2703,11.5857,0.0,0.0,12.3716,12.6178,12.7859,12.9717,13.041,13.0718,13.2192,13.2885,13.3115,13.3795,13.3564,13.3038,13.2885,13.2423,13.1718,13.1564,13.1102,13.0487,13.0333,12.8486,12.6575,12.6729,12.6024,12.5332,12.5486,12.5486,12.5486,12.5409,12.4178,12.3101,12.2793,12.1485,11.9562,11.688,11.6792,11.5715,0.0,0.0,0.0,0.0,0.0,10.3712,10.2404,9.8865,9.6557,9.6557,9.5788,9.6028,9.748,9.9173,10.0798,10.2404,0.0,0.0,10.8021,0.0,11.4868,11.6803,11.91,0.0,12.0408,12.1177,12.1574,12.1574,12.1727,12.2177,12.287,12.21,12.2331,12.3178,12.3793,12.3562,12.2728,12.1893,12.1192,12.0522,12.0533,12.0595,12.0536,14.2104,14.2412,14.3105,14.5259,14.7105,14.9183,15.2106,15.3414,15.4107,15.4337,15.3722,15.3183,15.2799,15.2568,15.2414,15.2029,15.1722,15.1106,15.0337,14.9875,14.9029,14.7259,14.6413,14.5413,14.4182,14.2027,13.8873,0.0,0.0,0.0,12.1331,11.8177,11.6407,11.5869,0.0,12.1331,12.3485,12.587,12.7871,12.9487,13.0179,13.0487,13.0564,13.1179,13.1795,13.2269,13.2564,13.2872,13.2885,13.241,13.2025,13.1718,13.1718,13.1487,13.1102,13.0564,12.941,12.8179,12.8179,12.7178,12.6409,12.7409,12.6871,12.6178,12.6178,12.487,12.3332,12.2331,12.11,11.9792,11.8331,11.7869,11.733,0.0,0.0,0.0,0.0,0.0,0.0,10.1481,9.8711,9.6865,9.6326,9.6403,9.7019,0.0,9.8942,10.0327,10.2481,0.0,0.0,10.6097,0.0,11.2022,11.4176,11.7792,11.9792,12.0331,12.1177,12.1574,12.1574,12.1574,12.21,12.287,12.2485,12.2639,12.287,12.3166,12.287,12.21,12.1716,12.1366,12.1181,12.1326,12.1029,12.0508,14.4412,14.4182,14.4797,14.8336,14.9106,15.0491,15.4045,15.4261,15.4568,15.603,15.4491,15.326,15.326,15.2799,15.226,15.2029,15.2029,15.1568,15.0798,15.0721,15.0029,14.8259,14.7567,0.0,14.572,14.3874,14.1335,13.7873,13.3872,0.0,0.0,0.0,0.0,0.0,12.2331,12.4332,12.587,12.7794,12.9179,13.0102,13.041,13.0333,13.0102,13.041,13.1025,13.1718,13.2025,13.25,13.2885,13.2269,13.1872,13.1718,13.1718,13.1718,13.1564,13.1025,13.0102,12.9333,12.9487,12.8332,12.7409,12.8794,12.7871,12.6729,12.6729,12.5409,12.3562,12.187,12.11,12.0408,11.9562,11.8869,11.8484,11.8407,0.0,0.0,0.0,0.0,0.0,10.2404,9.9558,9.748,9.6403,9.6788,9.7634,0.0,0.0,10.0096,10.2097,0.0,0.0,0.0,0.0,0.0,0.0,11.6715,11.9023,11.9562,12.0716,12.1177,12.1177,12.1497,12.187,12.2485,12.2793,12.287,12.287,12.287,12.2485,12.2024,12.1727,12.1574,12.1574,12.1666,12.1403,12.0765,14.5336,14.7028,14.8721,15.0414,15.1414,15.2491,15.4184,15.3799,15.4184,15.6799,15.4876,15.326,15.326,15.326,15.2876,15.2106,15.2029,15.1568,15.0798,15.0721,15.0029,0.0,0.0,14.7413,14.572,14.572,14.4028,14.0566,0.0,0.0,13.0333,0.0,12.4793,12.4101,12.6705,12.7409,12.6883,12.941,13.0025,12.9333,13.0179,13.0025,12.9333,13.0179,13.1025,13.1795,13.2731,13.3038,13.3038,13.3038,13.241,13.1718,13.1718,13.1718,13.1718,13.1718,13.0487,12.941,13.0333,12.9179,12.8089,12.9025,12.7871,12.6729,12.6729,12.5409,12.3562,12.187,12.1574,12.1331,12.0408,12.0331,11.9408,11.6869,0.0,0.0,0.0,0.0,0.0,10.6395,10.1866,9.8096,9.648,9.6326,9.7019,0.0,0.0,10.0404,10.1327,0.0,0.0,10.502,10.9175,0.0,11.2714,11.6099,11.7792,11.7869,11.9485,12.0331,12.0331,12.1177,12.1574,12.1727,12.2485,12.287,12.287,12.287,12.287,12.2793,12.187,12.1574,12.1574,12.1574,12.172,12.1667,14.7028,14.7798,14.8721,15.0414,15.1414,15.2414,15.3491,15.3876,15.4568,15.603,15.5492,15.4799,15.4184,15.3106,15.2337,0.0,15.2029,15.1875,0.0,15.1568,15.0798,14.9183,14.9106,14.8336,14.6567,14.649,14.5413,14.3181,0.0,0.0,0.0,12.9102,12.8409,12.7717,12.9563,13.0333,13.0102,13.041,13.0333,13.0102,12.9717,12.9102,12.8397,12.9333,12.9794,13.0102,13.1025,13.1564,13.2102,13.2102,13.1872,13.1718,13.1718,13.1718,13.1718,13.1718,13.1333,13.1025,13.1179,13.0487,12.9871,13.0718,12.9563,12.8563,12.9179,12.6563,12.3793,12.2716,12.11,12.0177,12.1023,12.0716,12.0023,11.9177,0.0,0.0,0.0,0.0,0.0,0.0,10.1404,9.8788,0.0,9.7865,0.0,0.0,0.0,0.0,0.0,0.0,0.0,0.0,10.9329,0.0,11.1868,11.5792,11.81,11.8715,11.9792,12.0562,12.1177,12.1497,12.187,12.2485,12.2177,12.2408,12.287,12.2331,12.2024,12.2024,12.2408,12.21,12.1727,12.2331,12.1816,12.0708,14.7798,14.8182,14.8721,15.0414,15.1183,15.2106,15.403,15.4107,15.4722,15.6492,15.5568,15.4876,15.503,15.3491,0.0,15.2029,15.2029,15.2029,15.2029,15.2029,15.1414,15.0029,14.9721,14.8798,14.7413,0.0,0.0,14.4874,14.1489,13.7103,13.2102,13.2333,13.2102,13.1641,13.2333,13.2487,13.2192,13.1718,13.1102,13.0487,12.9871,12.9179,12.8397,12.9025,12.941,12.9794,13.0333,13.1179,13.2102,13.1795,13.1872,13.2179,13.2179,13.2179,13.2102,13.1795,13.1487,13.1333,13.1564,13.1102,13.0718,13.1487,13.0718,12.9717,13.0025,12.7486,12.4716,12.3639,12.1331,11.9792,12.0485,11.9869,11.9485,11.9792,0.0,11.5407,11.3483,0.0,0.0,0.0,0.0,0.0,0.0,10.0019,0.0,0.0,0.0,0.0,0.0,0.0,0.0,10.6482,11.0098,0.0,11.2868,11.5792,11.7561,11.81,11.9331,12.0485,12.1574,12.1574,12.187,12.2408,12.1793,12.187,12.2408,12.1793,12.1574,12.1727,12.2177,12.21,12.1727,12.2177,12.1485,12.0189,14.8029,14.8259,14.8798,0.0,15.0798,0.0,15.5107,15.4337,15.4491,15.7569,15.5415,15.403,15.5492,15.4261,15.303,15.2183,0.0,0.0,0.0,15.2029,15.1568,15.0721,14.9875,14.9106,14.8106,14.7259,14.649,14.572,14.2412,13.9488,13.7026,13.6103,13.5565,13.5565,13.4718,13.3795,13.3115,13.2885,13.1872,13.0487,13.0487,13.0025,12.9179,12.9333,12.9794,13.0487,13.0487,13.1564,13.2885,13.2025,13.2269,13.3038,13.2885,13.3038,13.2795,13.2025,13.1333,13.0794,13.1487,13.1179,13.0871,13.1564,13.1333,13.0487,12.9487,12.8025,12.6332,12.4486,12.21,12.01,11.9485,11.8638,11.81,11.8869,11.6869,11.5022,11.4022,0.0,0.0,0.0,0.0,0.0,0.0,10.2568,10.3712,0.0,0.0,0.0,0.0,0.0,10.7482,10.9021,11.1483,11.3637,11.5418,11.6099,11.6484,11.6572,11.8407,12.0023,12.1485,12.1574,12.1574,12.1574,12.1574,12.1574,12.1574,12.1574,12.1574,12.1574,12.1727,12.1727,12.1574,12.1727,12.11,12.0331,0.0,0.0,14.949,15.0491,15.1337,15.2183,15.3722,15.4107,15.4491,15.5261,15.5261,15.5107,15.4799,15.3876,15.3491,15.3876,15.326,15.2722,15.2029,15.2029,15.1337,14.9784,14.9644,14.8798,14.7182,14.7028,14.649,14.572,14.3566,14.1489,13.9719,13.8181,13.7103,13.6411,13.5026,13.418,13.3872,13.1872,13.0871,13.0487,13.0487,13.0025,12.9333,12.9871,13.0333,13.0487,13.0487,13.1564,13.2885,13.2025,13.2269,13.2885,13.2179,13.25,13.3038,13.2808,13.2577,13.2269,13.1795,13.2025,13.25,13.2577,13.3026,13.2795,13.0718,12.8871,12.7101,12.5409,12.2485,12.0639,12.1793,12.0177,11.8638,11.8177,11.6484,11.4484,11.2406,0.0,0.0,0.0,10.5867,10.5097,10.3174,10.4713,10.5703,0.0,0.0,0.0,0.0,10.9637,11.0472,11.0868,11.2714,11.4484,11.6187,11.6418,11.6792,11.7484,11.9177,12.0177,12.0562,12.1343,12.1574,12.1574,12.1574,12.1574,12.1574,12.1574,12.1574,12.1727,12.2331,12.2177,12.1727,12.2331,12.1639,12.0331,14.9798,14.9798,14.9798,15.0568,15.1106,15.2106,15.4107,15.4184,15.4414,15.5492,15.5107,15.4799,15.5107,15.4261,15.403,15.4506,15.3414,15.2722,15.2568,15.2183,15.1414,15.0106,14.9721,14.8875,14.749,14.7105,14.649,14.572,14.4412,14.3028,14.172,13.9565,13.8565,13.8411,13.6411,13.5411,13.5334,13.3103,13.2025,13.1564,13.1179,13.0794,13.041,13.0487,13.0718,13.1025,13.0564,13.1795,13.341,13.2102,13.2487,13.3487,13.3026,13.318,13.3718,13.4026,13.3872,13.3487,13.3026,13.318,13.3564,13.3564,13.3872,13.3718,13.1487,12.9717,12.7871,12.5794,12.3024,12.11,12.1639,12.0023,11.8177,11.733,11.6099,11.433,11.1329,11.0406,0.0,10.7175,10.7713,10.779,10.6867,10.8329,10.9021,10.8175,0.0,0.0,11.0098,11.1318,11.2011,11.2011,11.3714,11.5176,11.6495,11.6495,11.6869,11.7792,11.91,11.9792,11.9792,12.1023,12.142,12.1023,12.142,12.1574,12.1574,12.1574,12.1574,12.1562,12.21,12.2024,12.1727,12.21,12.1485,12.0331,15.0183,15.0106,14.9875,15.0568,15.0798,15.1875,15.503,15.4184,15.4107,15.6184,15.4568,15.3799,15.5338,15.4568,15.4184,15.4491,15.303,15.2337,15.3106,15.226,15.1491,15.0721,14.9798,14.9029,14.8182,14.7336,14.6567,14.5874,14.4874,14.4028,14.3181,14.0719,13.9796,14.0335,13.7873,13.6719,13.6334,13.4795,13.3564,13.2731,13.2025,13.1718,13.1564,13.0871,13.1102,13.1564,13.1102,13.241,13.4103,13.2564,13.318,13.4487,13.4334,13.4411,13.4564,13.5334,13.518,13.4795,13.4411,13.4411,13.4487,13.4641,13.4718,13.418,13.2333,13.0564,12.8717,12.6101,12.3562,12.1562,12.0793,11.9177,11.7715,11.6792,11.5792,11.4022,11.0791,0.0,11.0714,10.8482,10.9637,11.0714,11.0868,11.2022,11.2175,11.1109,11.2022,11.2483,0.0,11.2626,11.3099,11.3099,11.4484,11.5726,11.6495,11.6561,11.71,11.7792,11.8792,11.9331,11.9331,12.0869,12.1177,12.0485,12.1343,12.1574,12.1574,12.1574,12.1574,12.1574,12.1574,12.1574,12.1574,12.1574,12.11,12.0485,14.9644,15.0091,15.0568,15.0721,15.1337,15.2183,15.3491,15.3491,15.3414,15.3799,15.3491,15.3414,15.3722,15.2876,15.303,15.4429,15.303,15.2106,15.2183,15.1414,15.0798,15.0721,14.9183,14.8259,14.8182,14.7336,14.6798,14.6721,14.5182,14.4336,14.4105,14.1566,14.0104,13.9398,13.7565,13.6026,13.4564,13.3564,13.2731,13.1872,13.1795,13.1718,13.1718,13.1564,13.1564,13.1795,13.2423,13.3333,13.4334,13.4026,13.4487,13.518,13.4487,13.4795,13.5334,13.5488,13.6488,13.7026,13.4872,13.4795,13.5488,13.618,13.6411,13.5795,13.3423,13.1487,12.9563,12.7025,12.4486,12.2716,12.2485,12.0485,11.8638,11.7715,11.5715,11.3483,11.1637,0.0,11.1406,11.1021,11.1703,11.2868,11.4407,11.3407,11.3176,11.4407,11.3407,11.3022,11.3637,11.4407,11.4868,11.4868,11.5187,11.5726,11.6495,11.7176,11.7715,11.7792,11.9408,12.01,12.01,12.11,12.1485,12.142,12.1485,12.1574,12.1574,12.1574,12.1574,12.1574,12.1574,12.1574,12.1574,12.1574,12.1485,12.142,15.0721,15.1106,15.1414,15.1414,15.1722,15.2337,15.3183,15.2876,15.2799,15.3183,15.2876,15.2799,15.3183,15.2876,15.303,15.3799,15.3106,15.2491,15.2029,15.1183,15.0721,15.0721,14.9106,14.8029,14.749,14.7105,14.6721,14.6336,14.5028,14.4182,14.372,14.1566,14.0566,14.0566,13.8873,13.718,13.5565,13.518,13.3808,13.1795,13.2718,13.2795,13.25,13.2872,13.3103,13.318,13.3564,13.418,13.4872,13.4411,13.4795,13.5411,13.5103,13.5488,13.6334,13.6796,13.7103,13.718,13.6488,13.6334,13.6334,13.6719,13.6796,13.6334,13.418,13.3103,13.1718,12.8717,12.6409,12.4716,12.3716,12.1485,11.9485,11.8638,11.6715,0.0,0.0,11.2791,11.3022,11.3483,11.433,11.5176,11.6484,11.5869,11.5407,11.533,11.4561,11.433,11.4714,11.5099,11.5715,11.6638,11.6638,11.71,11.7869,11.8331,11.8331,11.7792,11.9485,11.9792,11.9023,12.0793,12.1331,12.0869,12.142,12.1331,12.0869,12.142,12.1331,12.0869,12.142,12.1574,12.1574,12.1574,12.1574,12.1485,15.1414,15.1875,15.2029,15.2029,15.2029,15.2183,15.2876,15.2414,15.2183,15.2876,15.2414,15.226,15.2876,15.303,15.303,15.303,15.303,15.2568,15.1799,15.0875,15.0491,15.0721,14.9337,14.8029,14.6875,14.7105,14.6721,14.572,14.4797,14.4028,14.3118,14.1566,14.1181,14.1489,14.0181,13.8565,13.6796,13.7026,13.518,13.2487,13.418,13.4411,13.3718,13.4487,13.4795,13.4564,13.4795,13.5103,13.5411,13.5026,13.5334,13.5795,13.6026,13.6411,13.7026,13.8104,13.7873,13.7411,13.7719,13.7257,13.6796,13.6796,13.6796,13.6411,13.4872,13.4334,13.318,13.041,12.8102,12.6332,12.5024,12.2485,12.0331,11.9485,0.0,0.0,0.0,11.4484,11.4791,11.5495,11.6484,11.7407,11.8331,11.8177,11.7638,11.633,11.6176,11.6099,11.5869,11.6099,11.6869,11.8331,11.8177,11.8331,11.8792,11.9177,11.9023,11.8407,11.9869,11.9869,11.8715,12.0716,12.1177,12.0562,12.1331,12.1177,12.0716,12.1331,12.1177,12.0716,12.1331,12.1497,12.1343,12.1343,12.1343,12.1189,15.0568,15.1414,15.2029,15.2029,15.2029,15.2029,15.2106,15.2029,15.2029,15.2106,15.2029,15.2029,15.2106,15.2106,15.2106,15.2106,15.2106,15.1722,15.0875,15.0029,14.9875,15.0721,14.9875,14.8567,14.6875,14.7721,14.7259,14.572,14.4797,14.4028,14.3105,14.2181,14.1412,14.0719,14.0566,13.9104,13.6873,13.7732,13.6488,13.4334,13.5872,13.6103,13.5411,13.6334,13.6103,13.5488,13.6334,13.6103,13.5565,13.6411,13.6719,13.6796,13.7732,13.7411,13.7103,13.8719,13.9181,13.8796,13.7334,13.6796,13.6796,13.6796,13.6796,13.6565,13.5565,13.418,13.2808,13.1718,12.8871,12.6729,12.6486,12.3805,12.1177,12.0408,0.0,0.0,11.533,11.5792,11.6341,11.6418,11.7869,11.9177,12.0023,11.9408,11.9023,11.8792,11.8792,11.8484,11.7715,11.8407,11.9177,12.01,11.9408,11.8638,11.7869,11.9408,12.0177,12.01,12.11,12.142,12.1331,12.1485,12.1574,12.1485,12.1574,12.1574,12.1485,12.1574,12.1574,12.1485,12.1574,12.11,12.0408,12.0408,12.0408,12.0331,15.1183,15.1799,15.2029,15.2029,15.2029,15.2029,15.2029,15.2029,15.2029,15.2029,15.2029,15.2029,15.2029,15.2029,15.2029,15.2029,15.1491,15.1106,15.0721,14.9413,14.8567,14.8413,14.8567,14.8106,14.6875,14.7182,14.6798,14.572,14.4797,14.4028,14.3105,14.2258,14.172,14.1412,14.1412,14.0335,13.8411,13.9335,13.8181,13.6026,13.7719,13.7873,13.718,13.8027,13.7796,13.7193,13.7488,13.7026,13.6411,13.6719,13.6796,13.6873,13.718,13.7796,13.8565,13.9796,14.0104,13.9796,13.8719,13.8027,13.7501,13.6873,13.6796,13.6719,13.6411,13.5795,13.5026,13.3564,13.141,12.9333,12.7717,12.6024,12.4101,12.2177,0.0,11.9419,11.8484,11.8177,11.8484,11.9485,12.0177,12.0793,12.11,12.0331,11.9562,11.91,11.91,11.9023,11.8638,11.8869,11.9177,11.9485,11.9715,11.9869,12.0177,12.0793,12.0793,12.0331,12.1177,12.1574,12.1574,12.1574,12.187,12.2408,12.1793,12.1343,12.0793,12.142,12.1343,12.0793,12.142,12.142,12.1023,12.0485,12.0331,12.0177,15.1722,15.2029,15.2029,15.2029,15.2029,15.2029,15.2029,15.2029,15.2029,15.2029,15.2029,15.2029,15.2029,15.2029,15.2029,15.2029,15.1183,15.0568,15.0337,14.8721,14.749,14.6875,14.8029,14.8029,14.6567,14.7028,14.6567,14.5336,14.472,14.4028,14.3105,14.2258,14.1874,14.1874,14.1874,14.1104,13.9796,14.0566,13.9719,13.7719,13.9412,13.9565,13.9027,13.9796,13.9412,13.8488,13.8796,13.8027,13.6873,13.7411,13.718,13.6873,13.7719,13.9027,14.0181,14.0489,14.1027,14.1104,14.0027,13.9335,13.8565,13.7488,13.718,13.7103,13.6873,13.6565,13.6103,13.4872,13.3333,13.1487,12.9487,12.8409,12.7101,12.4486,12.3408,12.2485,12.1562,12.1023,12.1177,12.2562,12.3024,12.3189,12.3189,12.2177,12.1331,12.0716,12.0408,12.0408,12.0716,12.0716,12.0562,12.0331,12.0793,12.1331,12.1574,12.1574,12.1343,12.0716,12.1331,12.1574,12.1574,12.1574,12.187,12.2485,12.187,12.1343,12.0793,12.142,12.1177,12.0793,12.142,12.142,12.11,12.0485,12.0485,12.0562,15.1722,15.2029,15.2029,15.2029,15.2029,15.2029,15.2029,15.2029,15.2029,15.2029,15.2029,15.2029,15.2029,15.2029,15.2029,15.2029,15.1183,15.0414,14.9476,14.7875,14.6875,14.6875,14.8567,14.8336,14.5797,14.7259,14.6875,14.4412,14.4412,14.4028,14.3105,14.2258,14.1874,14.1874,14.1874,14.1412,14.0719,14.1489,14.0873,13.9488,14.1181,14.1412,14.0719,14.1566,14.0796,13.9398,14.0335,13.9027,13.7103,13.8719,13.8181,13.7334,13.9796,14.1181,14.172,14.0873,14.1797,14.272,14.1104,14.0566,14.0181,13.8502,13.8117,13.7886,13.7026,13.6103,13.5488,13.5488,13.418,13.2808,13.1872,13.1102,12.9717,12.7101,12.6024,12.5101,12.4332,12.4101,12.4486,12.5332,12.6178,12.6729,12.6729,12.5101,12.4101,12.4101,12.3408,12.3332,12.4101,12.4101,12.3793,12.3024,12.287,12.2485,12.1562,12.1574,12.1574,12.1574,12.1574,12.1574,12.1562,12.1574,12.1574,12.1562,12.1574,12.1574,12.1574,12.1574,12.1574,12.1574,12.1574,12.11,12.0331,12.0331,12.0869,12.142,15.1568,15.1491,15.1337,15.1875,15.2029,15.2029,15.2029,15.2029,15.2029,15.2029,15.2029,15.2029,15.2029,15.2029,15.2029,15.2029,15.1183,15.0106,14.8721,14.8106,14.749,14.6875,14.7413,14.7105,14.572,14.6182,14.6105,14.5336,14.472,14.4336,14.4028,14.3105,14.2412,14.1874,14.1874,14.1797,14.1489,14.1797,14.1566,14.1181,14.172,14.172,14.1489,14.1797,14.1181,14.0181,14.0489,13.9719,13.8642,13.909,13.9027,13.8796,14.0181,14.1566,14.2489,14.1027,14.1797,14.272,14.1104,14.1027,14.1027,13.8732,13.7565,13.7103,13.6873,13.6565,13.618,13.5565,13.5103,13.4334,13.2885,13.2872,13.2333,12.9794,12.9102,12.8486,12.7025,12.6794,12.6871,12.7089,12.7871,12.8179,12.764,12.7101,12.6486,12.6024,12.5717,12.5409,12.5024,12.5563,12.5794,12.5563,12.5024,12.4486,12.4332,12.3101,12.2485,12.2485,12.3101,12.3716,12.4178,12.3024,12.3178,12.4178,12.242,12.187,12.2485,12.187,12.1574,12.1727,12.2331,12.2024,12.1177,12.1177,12.1023,12.0562,15.2106,15.1799,15.1491,15.2414,15.2183,15.2029,15.2029,15.2029,15.2029,15.2029,15.2029,15.2029,15.2029,15.2029,15.2029,15.2029,15.0875,14.9798,14.8798,14.8106,14.749,14.6875,14.6875,14.649,14.572,14.572,14.549,14.5182,14.472,14.4412,14.4412,14.3181,14.2489,14.2412,14.2027,14.1874,14.1874,14.1874,14.1874,14.1874,14.1874,14.1874,14.1874,14.1874,14.1566,14.1104,14.1104,14.0566,13.9873,14.0566,14.1027,14.1321,14.1489,14.2489,14.3335,14.2027,14.2566,14.3181,14.1566,14.1181,14.0873,13.9027,13.8411,13.8104,13.7488,13.7257,13.718,13.6565,13.6334,13.5565,13.418,13.4718,13.4564,13.241,13.2025,13.1487,13.0102,12.964,12.941,12.941,12.9871,13.0102,12.9871,12.9025,12.8102,12.7178,12.7486,12.7486,12.6871,12.7101,12.7178,12.7178,12.6409,12.587,12.587,12.5178,12.4409,12.3408,12.4562,12.5024,12.487,12.4178,12.4332,12.4793,12.287,12.2408,12.2793,12.2024,12.1574,12.1727,12.2177,12.2331,12.21,12.1716,12.1716,12.1716,15.2799,15.2491,15.2183,15.303,15.2491,15.2029,15.2029,15.2029,15.2029,15.2029,15.2029,15.2029,15.2029,15.2029,15.2029,15.2029,15.0491,14.9476,14.9413,14.7875,14.7028,14.6875,14.6798,14.6413,14.5797,14.572,14.5336,14.4412,14.4489,14.4476,14.4489,14.3028,14.2489,14.3118,14.2258,14.2027,14.1874,14.1874,14.1874,14.1874,14.1874,14.1874,14.1874,14.2027,14.2027,14.1874,14.2104,14.1566,14.1104,14.272,14.3797,14.4412,14.3489,14.3874,14.4412,14.3412,14.372,14.4028,14.2412,14.1335,14.0489,13.9475,14.0027,14.0335,13.8502,13.8117,13.8117,13.8117,13.7501,13.6565,13.5795,13.6334,13.6334,13.4795,13.4411,13.4026,13.318,13.2333,13.1718,13.1795,13.1872,13.2179,13.2885,13.0794,12.9025,12.8089,12.8794,12.9179,12.9102,12.8486,12.8089,12.8089,12.7332,12.7037,12.7025,12.7794,12.6871,12.4486,12.6101,12.6101,12.4639,12.5178,12.5101,12.4409,12.3408,12.3101,12.3101,12.2177,12.1804,12.1793,12.187,12.2331,12.2793,12.21,12.2716,12.3716,15.1875,15.1568,15.1337,15.2106,15.2106,15.2029,15.2029,15.2029,15.2029,15.2029,15.2029,15.2029,15.2029,15.2029,15.2029,15.2029,15.1029,14.9875,14.8567,14.8106,14.7567,14.6875,14.5567,14.549,14.6567,14.6028,14.5336,14.4412,14.5105,14.5413,14.5413,14.5028,14.4182,14.3105,14.2874,14.2489,14.1874,14.1874,14.1874,14.1874,14.1874,14.1874,14.2027,14.2566,14.2412,14.2104,14.3412,14.3335,14.272,14.3797,14.472,14.5336,14.4412,14.5105,14.5874,14.372,14.372,14.4028,14.2412,14.1797,14.1181,13.9719,14.0489,14.1027,13.8565,13.8117,13.8117,13.8117,13.7873,13.7578,13.6719,13.6719,13.6719,13.6334,13.518,13.418,13.4026,13.2718,13.2025,13.2577,13.3333,13.3487,13.3038,13.1333,12.9871,12.9025,12.9717,12.9563,12.8332,12.9333,12.9871,12.9871,12.9102,12.9025,12.9717,12.9794,12.9025,12.7089,12.8179,12.8486,12.8102,12.6871,12.6717,12.7012,12.4793,12.4178,12.4793,12.387,12.3562,12.3562,12.4332,12.387,12.3024,12.3408,12.3024,12.2177,15.2414,15.1875,15.1568,15.2491,15.226,15.2029,15.2029,15.2029,15.2029,15.2029,15.2029,15.2029,15.2029,15.1568,15.1183,15.0798,15.0414,14.9798,14.8875,14.8413,14.7798,14.6875,14.6105,14.5567,14.572,14.6105,14.5874,14.5028,14.549,14.549,14.5105,14.472,14.4028,14.3105,14.272,14.2258,14.1874,14.1874,14.1874,14.1874,14.1874,14.2104,14.2489,14.2874,14.3412,14.3797,14.4182,14.4412,14.4412,14.4874,14.5567,14.6182,14.572,14.6182,14.6567,14.4797,14.4412,14.4105,14.2797,14.1874,14.1104,14.0104,14.0335,14.0335,13.9027,13.9027,13.9181,13.8796,13.8411,13.7796,13.7026,13.6796,13.6796,13.6796,13.5719,13.4872,13.4872,13.341,13.2564,13.3487,13.3333,13.2872,13.241,13.1564,13.0718,12.9871,12.9871,12.9717,12.9179,12.9563,13.0179,13.1025,13.0333,13.0179,13.1102,13.1102,13.0564,12.9717,13.0179,12.9794,12.864,12.8102,12.7717,12.7178,12.5486,12.5024,12.5332,12.4486,12.4101,12.4101,12.4639,12.4178,12.3485,12.3485,12.2716,12.1727,15.2722,15.226,15.2106,15.2876,15.2491,15.1875,15.1799,15.1799,15.1799,15.1799,15.1799,15.1799,15.1799,15.1029,15.0183,14.9337,14.949,14.9567,14.9337,14.8875,14.8182,14.7182,14.6798,14.6105,14.4874,14.5874,14.6182,14.572,14.5797,14.549,14.4797,14.3874,14.3489,14.3258,14.2489,14.2027,14.1874,14.1874,14.2027,14.2104,14.2104,14.2566,14.3258,14.3258,14.4182,14.5413,14.4797,14.5182,14.5874,14.5874,14.6336,14.6875,14.6875,14.6875,14.6798,14.6105,14.5336,14.4489,14.372,14.2335,14.1027,14.0873,14.0335,13.9719,13.9412,14.0027,14.0412,13.9719,13.9027,13.8181,13.718,13.7026,13.7026,13.6796,13.6026,13.5334,13.5334,13.3795,13.3103,13.4026,13.2718,13.1564,13.1487,13.141,13.0871,13.0102,12.9717,12.9563,13.0025,12.9717,13.0102,13.1487,13.0794,13.0871,13.1718,13.1718,13.1718,13.1718,13.1718,13.0564,12.864,12.9179,12.8717,12.7268,12.6332,12.5794,12.5794,12.487,12.4486,12.4486,12.4486,12.4409,12.4024,12.3024,12.2177,12.1574,15.0875,15.1029,15.1183,15.2029,15.2106,15.1722,15.1029,15.0875,15.0875,15.0875,15.0875,15.0875,15.0875,15.0091,14.9337,14.849,14.9721,14.9875,14.849,14.9567,14.9721,14.8106,14.6567,14.6105,14.6567,14.5413,14.5105,14.572,14.6413,14.6721,14.649,14.572,14.4874,14.4182,14.3335,14.2566,14.1874,14.1874,14.2258,14.2874,14.2874,14.3489,14.4182,14.4182,14.4412,14.472,14.5336,14.6028,14.6721,14.6721,14.6798,14.6875,14.6875,14.6875,14.6875,14.6798,14.6182,14.549,14.5413,14.4105,14.2566,14.1874,14.1566,14.1181,13.9642,14.0027,14.0566,14.0412,14.0335,13.9796,13.8181,13.7886,13.7732,13.6873,13.5488,13.4487,13.4487,13.3026,13.2179,13.3115,13.2333,13.141,13.0718,13.0025,12.9179,12.832,12.9487,12.9717,12.832,12.9563,13.041,13.0718,13.0564,13.0871,13.1718,13.1718,13.1718,13.1718,13.1718,13.1487,13.1179,13.0564,13.0179,12.9871,12.8332,12.764,12.7474,12.6717,12.6332,12.6332,12.6332,12.5409,12.387,12.2408,12.1727,12.1574,15.0029,15.0029,15.0337,15.1106,15.0875,15.0568,15.0721,15.0337,15.0029,15.0029,15.0029,15.0183,15.0721,15.0029,14.9029,14.7567,14.8567,14.9029,14.8182,14.8875,14.9029,14.8182,14.6567,14.5874,14.6182,14.549,14.5336,14.572,14.649,14.6413,14.549,14.5105,14.4336,14.3028,14.2566,14.2181,14.1874,14.2412,14.2797,14.3105,14.3566,14.4336,14.5105,14.5105,14.5413,14.5797,14.6182,14.6567,14.6875,14.6875,14.6875,14.6875,14.6875,14.6875,14.6875,14.6875,14.6028,14.5105,14.5567,14.4105,14.2489,14.2489,14.2181,14.1566,14.0335,14.0719,14.1027,14.0104,13.9488,13.9104,13.8796,13.8027,13.718,13.6873,13.5411,13.4103,13.3564,13.2487,13.1795,13.2179,13.2423,13.2102,13.1256,13.041,12.9563,12.8717,12.9333,12.941,12.8717,12.9794,13.0718,13.1179,13.1179,13.1333,13.1718,13.1718,13.1718,13.1718,13.1718,13.1487,13.1025,13.0718,13.0179,12.9717,12.8397,12.7859,12.7782,12.7025,12.6729,12.6729,12.6729,12.587,12.4716,12.3408,12.2716,12.2408]}]]